[[{"header":{"parameterUnit":"m.s-1","parameterCategory":1,"la1":30.6,"la2":28.766,"lo1":-90.7593,"lo2":-88.6598,"dy":0.0162,"dx":0.0183,"nx":116,"ny":114,"refTime":"2023-09-17T00:00:00:Z","depth":0,"parameterNumber":2,"parameterNumberName":"U-component_of_WINDS"},"data":[0.0,0.0,0.0,0.0,0.0,0.0,0.0,0.0,0.0,0.0,0.0,0.0,0.0,0.0,0.0,0.0,0.0,0.0,0.0,0.0,0.0,0.0,0.0,0.0,0.0,0.0,0.0,0.0,0.0,0.0,0.0,0.0,0.0,0.0,0.0,0.0,0.0,0.0,0.0,0.0,0.0,0.0,0.0,0.0,0.0,0.0,0.0,0.0,0.0,0.0,0.0,0.0,0.0,0.0,0.0,0.0,0.0,0.0,0.0,0.0,0.0,0.0,0.0,0.0,0.0,0.0,0.0,0.0,0.0,0.0,0.0,0.0,0.0,0.0,0.0,0.0,0.0,0.0,0.0,0.0,0.0,0.0,0.0,0.0,0.0,0.0,0.0,0.0,0.0,0.0,0.0,0.0,0.0,0.0,0.0,0.0,0.0,0.0,0.0,0.0,0.0,0.0,0.0,0.0,0.0,0.0,0.0,0.0,0.0,0.0,0.0,0.0,0.0,0.0,0.0,0.0,0.0,0.0,0.0,0.0,0.0,0.0,0.0,0.0,0.0,0.0,0.0,0.0,0.0,0.0,0.0,0.0,0.0,0.0,0.0,0.0,0.0,0.0,0.0,0.0,0.0,0.0,0.0,0.0,0.0,0.0,0.0,0.0,0.0,0.0,0.0,0.0,0.0,0.0,0.0,0.0,0.0,0.0,0.0,0.0,0.0,0.0,0.0,0.0,0.0,0.0,0.0,0.0,0.0,0.0,0.0,0.0,0.0,0.0,0.0,0.0,0.0,0.0,0.0,0.0,0.0,0.0,0.0,0.0,0.0,0.0,0.0,0.0,0.0,0.0,0.0,0.0,0.0,0.0,0.0,0.0,0.0,0.0,0.0,0.0,0.0,0.0,0.0,0.0,0.0,0.0,0.0,0.0,0.0,0.0,0.0,0.0,0.0,0.0,0.0,0.0,0.0,0.0,0.0,0.0,0.0,0.0,0.0,0.0,0.0,0.0,0.0,0.0,0.0,0.0,0.0,0.0,0.0,0.0,0.0,0.0,0.0,0.0,0.0,0.0,0.0,0.0,0.0,0.0,0.0,0.0,0.0,0.0,0.0,0.0,0.0,0.0,0.0,0.0,0.0,0.0,0.0,0.0,0.0,0.0,0.0,0.0,0.0,0.0,0.0,0.0,0.0,0.0,0.0,0.0,0.0,0.0,0.0,0.0,0.0,0.0,0.0,0.0,0.0,0.0,0.0,0.0,0.0,0.0,0.0,0.0,0.0,0.0,0.0,0.0,0.0,0.0,0.0,0.0,0.0,0.0,0.0,0.0,0.0,0.0,0.0,0.0,0.0,0.0,0.0,0.0,0.0,0.0,0.0,0.0,0.0,0.0,0.0,0.0,0.0,0.0,0.0,0.0,0.0,0.0,0.0,0.0,0.0,0.0,0.0,0.0,0.0,0.0,0.0,0.0,0.0,0.0,0.0,0.0,0.0,0.0,0.0,0.0,0.0,0.0,0.0,0.0,0.0,0.0,0.0,0.0,0.0,0.0,0.0,0.0,0.0,0.0,0.0,0.0,0.0,0.0,0.0,0.0,0.0,0.0,0.0,0.0,0.0,0.0,0.0,0.0,0.0,0.0,0.0,0.0,0.0,0.0,0.0,0.0,0.0,0.0,0.0,0.0,0.0,0.0,0.0,0.0,0.0,0.0,0.0,0.0,0.0,0.0,0.0,0.0,0.0,0.0,0.0,0.0,0.0,0.0,0.0,0.0,0.0,0.0,0.0,0.0,0.0,0.0,0.0,0.0,0.0,0.0,0.0,0.0,0.0,0.0,0.0,0.0,0.0,0.0,0.0,0.0,0.0,0.0,0.0,0.0,0.0,0.0,0.0,0.0,0.0,0.0,0.0,0.0,0.0,0.0,0.0,0.0,0.0,0.0,0.0,0.0,0.0,0.0,0.0,0.0,0.0,0.0,0.0,0.0,0.0,0.0,0.0,0.0,0.0,0.0,0.0,0.0,0.0,0.0,0.0,0.0,0.0,0.0,0.0,0.0,0.0,0.0,0.0,0.0,0.0,0.0,0.0,0.0,0.0,0.0,0.0,0.0,0.0,0.0,0.0,0.0,0.0,0.0,0.0,0.0,0.0,0.0,0.0,0.0,0.0,0.0,0.0,0.0,0.0,0.0,0.0,0.0,0.0,0.0,0.0,0.0,0.0,0.0,0.0,0.0,0.0,0.0,0.0,0.0,0.0,0.0,0.0,0.0,0.0,0.0,0.0,0.0,0.0,0.0,0.0,0.0,0.0,0.0,0.0,0.0,0.0,0.0,0.0,0.0,0.0,0.0,0.0,0.0,0.0,0.0,0.0,0.0,0.0,0.0,0.0,0.0,0.0,0.0,0.0,0.0,0.0,0.0,0.0,0.0,0.0,0.0,0.0,0.0,0.0,0.0,0.0,0.0,0.0,0.0,0.0,0.0,0.0,0.0,0.0,0.0,0.0,0.0,0.0,0.0,0.0,0.0,0.0,0.0,0.0,0.0,0.0,0.0,0.0,0.0,0.0,0.0,0.0,0.0,0.0,0.0,0.0,0.0,0.0,0.0,0.0,0.0,0.0,0.0,0.0,0.0,0.0,0.0,0.0,0.0,0.0,0.0,0.0,0.0,0.0,0.0,0.0,0.0,0.0,0.0,0.0,0.0,0.0,0.0,0.0,0.0,0.0,0.0,0.0,0.0,0.0,0.0,0.0,0.0,0.0,0.0,0.0,0.0,0.0,0.0,0.0,0.0,0.0,0.0,0.0,0.0,0.0,0.0,0.0,0.0,0.0,0.0,0.0,0.0,0.0,0.0,0.0,0.0,0.0,0.0,0.0,0.0,0.0,0.0,0.0,0.0,0.0,0.0,0.0,0.0,0.0,0.0,0.0,0.0,0.0,0.0,0.0,0.0,0.0,0.0,0.0,0.0,0.0,0.0,0.0,0.0,0.0,0.0,0.0,0.0,0.0,0.0,0.0,0.0,0.0,0.0,0.0,0.0,0.0,0.0,0.0,0.0,0.0,0.0,0.0,0.0,0.0,0.0,0.0,0.0,0.0,0.0,0.0,0.0,0.0,0.0,0.0,0.0,0.0,0.0,0.0,0.0,0.0,0.0,0.0,0.0,0.0,0.0,0.0,0.0,0.0,0.0,0.0,0.0,0.0,0.0,0.0,0.0,0.0,0.0,0.0,0.0,0.0,0.0,0.0,0.0,0.0,0.0,0.0,0.0,0.0,0.0,0.0,0.0,0.0,0.0,0.0,0.0,0.0,0.0,0.0,0.0,0.0,0.0,0.0,0.0,0.0,0.0,0.0,0.0,0.0,0.0,0.0,0.0,0.0,0.0,0.0,0.0,0.0,0.0,0.0,0.0,0.0,0.0,0.0,0.0,0.0,0.0,0.0,0.0,0.0,0.0,0.0,0.0,0.0,0.0,0.0,0.0,0.0,0.0,0.0,0.0,0.0,0.0,0.0,0.0,0.0,0.0,0.0,0.0,0.0,0.0,0.0,0.0,0.0,0.0,0.0,0.0,0.0,0.0,0.0,0.0,0.0,0.0,0.0,0.0,0.0,0.0,0.0,0.0,0.0,0.0,0.0,0.0,0.0,0.0,0.0,0.0,0.0,0.0,0.0,0.0,0.0,0.0,0.0,0.0,0.0,0.0,0.0,0.0,0.0,0.0,0.0,0.0,0.0,0.0,0.0,0.0,0.0,0.0,0.0,0.0,0.0,0.0,0.0,0.0,0.0,0.0,0.0,0.0,0.0,0.0,0.0,0.0,0.0,0.0,0.0,0.0,0.0,0.0,0.0,0.0,0.0,0.0,0.0,0.0,0.0,0.0,0.0,0.0,0.0,0.0,0.0,0.0,0.0,0.0,0.0,0.0,0.0,0.0,0.0,0.0,0.0,0.0,0.0,0.0,0.0,0.0,0.0,0.0,0.0,0.0,0.0,0.0,0.0,0.0,0.0,0.0,0.0,0.0,0.0,0.0,0.0,0.0,0.0,0.0,0.0,0.0,0.0,0.0,0.0,0.0,0.0,0.0,0.0,0.0,0.0,0.0,0.0,0.0,0.0,0.0,0.0,0.0,0.0,0.0,0.0,0.0,0.0,0.0,0.0,0.0,0.0,0.0,0.0,0.0,0.0,0.0,0.0,0.0,0.0,0.0,0.0,0.0,0.0,0.0,0.0,0.0,0.0,0.0,0.0,0.0,0.0,0.0,0.0,0.0,0.0,0.0,0.0,0.0,0.0,0.0,0.0,0.0,0.0,0.0,0.0,0.0,0.0,0.0,0.0,0.0,0.0,0.0,0.0,0.0,0.0,0.0,0.0,0.0,0.0,0.0,0.0,0.0,0.0,0.0,0.0,0.0,0.0,0.0,0.0,0.0,0.0,0.0,0.0,0.0,0.0,0.0,0.0,0.0,0.0,0.0,0.0,0.0,0.0,0.0,0.0,0.0,0.0,0.0,0.0,0.0,0.0,0.0,0.0,0.0,0.0,0.0,0.0,0.0,0.0,0.0,0.0,0.0,0.0,0.0,0.0,0.0,0.0,0.0,0.0,0.0,0.0,0.0,0.0,0.0,0.0,0.0,0.0,0.0,0.0,0.0,0.0,0.0,0.0,0.0,0.0,0.0,0.0,0.0,0.0,0.0,0.0,0.0,0.0,0.0,0.0,0.0,0.0,0.0,0.0,0.0,0.0,0.0,0.0,0.0,0.0,0.0,0.0,0.0,0.0,0.0,0.0,0.0,0.0,0.0,0.0,0.0,0.0,0.0,0.0,0.0,0.0,0.0,0.0,0.0,0.0,0.0,0.0,0.0,0.0,0.0,0.0,0.0,0.0,0.0,0.0,0.0,0.0,0.0,0.0,0.0,0.0,0.0,0.0,0.0,0.0,0.0,0.0,0.0,0.0,0.0,0.0,0.0,0.0,0.0,0.0,0.0,0.0,0.0,0.0,0.0,0.0,0.0,0.0,0.0,0.0,0.0,0.0,0.0,0.0,0.0,0.0,0.0,0.0,0.0,0.0,0.0,0.0,0.0,0.0,0.0,0.0,0.0,0.0,0.0,0.0,0.0,0.0,0.0,0.0,0.0,0.0,0.0,0.0,0.0,0.0,0.0,0.0,0.0,0.0,0.0,0.0,0.0,0.0,0.0,0.0,0.0,0.0,0.0,0.0,0.0,0.0,0.0,0.0,0.0,0.0,0.0,0.0,0.0,0.0,0.0,0.0,0.0,0.0,0.0,0.0,0.0,0.0,0.0,0.0,0.0,0.0,0.0,0.0,0.0,0.0,0.0,0.0,0.0,0.0,0.0,0.0,0.0,0.0,0.0,0.0,0.0,0.0,0.0,0.0,0.0,0.0,0.0,0.0,0.0,0.0,0.0,0.0,0.0,0.0,0.0,0.0,0.0,0.0,0.0,0.0,0.0,0.0,0.0,0.0,0.0,0.0,0.0,0.0,0.0,0.0,0.0,0.0,0.0,0.0,0.0,0.0,0.0,0.0,0.0,0.0,0.0,0.0,0.0,0.0,0.0,0.0,0.0,0.0,0.0,0.0,0.0,0.0,0.0,0.0,0.0,0.0,0.0,0.0,0.0,0.0,0.0,0.0,0.0,0.0,0.0,0.0,0.0,0.0,0.0,0.0,0.0,0.0,0.0,0.0,0.0,0.0,0.0,0.0,0.0,0.0,0.0,0.0,0.0,0.0,0.0,0.0,0.0,0.0,0.0,0.0,0.0,0.0,0.0,0.0,0.0,0.0,0.0,0.0,0.0,0.0,0.0,0.0,0.0,0.0,0.0,0.0,0.0,0.0,0.0,0.0,0.0,0.0,0.0,0.0,0.0,0.0,0.0,0.0,0.0,0.0,0.0,0.0,0.0,0.0,0.0,0.0,0.0,0.0,0.0,0.0,0.0,0.0,0.0,0.0,0.0,0.0,0.0,0.0,0.0,0.0,0.0,0.0,0.0,0.0,0.0,0.0,0.0,0.0,0.0,0.0,0.0,0.0,0.0,0.0,0.0,0.0,0.0,0.0,0.0,0.0,0.0,0.0,0.0,0.0,0.0,0.0,0.0,1.9139,1.9594,0.0,0.0,0.0,0.0,0.0,0.0,0.0,0.0,0.0,0.0,0.0,0.0,0.0,0.0,0.0,0.0,0.0,0.0,0.0,0.0,0.0,0.0,0.0,0.0,0.0,0.0,0.0,0.0,0.0,0.0,0.0,0.0,0.0,0.0,0.0,0.0,0.0,0.0,1.7561,1.7657,1.7496,1.807,1.8414,1.8572,0.0,0.0,0.0,0.0,0.0,0.0,0.0,0.0,0.0,0.0,0.0,0.0,0.0,0.0,0.0,0.0,0.0,0.0,0.0,0.0,0.0,0.0,0.0,0.0,0.0,0.0,0.0,0.0,0.0,0.0,0.0,0.0,0.0,0.0,0.0,0.0,0.0,0.0,0.0,0.0,0.0,0.0,0.0,0.0,0.0,0.0,0.0,0.0,0.0,0.0,0.0,0.0,0.0,0.0,0.0,0.0,0.0,0.0,0.0,0.0,0.0,0.0,0.0,0.0,0.0,0.0,0.0,0.0,0.0,0.0,1.888,1.9064,0.0,0.0,0.0,0.0,0.0,0.0,0.0,0.0,0.0,0.0,0.0,0.0,0.0,0.0,0.0,0.0,0.0,0.0,0.0,0.0,0.0,0.0,0.0,0.0,1.65,1.6479,1.6425,1.6382,0.0,0.0,0.0,0.0,0.0,0.0,0.0,1.716,1.7469,1.7379,1.746,1.7493,1.7465,1.8089,1.8151,1.7742,1.8171,0.0,0.0,0.0,0.0,0.0,0.0,0.0,0.0,0.0,0.0,0.0,0.0,0.0,0.0,0.0,0.0,0.0,0.0,0.0,0.0,0.0,0.0,0.0,0.0,0.0,0.0,0.0,0.0,0.0,0.0,0.0,0.0,0.0,0.0,0.0,0.0,0.0,0.0,0.0,0.0,0.0,0.0,0.0,0.0,0.0,0.0,0.0,0.0,0.0,0.0,0.0,0.0,0.0,0.0,0.0,0.0,0.0,0.0,0.0,0.0,0.0,0.0,0.0,2.0283,2.0364,2.0364,2.0364,1.9909,1.9106,1.8992,1.8996,1.9104,1.9605,0.0,0.0,0.0,0.0,0.0,0.0,0.0,0.0,0.0,0.0,0.0,0.0,0.0,0.0,0.0,0.0,0.0,0.0,0.0,0.0,0.0,1.6599,1.6479,1.6414,1.6403,1.6351,0.0,0.0,0.0,0.0,0.0,0.0,1.7572,1.6819,1.6827,1.7652,1.7042,1.6659,1.6482,1.6355,1.6255,1.6278,1.844,1.94,1.9371,0.0,0.0,0.0,0.0,0.0,0.0,0.0,0.0,0.0,0.0,0.0,0.0,0.0,0.0,0.0,0.0,0.0,0.0,0.0,0.0,0.0,0.0,0.0,0.0,0.0,0.0,0.0,0.0,0.0,0.0,0.0,0.0,0.0,0.0,0.0,0.0,0.0,0.0,0.0,0.0,0.0,1.7166,1.6417,0.0,0.0,0.0,0.0,0.0,0.0,0.0,0.0,0.0,0.0,0.0,0.0,0.0,1.8795,1.8663,1.8837,1.8927,1.8914,1.8437,1.8211,1.8211,1.8211,1.8132,1.8016,1.7999,0.0,1.9342,1.9426,0.0,0.0,0.0,0.0,0.0,0.0,0.0,0.0,0.0,0.0,0.0,0.0,0.0,0.0,0.0,0.0,0.0,0.0,0.0,0.0,0.0,1.6556,1.6425,1.6392,1.6262,1.6154,1.6088,1.6454,0.0,0.0,0.0,1.7012,1.6899,1.6479,1.6406,1.6687,1.6361,1.6075,1.5791,1.5929,1.6004,1.6078,1.7423,1.7841,1.752,1.7275,0.0,0.0,0.0,0.0,0.0,0.0,0.0,0.0,0.0,0.0,0.0,0.0,0.0,0.0,0.0,0.0,0.0,0.0,0.0,0.0,0.0,0.0,0.0,0.0,0.0,0.0,0.0,0.0,0.0,0.0,0.0,0.0,0.0,0.0,0.0,0.0,0.0,0.0,0.0,1.6602,1.6735,1.6552,1.6934,1.7176,0.0,0.0,0.0,0.0,0.0,0.0,0.0,0.0,0.0,1.7342,1.7618,1.7741,1.7741,1.8122,1.8312,1.832,1.8457,1.8543,1.8543,1.8543,1.8543,1.8543,1.8543,1.8877,1.9405,1.8765,1.926,2.0402,0.0,0.0,0.0,0.0,2.0553,2.0531,0.0,0.0,0.0,0.0,0.0,0.0,0.0,0.0,0.0,0.0,0.0,0.0,1.6652,1.6502,1.6382,1.6351,1.6132,1.5983,1.5926,1.6302,0.0,0.0,1.6649,1.664,1.6107,1.5998,1.5738,1.5298,1.5415,1.5327,1.5058,1.5396,1.5626,1.5734,1.6078,1.6241,1.6245,1.6112,1.6043,1.6088,0.0,0.0,0.0,0.0,0.0,0.0,0.0,0.0,0.0,0.0,0.0,0.0,0.0,0.0,0.0,0.0,0.0,0.0,0.0,0.0,0.0,0.0,0.0,0.0,0.0,0.0,0.0,0.0,0.0,0.0,0.0,0.0,0.0,0.0,0.0,0.0,0.0,1.6166,1.6228,1.6807,1.663,1.6638,0.0,0.0,0.0,0.0,0.0,0.0,1.6489,1.6531,1.6575,1.6575,1.6563,1.6561,1.6561,1.7061,1.7315,1.7322,1.7928,1.821,1.821,1.8513,1.8644,1.8669,1.8971,1.9216,1.9335,1.8556,1.8956,1.9999,1.9445,1.9922,2.0893,2.0382,2.0205,2.0159,0.0,0.0,0.0,0.0,0.0,0.0,0.0,0.0,0.0,0.0,0.0,1.6665,1.6522,1.6436,1.6351,1.6222,1.6077,1.5928,1.5727,1.6085,1.6283,1.621,1.629,1.6175,1.583,1.5264,1.4531,1.3623,1.4064,1.4215,1.4066,1.409,1.4305,1.4681,1.4699,1.5645,1.7198,1.6694,1.648,1.648,1.6499,0.0,0.0,0.0,0.0,0.0,0.0,0.0,0.0,0.0,0.0,0.0,0.0,0.0,0.0,0.0,0.0,0.0,0.0,0.0,0.0,0.0,0.0,0.0,0.0,0.0,0.0,0.0,0.0,0.0,0.0,0.0,0.0,0.0,0.0,0.0,0.0,0.0,0.0,1.7206,1.5462,0.0,0.0,0.0,0.0,1.466,1.494,1.5087,1.5087,1.5277,1.5382,1.5382,1.5401,1.5394,1.5394,1.5419,1.5431,1.5431,1.5664,1.5771,1.5821,1.6891,1.7378,1.7453,1.8595,1.9102,1.9143,1.9335,1.9603,1.9902,1.9886,1.9894,1.9982,1.9934,1.991,1.991,0.0,0.0,0.0,0.0,0.0,0.0,0.0,0.0,1.6981,1.6907,1.6782,1.6633,1.6446,1.634,1.61,1.5657,1.549,1.5337,1.5125,1.5548,1.5773,1.5747,1.5602,1.5153,1.4344,1.4115,1.3932,1.3824,1.3994,1.4171,1.4397,1.4397,1.4579,1.492,1.492,1.5403,1.615,1.5278,1.4883,1.4897,1.4893,1.4885,0.0,0.0,0.0,0.0,0.0,0.0,0.0,0.0,0.0,0.0,0.0,0.0,0.0,0.0,0.0,0.0,0.0,0.0,0.0,0.0,0.0,0.0,0.0,0.0,0.0,0.0,0.0,0.0,0.0,0.0,0.0,0.0,0.0,0.0,0.0,0.0,0.0,1.5438,1.4813,0.0,1.512,1.4951,1.4828,1.4828,1.4888,1.4942,1.4942,1.499,1.5045,1.5045,1.5035,1.5033,1.5033,1.5259,1.5369,1.5376,1.5669,1.58,1.58,1.6224,1.6412,1.6406,1.6853,1.7138,1.7305,1.7408,1.8207,1.9314,1.8523,1.8801,1.9649,1.9649,1.9746,1.9892,0.0,0.0,0.0,0.0,0.0,0.0,0.0,0.0,1.695,1.6907,1.6737,1.6566,1.6426,1.6121,1.5757,1.5344,1.4994,1.4789,1.4761,1.4949,1.5058,1.5054,1.4626,1.4064,1.3353,1.3349,1.3537,1.3864,1.3973,1.4296,1.4801,1.4801,1.4987,1.5302,1.5302,1.543,1.5582,1.4754,1.4388,1.4363,1.437,1.4306,1.4265,0.0,0.0,0.0,0.0,0.0,0.0,0.0,0.0,0.0,0.0,0.0,0.0,0.0,0.0,0.0,0.0,0.0,0.0,0.0,0.0,0.0,0.0,0.0,0.0,0.0,0.0,0.0,0.0,0.0,0.0,0.0,0.0,0.0,0.0,1.4326,1.3806,1.4576,1.3957,1.3753,1.44,1.4116,1.3921,1.3921,1.3878,1.3846,1.3846,1.3929,1.3948,1.3948,1.4025,1.4064,1.4064,1.4277,1.4387,1.4392,1.4696,1.4841,1.4874,1.5305,1.5536,1.5536,1.5937,1.6202,1.6331,1.5958,1.6735,1.8163,1.7379,1.7937,1.914,1.914,1.9489,1.997,0.0,0.0,0.0,0.0,0.0,0.0,0.0,1.7023,1.6886,1.6886,1.6661,1.6468,1.6392,1.58,1.5355,1.5277,1.4594,1.4309,1.4643,1.4351,1.4158,1.4154,1.3422,1.3004,1.2997,1.3083,1.3275,1.3633,1.3974,1.4514,1.5232,1.5247,1.543,1.5748,1.5756,1.5764,1.5741,1.5422,1.5245,1.5163,1.5121,1.4917,1.4619,0.0,0.0,0.0,0.0,0.0,0.0,0.0,0.0,0.0,0.0,0.0,0.0,0.0,0.0,0.0,0.0,0.0,0.0,0.0,0.0,0.0,0.0,0.0,0.0,0.0,0.0,0.0,0.0,0.0,0.0,0.0,0.0,0.0,1.4294,1.3374,1.3143,1.471,1.2879,1.198,1.3222,1.2406,1.1801,1.1801,1.1831,1.181,1.181,1.2008,1.2121,1.2121,1.2319,1.2423,1.2423,1.2428,1.2433,1.2405,1.27,1.2804,1.2837,1.4158,1.4733,1.4818,1.5901,1.64,1.6316,1.5208,1.54,1.6402,1.659,1.7331,1.8337,1.8337,1.9049,2.0065,0.0,0.0,0.0,0.0,0.0,0.0,0.0,1.6876,1.675,1.675,1.6566,1.6371,1.6264,1.5702,1.5108,1.4548,1.3954,1.3674,1.3815,1.3512,1.3331,1.3327,1.3118,1.3019,1.3068,1.3323,1.3743,1.4329,1.4712,1.5245,1.5928,1.6162,1.65,1.687,1.7109,1.722,1.7233,1.7117,1.6933,1.66,1.5536,1.505,1.496,0.0,0.0,0.0,0.0,0.0,0.0,0.0,0.0,0.0,0.0,0.0,0.0,0.0,0.0,0.0,0.0,0.0,0.0,0.0,0.0,0.0,0.0,0.0,0.0,0.0,0.0,0.0,0.0,0.0,0.0,0.0,1.326,1.309,1.3635,1.2599,1.2029,1.2603,1.2112,1.1859,1.2221,1.2116,1.2022,1.2022,1.2159,1.2239,1.2239,1.2296,1.2329,1.2329,1.2564,1.2677,1.2677,1.2819,1.2923,1.2895,1.2984,1.3013,1.3041,1.3407,1.3574,1.3578,1.391,1.4024,1.4024,1.3688,1.3744,1.4122,1.4998,1.6125,1.7323,1.7323,1.7624,1.8067,0.0,0.0,0.0,0.0,0.0,0.0,0.0,1.6814,1.6697,1.6697,1.6523,1.6351,1.6211,1.54,1.4698,1.4246,1.3583,1.3221,1.3295,1.3107,1.3007,1.2995,1.3028,1.3066,1.31,1.3703,1.4282,1.4845,1.5372,1.5975,1.6659,1.6865,1.6983,1.7063,1.7257,1.7152,1.6837,1.6837,1.671,1.6461,1.5605,1.5393,1.554,1.5403,1.5451,1.5578,1.5377,1.5315,1.5343,1.5573,0.0,0.0,0.0,0.0,0.0,0.0,0.0,0.0,0.0,0.0,0.0,0.0,0.0,0.0,0.0,0.0,0.0,0.0,0.0,0.0,0.0,0.0,0.0,0.0,1.2683,1.2572,1.2812,1.2149,1.1692,1.1905,1.1923,1.1961,1.2041,1.2164,1.2239,1.2239,1.2321,1.2451,1.2573,1.2578,1.2616,1.2701,1.2828,1.2923,1.2923,1.3036,1.3093,1.3093,1.3188,1.3231,1.3235,1.3316,1.3358,1.3358,1.3358,1.3358,1.3358,1.3358,1.3358,1.3398,0.0,0.0,0.0,0.0,1.6891,1.7142,0.0,0.0,0.0,0.0,0.0,0.0,0.0,1.6761,1.6675,1.6665,1.6436,1.6241,1.6111,1.496,1.4167,1.4083,1.332,1.2869,1.2935,1.2964,1.3005,1.3016,1.3067,1.3148,1.3203,1.4084,1.4788,1.5255,1.5811,1.6447,1.7172,1.7158,1.6966,1.6625,1.6669,1.6299,1.5614,1.5614,1.5614,1.5607,1.5573,1.5848,1.6221,1.5826,1.5931,1.6272,1.6209,1.6144,1.6104,1.6104,0.0,0.0,0.0,0.0,0.0,0.0,0.0,0.0,0.0,0.0,0.0,0.0,0.0,0.0,0.0,0.0,0.0,0.0,0.0,0.0,0.0,0.0,0.0,0.0,1.2291,1.1905,1.2117,1.1958,1.1907,1.2121,1.2123,1.2189,1.2368,1.2378,1.2392,1.2392,1.2361,1.2482,1.2707,1.2716,0.0,0.0,0.0,1.3102,1.3131,1.3155,1.3164,1.3169,1.3363,1.3424,1.3429,1.3608,1.3688,1.3688,1.3688,1.3688,1.3688,1.3688,1.3688,1.3651,1.3311,1.379,1.4813,1.5818,1.6343,1.6528,0.0,0.0,0.0,0.0,0.0,0.0,0.0,1.662,1.6511,1.647,1.5943,1.5568,1.5478,1.434,1.3529,1.3409,1.283,1.2502,1.2519,1.2824,1.3028,1.3092,1.3084,1.3346,1.3885,1.415,1.4712,1.5597,1.5412,1.5667,1.632,1.6278,1.6215,1.6149,1.6472,1.6523,1.6383,1.6383,1.6383,1.6355,1.6028,1.6187,1.6527,1.5867,1.5879,1.6157,1.5616,1.5193,1.4935,1.4935,1.5324,1.5805,1.5805,1.5996,0.0,0.0,0.0,0.0,0.0,0.0,0.0,0.0,0.0,0.0,0.0,0.0,0.0,0.0,0.0,0.0,0.0,0.0,0.0,1.2402,1.2128,1.2121,1.2297,1.213,1.2067,1.2321,1.2325,1.2371,1.2409,1.2349,1.2312,1.2312,1.2228,1.2189,1.2229,1.2234,1.2395,1.2688,1.2854,1.3062,1.3329,1.3485,1.357,1.357,1.3613,0.0,1.3632,1.367,1.3688,1.3688,1.3688,1.3688,1.3688,1.3688,1.3688,1.3679,1.3599,1.3719,1.3951,1.4153,1.4267,1.4326,0.0,0.0,0.0,0.0,0.0,0.0,0.0,1.65,1.6436,1.6392,1.5734,1.5231,1.5198,1.4003,1.3112,1.2921,1.2439,1.2301,1.2675,1.2509,1.2469,1.2643,1.2395,1.2529,1.3092,1.3262,1.3646,1.4244,1.4341,1.4658,1.5165,1.549,1.5537,1.5357,1.5799,1.5795,1.5439,1.5439,1.5439,1.5432,1.5228,1.5504,1.5997,1.5682,1.5799,1.6078,1.5579,1.5296,1.5157,1.5157,1.5322,1.5521,1.5691,1.5861,1.6013,0.0,0.0,0.0,0.0,0.0,0.0,0.0,0.0,0.0,0.0,0.0,0.0,0.0,0.0,1.3777,1.3093,0.0,1.2609,1.2173,1.2063,1.208,1.2182,1.1978,1.1896,1.2169,1.2087,1.2019,1.2091,1.2084,1.2099,1.2197,1.2144,1.2126,1.2231,1.2264,1.2362,1.2635,1.2915,1.3118,1.33,1.3581,1.3688,1.3693,1.3797,1.3849,1.3854,1.3953,1.4,1.4,1.4,1.4,1.4,1.4,1.4,1.4,1.4,1.3873,1.3688,1.3688,1.3688,1.3688,0.0,0.0,0.0,0.0,0.0,0.0,0.0,1.6436,1.6382,1.6362,1.56,1.5028,1.4937,1.3699,1.2742,1.2401,1.2076,1.2163,1.2772,1.2266,1.206,1.2288,1.1882,1.1819,1.2185,1.235,1.2547,1.2811,1.3136,1.3538,1.399,1.4502,1.4578,1.4352,1.4813,1.4699,1.4154,1.425,1.4298,1.4298,1.4298,1.4651,1.519,1.5194,1.5469,1.5788,1.5503,1.5335,1.5234,1.5181,1.4996,1.4808,1.4985,1.5087,1.5151,1.5253,1.4915,0.0,0.0,0.0,0.0,0.0,0.0,0.0,0.0,1.398,1.4124,1.3686,1.3322,1.3022,1.278,1.2379,1.2089,1.2089,1.1981,1.1923,1.1923,1.1678,1.1609,1.1841,1.1735,1.1687,1.1793,1.182,1.1896,1.2044,1.2063,1.2124,1.2284,1.2293,1.2387,1.2595,1.287,1.3054,1.3114,1.3359,1.3527,1.3569,1.3803,1.3906,1.3979,1.4205,1.4312,1.4312,1.4312,1.4312,1.4312,1.4312,1.4312,1.4312,1.4312,1.4104,1.3807,1.3764,1.3726,1.3688,0.0,0.0,0.0,0.0,0.0,0.0,0.0,0.0,1.6362,1.6231,1.5468,1.4766,1.435,1.3206,1.2217,1.1589,1.1757,1.1963,1.2095,1.237,1.2546,1.2632,1.259,1.2551,1.2538,1.2282,1.2351,1.2811,1.2205,1.2366,1.3211,1.2875,1.2826,1.3026,1.3509,1.366,1.3606,1.4112,1.4298,1.4298,1.4298,1.4346,1.4405,1.4183,1.44,1.4846,1.4762,1.4213,1.3534,1.3366,1.3271,1.3172,1.2798,1.288,1.3159,1.3353,1.3421,1.3596,1.4135,1.4318,1.4124,1.3176,1.296,1.2723,0.0,1.158,1.1668,1.1769,1.1886,1.202,1.2166,1.2091,1.1996,1.1996,1.1801,1.165,1.165,1.135,1.1217,1.1447,1.1664,1.178,1.1807,1.1858,1.1888,1.1904,1.186,1.1844,1.1864,1.1864,1.1989,1.2234,1.2294,1.2449,1.2749,1.2779,1.2902,1.3079,1.3413,1.3636,1.3837,1.4141,1.4312,1.4312,1.4312,1.4312,1.4312,1.4312,1.4312,1.4312,1.4312,1.4284,1.4218,1.4043,1.3854,1.3688,0.0,0.0,0.0,0.0,0.0,0.0,0.0,0.0,0.0,1.6231,1.5311,1.4525,1.413,1.2689,1.1664,1.1423,1.1388,1.1551,1.1965,1.1901,1.2011,1.2385,1.1763,1.1426,1.1433,1.0926,1.0736,1.094,1.0799,1.0965,1.1478,1.1713,1.1947,1.2177,1.2644,1.3109,1.3515,1.3727,1.4016,1.4286,1.4129,1.3837,1.3479,1.3327,1.297,1.2634,1.3357,1.3536,0.0,1.3006,1.2877,1.2889,1.2885,1.2976,1.3128,1.3298,1.2969,1.2492,1.2174,1.2314,1.2402,1.1831,1.1877,1.1929,1.1488,1.1572,1.1744,1.1834,1.2013,1.2129,1.2057,1.2027,1.1951,1.1787,1.1509,1.1322,1.1322,1.1141,1.0791,1.0104,1.0276,1.0773,1.1562,1.1645,1.1722,1.183,1.1822,1.1806,1.1806,1.1806,1.1863,1.1949,1.2122,1.2268,1.2419,1.2712,1.2908,1.2992,1.3376,1.359,1.3702,1.4134,1.4446,1.4639,1.4639,1.4639,1.4639,1.4639,1.4639,1.4639,1.4639,1.4568,1.4441,1.4265,1.4128,1.4048,0.0,0.0,0.0,0.0,0.0,0.0,0.0,0.0,0.0,0.0,1.5266,1.4387,1.3638,1.2286,1.1353,1.1163,1.1059,1.1249,1.1814,1.1626,1.1692,1.2129,1.135,1.0745,1.0443,1.0002,0.9677,0.9432,0.9682,0.9911,1.0129,1.0733,1.1115,1.1335,1.1877,1.2416,1.2947,1.3209,1.3424,1.3596,1.353,1.3116,1.2513,1.244,1.1882,1.1238,1.2225,1.2668,1.2719,1.2409,1.2242,1.2224,1.2406,1.2435,1.2429,1.2563,1.2137,1.149,1.0858,1.0906,1.1104,1.1075,1.1335,1.1589,1.165,1.1938,1.217,1.217,1.2229,1.2219,1.2032,1.1869,1.1705,1.1486,1.1208,1.0994,1.0994,1.099,1.0529,0.923,0.9344,0.9753,1.0454,1.0521,1.0569,1.0725,1.0732,1.0732,1.0732,1.1069,1.1099,1.0732,1.1239,1.1386,1.102,1.176,1.2153,1.2252,1.3031,1.3413,1.3474,1.3908,1.4272,1.4498,1.4567,1.4632,1.4688,1.4786,1.4851,1.4898,1.4898,1.4809,1.4663,1.4507,1.4411,1.4312,0.0,0.0,0.0,0.0,0.0,0.0,0.0,0.0,0.0,0.0,0.0,0.0,0.0,1.2052,1.1447,1.0594,1.0817,1.1151,1.1487,1.1814,1.1996,1.2006,1.1906,1.1273,1.0045,1.0183,0.9863,0.9024,0.9222,0.9434,0.9625,0.9919,1.0149,1.0368,1.109,1.1444,1.1518,1.2437,1.2456,1.1915,1.2348,1.214,1.1532,1.1462,1.1429,1.1419,1.1646,1.1402,1.0984,1.1033,1.0879,1.0623,1.0459,1.0254,1.0146,1.034,1.05,1.0682,1.0849,1.0896,1.1,1.1397,1.1631,1.1834,1.2046,1.2227,1.24,1.24,1.2191,1.2005,1.2005,1.1514,1.1126,1.1131,1.0884,1.0719,1.0719,1.0878,1.0572,0.9427,0.9405,0.9105,0.8113,0.8005,0.8005,0.8008,0.8008,0.8008,0.8008,0.9195,0.9286,0.8072,0.9225,0.9286,0.8041,0.9262,1.0047,1.0397,1.2032,1.2929,1.3107,1.3341,1.3447,1.3447,1.373,1.3938,1.4157,1.4483,1.4724,1.4898,1.4898,1.4898,1.4889,1.4884,1.4625,1.4312,0.0,0.0,0.0,0.0,0.0,0.0,0.0,0.0,0.0,0.0,0.0,0.0,0.0,0.0,0.0,0.0,1.0478,1.0642,1.089,1.1225,1.1505,1.1714,1.1322,1.0786,1.0084,0.9514,0.9038,0.8609,0.868,0.8868,0.9197,0.9283,0.9521,0.984,1.0079,1.0469,1.0957,1.1261,1.1482,1.1592,1.1584,1.1164,1.0575,1.0642,1.0391,1.0059,0.0,1.0634,1.0657,1.0423,1.0275,1.02,1.0124,1.0056,1.0037,1.0233,1.0636,1.0948,1.07,1.1025,1.144,1.1436,1.1685,1.2006,1.2242,1.234,1.2355,1.2169,1.2055,1.1869,1.1486,1.1236,1.1044,1.0857,1.0747,1.0417,0.9612,1.0438,1.0054,0.7113,0.7763,0.7603,0.5446,0.6853,0.7889,0.7889,0.7889,0.7889,0.7889,0.8313,0.8343,0.7919,0.8313,0.8343,0.7919,0.8399,0.9168,1.0169,1.0832,1.1327,1.1603,1.0777,1.1006,1.2087,1.2181,1.2763,1.3667,1.4093,1.4318,1.4387,1.4749,1.4898,1.4898,1.4898,1.4809,1.4691,0.0,0.0,0.0,0.0,0.0,0.0,0.0,0.0,0.0,0.0,0.0,0.0,0.0,0.0,0.0,0.0,0.0,1.0392,1.0584,1.08,1.1087,1.1472,1.089,1.0345,0.989,0.9123,0.8551,0.8179,0.825,0.8425,0.8689,0.8746,0.8963,0.9272,0.9348,0.9681,1.0213,1.0382,1.0551,1.0705,1.062,1.0284,0.9826,0.9908,0.9721,0.0,0.985,1.0164,1.0369,1.0172,1.0061,1.0009,1.0085,1.0108,1.0148,1.0318,1.0711,1.1021,1.0845,1.1218,1.1673,1.1504,1.1733,1.2028,1.2087,1.2114,1.206,1.1896,1.1755,1.1568,1.1181,1.0661,1.041,1.0665,1.0331,0.9778,0.9003,0.983,0.927,0.5894,0.6513,0.6335,0.4104,0.545,0.6486,0.6486,0.6486,0.6486,0.6486,0.6914,0.6973,0.6486,0.6942,0.6942,0.6486,0.7043,0.7997,0.938,0.9466,0.9633,0.9885,0.8951,0.9115,1.0145,1.0239,1.1089,1.2418,1.2857,1.3375,1.3965,1.4415,1.467,1.4735,1.4866,1.4898,1.4898,0.0,0.0,0.0,0.0,0.0,0.0,0.0,0.0,0.0,0.0,0.0,0.0,0.0,0.0,0.0,0.0,0.0,0.0,1.0534,1.0558,1.0773,1.1234,1.0643,1.0041,0.9512,0.903,0.8452,0.778,0.7974,0.8069,0.8088,0.8274,0.8486,0.8694,0.8882,0.9085,0.9289,0.9736,0.9675,0.9296,0.9538,0.9498,0.9274,0.9283,0.9399,0.9616,0.9883,0.9985,1.0028,1.0209,1.0165,1.0028,1.0214,1.0295,1.0321,1.0471,1.064,1.0891,1.1186,1.1483,1.1639,1.1579,1.1759,1.1896,1.165,1.1596,1.1596,1.1568,1.1322,1.1099,1.1072,0.9888,0.9282,1.0417,0.9585,0.8782,0.8727,0.9004,0.8256,0.572,0.5706,0.5389,0.4042,0.3889,0.3889,0.3889,0.3889,0.3889,0.3889,0.5112,0.5204,0.395,0.5143,0.5174,0.392,0.5235,0.6595,0.8001,0.8001,0.8001,0.7996,0.7787,0.7736,0.7825,0.8066,0.9053,1.0487,1.0896,1.1999,1.3503,1.3915,1.4193,1.439,1.473,1.4866,1.4866,0.0,0.0,0.0,0.0,0.0,0.0,0.0,0.0,0.0,0.0,0.0,0.0,0.0,0.0,0.0,0.0,0.0,0.0,0.9862,1.0086,1.0398,1.0769,1.0382,0.9948,0.9512,0.889,0.8238,0.7574,0.7626,0.7731,0.7875,0.7932,0.8132,0.8481,0.8538,0.867,0.8859,0.8976,0.8956,0.8855,0.8918,0.8909,0.8878,0.9019,0.9208,0.9411,0.9627,0.9823,1.0004,1.0061,1.0042,1.0004,1.0061,1.0159,1.0251,1.0441,1.0717,1.0961,1.0939,1.1092,1.1262,1.1227,1.1291,1.1373,1.1568,1.1596,1.1541,1.1291,1.1154,1.1048,1.0829,0.975,0.9003,0.9309,0.8333,0.7252,0.6424,0.7267,0.7036,0.4527,0.5226,0.5389,0.4042,0.3889,0.3889,0.3889,0.3889,0.3889,0.3889,0.4225,0.4256,0.392,0.4225,0.4256,0.3889,0.5235,0.6103,0.6463,0.6463,0.6463,0.6432,0.5398,0.5481,0.6425,0.6486,0.7294,0.8707,1.0139,1.0983,1.1521,1.3097,1.3758,1.3815,1.4055,1.4305,1.4534,0.0,0.0,0.0,0.0,0.0,0.0,0.0,0.0,0.0,0.0,0.0,0.0,0.0,0.0,0.0,0.0,0.0,0.0,0.0,0.9863,1.0092,1.0374,0.9921,0.9697,0.9765,0.8792,0.8159,0.7939,0.7635,0.755,0.7674,0.7674,0.7832,0.8132,0.8222,0.8377,0.8576,0.8666,0.8755,0.0,0.0,0.8812,0.8958,0.8991,0.9128,0.933,0.9526,0.9776,0.9994,0.9994,0.9994,0.9994,0.9994,1.0082,1.024,1.0363,1.0602,1.0819,1.0772,1.0914,1.1072,1.0939,1.1017,1.1131,1.1185,1.1213,1.1158,1.0966,1.0907,1.0884,1.0719,0.9275,0.8281,0.8809,0.7476,0.6116,0.5481,0.6095,0.5927,0.4033,0.4538,0.4716,0.398,0.3889,0.3889,0.3889,0.3889,0.3889,0.3889,0.3943,0.3957,0.3957,0.3982,0.3982,0.3957,0.4669,0.5022,0.5022,0.5022,0.5022,0.4991,0.4256,0.4318,0.5022,0.5022,0.5786,0.7161,0.8759,0.9786,1.0581,1.2436,1.3258,1.3418,1.3684,1.3935,1.4174,0.0,0.0,0.0,0.0,0.0,0.0,0.0,0.0,0.0,0.0,0.0,0.0,0.0,0.0,0.0,0.0,0.0,0.0,0.0,0.0,0.9914,1.0117,0.957,0.9507,1.0017,0.8872,0.8378,0.857,0.8021,0.7717,0.7635,0.7635,0.769,0.7804,0.7979,0.8178,0.8373,0.8576,0.875,0.8906,0.8765,0.8916,0.9203,0.0,0.9085,0.9297,0.9517,0.9741,0.9961,0.9985,0.9994,0.9994,0.9994,1.0082,1.0165,1.027,1.0433,1.0578,1.0676,1.0884,1.0994,1.0747,1.0884,1.0994,1.0747,1.0692,1.0692,1.0692,1.0692,1.0692,1.0692,0.8858,0.7639,0.853,0.6813,0.5343,0.5176,0.5226,0.4893,0.3914,0.3869,0.3911,0.3888,0.3889,0.3889,0.3889,0.3889,0.3889,0.3889,0.3973,0.4007,0.4015,0.4058,0.4055,0.4004,0.3947,0.3889,0.3889,0.3889,0.3889,0.3889,0.3889,0.3889,0.3889,0.3889,0.4655,0.5998,0.734,0.875,1.0222,1.1896,1.271,1.3018,1.3364,1.3619,1.3814,0.0,0.0,0.0,0.0,0.0,0.0,0.0,0.0,0.0,0.0,0.0,0.0,0.0,0.0,0.0,0.0,0.0,0.0,0.0,0.0,0.0,1.0261,1.0146,0.996,0.9696,0.9717,0.9472,0.8908,0.9077,0.8877,0.8328,0.8328,0.8131,0.7799,0.7837,0.796,0.8168,0.8363,0.8477,0.8524,0.8647,0.8746,0.8807,0.877,0.0,0.0,0.947,0.9625,0.9703,0.9916,0.9994,0.9994,0.9994,0.9943,0.9931,1.0221,1.0281,1.0316,1.0622,1.0719,1.0747,1.0719,1.0719,1.0747,1.0719,1.0692,1.0692,1.0692,1.0692,1.0692,1.0692,0.9554,0.8337,0.7529,0.6283,0.5065,0.4061,0.396,0.3972,0.3822,0.3862,0.3895,0.3915,0.3889,0.3889,0.3889,0.3889,0.3889,0.3889,0.3973,0.4026,0.4076,0.4039,0.4013,0.4003,0.3947,0.3889,0.3889,0.3889,0.3889,0.3889,0.3889,0.3889,0.3889,0.3889,0.4655,0.5998,0.734,0.8662,1.0012,1.1502,1.2256,1.2464,1.2704,1.3072,1.3498,0.0,0.0,0.0,0.0,0.0,0.0,0.0,0.0,0.0,0.0,1.4835,1.4245,0.0,0.0,0.0,0.0,0.0,0.0,0.0,0.0,0.0,0.0,0.0,0.0,0.9967,0.978,0.9653,0.9569,0.0,0.9158,0.9021,0.8667,0.837,0.816,0.7916,0.7851,0.7955,0.8164,0.8302,0.8411,0.8505,0.8609,0.8703,0.0,0.0,0.0,0.9211,0.9423,0.962,0.9741,0.9883,0.9994,0.9994,0.9993,1.0048,1.0245,1.0357,1.0447,1.0649,1.0692,1.0692,1.0692,1.0692,1.0692,1.0692,1.0692,1.0692,1.0692,1.0692,1.0692,1.0692,0.9722,0.8502,0.7307,0.6146,0.4981,0.3783,0.3669,0.3718,0.3747,0.3834,0.389,0.3857,0.3884,0.3907,0.3906,0.3901,0.3889,0.3889,0.4003,0.4092,0.4217,0.4099,0.405,0.405,0.3963,0.3889,0.3889,0.3889,0.3889,0.3889,0.3889,0.3889,0.3889,0.3889,0.4256,0.5022,0.7065,0.8252,0.9022,1.1092,1.2008,1.2186,1.2365,1.2672,1.3004,0.0,0.0,0.0,0.0,0.0,0.0,0.0,1.678,1.6126,1.5744,1.5028,1.4466,1.4269,1.4034,0.0,0.0,0.0,0.0,0.0,0.0,0.0,0.0,0.0,0.0,1.0232,0.0,0.0,1.0194,0.9747,0.0,0.0,0.0,0.0,0.0,0.7903,0.7728,0.7759,0.8102,0.8255,0.0,0.0,0.8626,0.8642,0.0,0.0,0.0,0.0,0.9221,0.954,0.9587,0.9781,0.9994,0.9994,1.005,1.0157,1.0257,1.0403,1.0528,1.0668,1.0692,1.0692,1.0692,1.0692,1.0692,1.0692,1.0692,1.0692,1.0692,1.0692,1.0692,1.0692,0.9919,0.8889,0.7695,0.6505,0.5341,0.4145,0.3798,0.3692,0.3706,0.3803,0.3851,0.3803,0.3849,0.3895,0.3895,0.3886,0.39,0.3955,0.4043,0.4149,0.4304,0.4157,0.4093,0.4093,0.3978,0.3889,0.3889,0.3889,0.3889,0.3889,0.3889,0.3889,0.392,0.4195,0.4501,0.493,0.7034,0.8224,0.8897,1.0668,1.163,1.2021,1.2239,1.2418,1.2621,0.0,0.0,0.0,0.0,0.0,0.0,0.0,1.7227,1.657,1.6114,1.5456,1.4869,1.4431,1.4257,0.0,0.0,0.0,0.0,0.0,0.0,0.0,0.0,0.0,0.0,0.0,0.0,0.0,1.0462,1.1017,0.0,0.0,0.0,0.0,0.0,0.0,0.7522,0.7581,0.8384,0.0,0.0,0.0,0.0,0.0,0.0,0.0,0.0,0.0,0.9146,0.9363,0.9536,0.9781,0.9994,0.9994,0.9957,0.9985,1.0217,1.0262,1.0291,1.0635,1.0692,1.0692,1.0692,1.0692,1.0692,1.0692,1.0692,1.0692,1.0692,1.0692,1.0692,1.0692,1.061,1.0139,0.892,0.7725,0.6533,0.5397,0.429,0.3644,0.37,0.3766,0.3805,0.3799,0.3849,0.3895,0.3895,0.3886,0.3966,0.4072,0.4088,0.4149,0.4304,0.4157,0.4093,0.4093,0.3978,0.3889,0.3889,0.3889,0.3889,0.3889,0.3889,0.3889,0.398,0.5174,0.6394,0.7553,0.7797,0.9292,1.1345,1.0358,1.0821,1.2021,1.2239,1.2418,1.2621,0.0,0.0,0.0,0.0,0.0,0.0,0.0,1.7269,1.6633,1.6157,1.5523,1.4914,1.4454,1.435,1.4268,0.0,0.0,0.0,0.0,0.0,0.0,0.0,0.0,0.0,0.0,0.0,1.0422,1.0508,1.0766,0.0,0.0,0.0,0.0,0.0,0.0,0.8404,0.8122,0.8477,0.0,0.0,0.0,0.0,0.0,0.0,0.0,0.0,0.0,0.0,0.9802,0.9523,0.9571,0.979,0.9956,0.999,1.0001,1.0226,1.0374,1.0472,1.0654,1.0692,1.0692,1.0692,1.0692,1.0692,1.0692,1.0692,1.0692,1.0692,1.0692,1.0692,1.0692,1.0692,1.0304,0.9089,0.7891,0.6697,0.5564,0.4369,0.3597,0.365,0.3706,0.3729,0.3692,0.3804,0.3901,0.3914,0.3905,0.3954,0.4035,0.4073,0.4132,0.4249,0.4138,0.4076,0.4039,0.3959,0.3889,0.3889,0.3889,0.3889,0.3889,0.3889,0.3889,0.398,0.5327,0.5753,0.5632,0.7248,0.8041,0.8349,0.938,1.0147,1.082,1.1913,1.2349,1.245,0.0,0.0,0.0,0.0,0.0,0.0,1.7852,1.7375,1.6771,1.6148,1.5611,1.5074,1.4466,1.4396,1.4361,1.4268,0.0,0.0,0.0,0.0,0.0,0.0,0.0,0.0,0.0,0.0,1.0408,1.0503,1.0603,1.0763,0.0,0.0,1.0406,1.0051,0.0,0.0,0.0,0.0,0.0,0.0,0.0,0.0,0.0,0.0,0.0,0.0,0.0,0.0,0.0,0.0,0.0,0.9639,0.9911,0.9994,1.0036,1.0186,1.0367,1.0543,1.0576,1.0651,1.0692,1.0692,1.0692,1.0692,1.0692,1.0692,1.0692,1.0692,1.0692,1.0692,1.0692,1.0692,1.0417,0.9557,0.8109,0.6808,0.6007,0.4562,0.3587,0.3587,0.367,0.3683,0.3621,0.3765,0.3865,0.3915,0.3889,0.3945,0.4,0.4043,0.4095,0.4155,0.4116,0.4065,0.4004,0.3947,0.3889,0.3889,0.3889,0.3889,0.3889,0.3889,0.3889,0.4013,0.5722,0.5724,0.4655,0.6942,0.7553,0.7187,0.8678,0.9714,1.0549,1.1826,1.2308,1.2357,0.0,0.0,0.0,0.0,0.0,0.0,0.0,1.757,1.712,1.613,1.5877,1.5445,1.4501,1.4396,1.4396,1.4396,0.0,0.0,0.0,0.0,0.0,0.0,0.0,0.0,0.0,0.0,1.0496,1.0496,1.0828,1.056,0.9735,1.0457,1.0335,0.9523,0.0,0.0,0.0,0.0,0.0,0.0,0.0,0.0,0.0,0.0,0.0,0.0,0.0,0.0,0.0,0.0,0.0,0.0,0.0,0.9994,1.0012,1.0078,1.0191,1.0316,1.0365,1.0562,1.0692,1.0692,1.0692,1.0692,1.0692,1.0692,1.0692,1.0692,1.0692,1.0692,1.0692,1.0692,1.0692,1.0692,0.8661,0.7083,0.7083,0.5061,0.3587,0.3587,0.367,0.3683,0.3621,0.3728,0.382,0.388,0.3889,0.3945,0.4,0.4004,0.4031,0.4093,0.4093,0.4065,0.4004,0.3947,0.3889,0.3889,0.3889,0.3889,0.3889,0.3889,0.3889,0.4042,0.6731,0.7126,0.5998,0.734,0.8647,0.9623,0.8404,0.9508,1.1821,1.2174,1.2308,1.2357,0.0,0.0,0.0,0.0,0.0,0.0,0.0,1.7594,1.7245,1.6561,1.6086,1.5556,1.4949,1.4593,1.4396,1.4396,0.0,0.0,0.0,0.0,0.0,0.0,0.0,0.0,0.0,0.0,1.0496,1.0496,1.0607,1.063,1.0595,1.106,1.1077,1.074,1.1084,1.0762,0.0,0.0,0.0,0.0,0.0,0.0,0.984,0.0,0.0,0.0,0.0,0.0,0.0,0.0,0.0,0.0,0.0,0.0,0.0,1.014,1.0225,1.0312,1.0391,1.0562,1.0692,1.0692,1.0692,1.0692,1.0692,1.0692,1.0692,1.0692,1.0692,1.0441,0.9612,1.0139,1.0445,0.9612,0.814,0.711,0.711,0.5089,0.3587,0.3587,0.3632,0.367,0.3735,0.3776,0.3819,0.388,0.3889,0.3896,0.3946,0.3982,0.4012,0.4031,0.4031,0.4004,0.3947,0.3897,0.3889,0.3889,0.3889,0.3889,0.3889,0.3889,0.3889,0.4013,0.5755,0.5786,0.4624,0.5968,0.6243,0.5906,0.734,0.8407,0.9376,1.1375,1.2167,1.2337,0.0,0.0,0.0,0.0,0.0,0.0,0.0,1.7625,1.7352,1.6786,1.6216,1.5691,1.5165,1.4674,1.4396,1.4396,0.0,0.0,0.0,0.0,0.0,0.0,0.0,0.0,0.0,1.0769,1.0496,1.0496,1.0496,1.0607,1.0825,1.1286,1.1464,1.14,1.1874,1.1638,0.0,0.0,0.0,0.0,0.0,0.0,1.0047,0.0,0.0,0.0,0.0,0.0,0.0,0.0,0.0,0.0,0.0,0.0,0.0,0.0,1.0344,1.0498,1.0488,1.059,1.0719,1.0829,1.0774,1.0719,1.0829,1.0774,1.0692,1.0692,1.0692,1.0472,0.9722,0.9836,0.9778,0.9034,0.7531,0.6447,0.6447,0.4812,0.3587,0.3587,0.3636,0.3689,0.3788,0.382,0.3845,0.3912,0.3889,0.3889,0.3889,0.3931,0.3949,0.3972,0.3992,0.3976,0.3889,0.3889,0.3889,0.3889,0.3889,0.3889,0.3889,0.3889,0.3889,0.398,0.5327,0.5143,0.0,0.5358,0.5418,0.4868,0.7034,0.8191,0.8879,1.1156,1.2115,1.2333,0.0,0.0,0.0,0.0,0.0,0.0,0.0,0.0,0.0,0.0,1.6335,1.5823,1.5232,1.4743,1.4443,0.0,0.0,0.0,0.0,0.0,0.0,0.0,0.0,0.0,0.0,1.082,1.0522,1.0496,1.0496,1.0504,1.0544,1.1199,1.1517,1.1573,1.228,1.229,0.0,0.0,0.0,0.0,0.0,0.0,0.0,0.0,0.0,0.0,0.0,0.0,0.0,0.0,0.0,0.0,0.0,0.0,0.0,0.0,0.0,0.0,0.0,1.066,1.0802,1.1048,1.0911,1.0802,1.1044,1.0911,0.0,1.0692,1.0692,1.0665,1.0582,0.9667,0.8865,0.8782,0.6869,0.5399,0.5399,0.4369,0.3587,0.3587,0.367,0.3731,0.3792,0.3854,0.3886,0.3915,0.3889,0.3887,0.3913,0.3891,0.3884,0.3905,0.3962,0.3968,0.3889,0.3889,0.3889,0.3889,0.3889,0.3889,0.3889,0.3889,0.3889,0.398,0.5204,0.5053,0.4013,0.5235,0.5755,0.5906,0.734,0.8617,0.9852,1.1421,1.2098,1.2312,0.0,0.0,0.0,0.0,0.0,0.0,0.0,0.0,0.0,0.0,0.0,1.6335,1.5834,1.5289,0.0,0.0,0.0,0.0,0.0,0.0,0.0,0.0,0.0,0.0,0.0,1.1209,1.0713,1.0496,1.0496,1.0631,1.0897,1.131,1.1638,1.1894,1.2391,1.229,1.1786,0.0,0.0,0.0,0.0,0.0,0.0,0.0,0.0,0.0,1.0568,1.0657,0.0,0.0,0.0,0.0,0.0,0.0,0.0,0.0,1.0653,1.0789,1.0831,0.0,1.1017,1.1072,1.1044,1.1017,0.0,1.1044,1.0939,1.0747,1.0692,1.0417,0.9502,0.9089,0.8585,0.7667,0.6341,0.5399,0.5399,0.4369,0.3587,0.3587,0.367,0.3731,0.3792,0.3854,0.3886,0.3915,0.3889,0.39,0.3915,0.3898,0.3875,0.3813,0.3899,0.3917,0.3889,0.3889,0.3889,0.3889,0.3889,0.3889,0.3889,0.3889,0.3889,0.392,0.4225,0.4196,0.392,0.4225,0.4379,0.4593,0.6973,0.8069,0.8623,1.0989,1.1947,1.209,0.0,0.0,0.0,0.0,0.0,0.0,0.0,0.0,0.0,0.0,0.0,0.0,0.0,0.0,0.0,0.0,0.0,0.0,0.0,0.0,0.0,0.0,0.0,0.0,1.2389,1.168,1.1167,1.0871,1.0744,1.0853,1.1191,1.1406,1.1678,1.2021,1.2416,1.229,1.1817,1.2058,1.2027,0.0,1.1771,0.0,0.0,0.0,0.0,0.0,1.0142,1.025,0.0,0.9582,0.9302,0.9378,0.0,0.0,0.0,0.0,1.0772,1.0962,1.093,1.1003,1.1126,1.1291,1.1213,1.1126,1.1291,1.1213,1.1017,1.0747,1.0692,1.0331,0.9113,0.8447,0.7697,0.6505,0.5341,0.4562,0.4562,0.4005,0.3598,0.3654,0.3711,0.3773,0.3835,0.3865,0.3916,0.3887,0.3889,0.3893,0.3894,0.3864,0.3834,0.3799,0.3803,0.3849,0.3909,0.3905,0.3889,0.3889,0.3889,0.3889,0.3889,0.3889,0.3889,0.3889,0.3889,0.3889,0.3889,0.3889,0.3889,0.4165,0.6853,0.7889,0.8224,1.0853,1.1886,1.2025,0.0,0.0,0.0,0.0,0.0,0.0,0.0,0.0,0.0,0.0,0.0,0.0,0.0,0.0,0.0,0.0,0.0,0.0,0.0,0.0,0.0,0.0,0.0,1.3136,1.2643,1.2064,1.161,1.1238,1.1056,1.113,1.1412,1.1527,1.1757,1.2115,1.2455,1.2351,1.1942,1.2406,1.2344,1.1942,1.2228,0.0,0.0,0.0,0.0,0.0,0.0,0.0,0.0,0.9482,0.9302,0.9378,0.9862,0.0,0.0,0.0,0.0,0.0,1.1011,1.095,1.1017,1.1486,1.1404,1.1208,1.1291,1.1208,1.0962,1.0527,1.0445,1.0111,0.9089,0.7781,0.6531,0.5564,0.4397,0.3587,0.3587,0.3587,0.3637,0.37,0.3761,0.3823,0.3884,0.3916,0.3889,0.3889,0.3889,0.3889,0.388,0.3827,0.379,0.3772,0.3729,0.3757,0.3861,0.3892,0.3897,0.3905,0.3905,0.3911,0.3889,0.3889,0.3889,0.3889,0.3889,0.3889,0.3889,0.3889,0.3889,0.4134,0.6639,0.7706,0.8194,1.0611,1.1713,1.1989,0.0,0.0,0.0,0.0,0.0,0.0,0.0,0.0,0.0,0.0,0.0,0.0,0.0,0.0,0.0,0.0,0.0,0.0,0.0,0.0,0.0,0.0,1.3635,1.3088,1.2776,1.2082,1.1469,1.096,1.1198,1.138,1.1493,1.1788,1.2131,1.2511,1.2566,1.2544,1.2483,1.2575,1.2544,1.2483,1.2529,0.0,0.0,0.0,0.0,0.0,0.0,0.0,0.0,0.9662,0.9302,0.9378,0.9862,0.0,0.0,0.0,0.0,0.0,1.1294,1.0675,1.0268,1.1318,1.1568,1.1263,1.0296,1.0602,1.0743,0.9447,0.9168,0.9113,0.892,0.7118,0.5592,0.5427,0.4397,0.3587,0.3587,0.3587,0.3637,0.37,0.3761,0.3823,0.3884,0.3916,0.3889,0.3889,0.3889,0.3872,0.3818,0.3803,0.3751,0.3647,0.3685,0.3715,0.3735,0.3795,0.3853,0.3904,0.3904,0.3901,0.3889,0.3889,0.3889,0.3889,0.3889,0.3889,0.3889,0.3889,0.3889,0.4042,0.5602,0.6912,0.8069,0.9562,1.0834,1.1892,0.0,0.0,0.0,0.0,0.0,0.0,0.0,0.0,0.0,0.0,0.0,0.0,0.0,0.0,0.0,0.0,0.0,0.0,0.0,0.0,0.0,1.4396,1.3846,1.3362,1.3016,1.2329,1.1842,1.1602,1.1465,1.16,1.1997,1.2221,1.2416,1.259,1.259,1.259,1.259,1.259,1.2436,1.2166,0.0,0.0,0.0,0.0,0.0,0.0,0.0,0.0,0.0,0.0,0.9302,0.9378,0.9862,0.0,0.0,0.0,0.0,0.0,1.1371,1.1292,1.1118,1.0707,1.0041,0.9292,0.8741,0.8934,0.8965,0.8112,0.7919,0.7753,0.7118,0.6121,0.5176,0.4536,0.3949,0.3587,0.3587,0.3587,0.3651,0.3746,0.3781,0.3836,0.3899,0.3903,0.3889,0.3889,0.3889,0.3868,0.3805,0.3799,0.3742,0.3591,0.3643,0.3658,0.3658,0.3685,0.3747,0.384,0.384,0.3872,0.3902,0.3902,0.3889,0.3889,0.3889,0.3889,0.3889,0.3889,0.3889,0.4042,0.5389,0.6272,0.7065,0.9073,1.0775,1.2085,0.0,0.0,0.0,0.0,0.0,0.0,0.0,0.0,0.0,0.0,0.0,0.0,0.0,0.0,0.0,0.0,0.0,0.0,0.0,0.0,1.4396,1.4396,1.3928,1.3491,1.3112,1.2598,1.2224,1.2013,1.1757,1.1909,1.2458,1.2546,1.259,1.259,1.259,1.259,1.259,1.2467,1.2182,1.1809,0.0,0.0,0.0,0.0,0.0,0.0,0.0,0.0,0.0,0.0,0.0,0.0,0.0,0.0,0.0,1.0475,1.0868,1.1239,1.1448,1.1531,1.1223,0.9735,0.8741,0.7937,0.7329,0.7329,0.7329,0.6808,0.6697,0.6422,0.5564,0.5176,0.4674,0.3755,0.3587,0.3587,0.3587,0.3587,0.3661,0.3784,0.3799,0.3816,0.3908,0.3889,0.3889,0.3889,0.3889,0.3868,0.3805,0.3799,0.3742,0.3591,0.3587,0.3587,0.3587,0.3587,0.367,0.3777,0.3777,0.3809,0.3869,0.3884,0.3886,0.39,0.3913,0.3889,0.3889,0.3889,0.3889,0.4011,0.5022,0.5632,0.6211,0.883,1.0651,1.1886,0.0,0.0,0.0,0.0,0.0,0.0,0.0,0.0,0.0,0.0,0.0,0.0,0.0,0.0,0.0,0.0,0.0,0.0,0.0,0.0,1.4396,1.4396,1.367,1.3112,1.2837,1.2786,1.2327,1.1456,1.2034,1.242,1.2589,1.2598,1.259,1.259,1.259,1.259,1.2575,1.2073,1.184,1.1832,1.2138,0.0,0.0,0.0,0.0,0.0,0.0,0.0,0.0,0.0,0.0,0.0,0.0,0.0,1.0075,1.0475,1.0868,1.1288,1.1678,1.048,0.8985,0.829,0.8903,0.8992,0.6503,0.6558,0.6836,0.5759,0.5511,0.5509,0.5427,0.4479,0.3699,0.3615,0.3587,0.3587,0.3587,0.3587,0.3661,0.3784,0.3799,0.3816,0.3908,0.3889,0.3889,0.3889,0.3889,0.3868,0.3805,0.3799,0.3742,0.3591,0.3587,0.3587,0.3587,0.3587,0.3648,0.3713,0.3713,0.3746,0.3807,0.3864,0.3893,0.3899,0.3896,0.3889,0.3889,0.3889,0.3889,0.392,0.4011,0.4807,0.6211,0.883,1.0084,1.063,0.0,0.0,0.0,0.0,0.0,0.0,0.0,0.0,0.0,0.0,0.0,0.0,0.0,0.0,0.0,0.0,0.0,0.0,0.0,0.0,1.4292,1.4034,1.3987,1.3606,1.2881,1.2412,1.2136,1.2019,1.2366,1.2546,1.259,1.259,1.259,1.2598,1.2243,1.2297,1.256,1.2027,1.1921,1.2075,1.1572,1.1337,0.0,0.0,0.0,0.0,0.0,0.0,0.0,0.0,0.9392,0.9552,0.9883,1.0089,1.0228,1.0513,1.0962,1.1458,1.1716,1.0777,0.9429,0.829,0.7661,0.6808,0.4866,0.47,0.481,0.4367,0.4285,0.4285,0.4285,0.3895,0.3587,0.3587,0.3587,0.3587,0.3587,0.3587,0.3661,0.3784,0.3799,0.3816,0.3908,0.3889,0.3889,0.3889,0.3889,0.3868,0.3805,0.3799,0.3742,0.3591,0.3587,0.3587,0.3587,0.3587,0.36,0.365,0.365,0.3683,0.3743,0.3805,0.3854,0.3894,0.3893,0.3889,0.3889,0.3889,0.3889,0.3889,0.3889,0.4716,0.6029,0.7004,0.8626,1.0373,0.0,0.0,0.0,0.0,0.0,0.0,0.0,0.0,0.0,0.0,0.0,0.0,0.0,0.0,0.0,0.0,0.0,0.0,0.0,1.4538,1.4507,1.421,1.4372,1.4151,1.3478,1.2591,1.2231,1.243,1.2536,1.259,1.259,1.259,1.259,1.2575,1.2212,1.2166,1.2321,1.1725,1.152,1.1544,1.0934,1.0694,0.0,0.0,0.0,0.0,0.0,0.0,0.0,0.0,0.9428,0.9639,0.9911,1.0146,1.0337,1.0536,1.0821,1.1097,1.1112,1.0266,0.9047,0.7658,0.6334,0.5061,0.3866,0.3587,0.3587,0.3587,0.3587,0.3587,0.3587,0.3587,0.3587,0.3587,0.3587,0.3587,0.3587,0.3587,0.3654,0.3758,0.3787,0.3839,0.3882,0.3909,0.3889,0.3889,0.3889,0.3868,0.3805,0.3799,0.3742,0.3591,0.3587,0.3587,0.3587,0.3587,0.3587,0.3587,0.3587,0.3637,0.368,0.3742,0.3803,0.3865,0.3895,0.3903,0.3889,0.3889,0.3889,0.3889,0.3889,0.4472,0.5327,0.5753,0.723,0.9164,0.0,0.0,0.0,0.0,0.0,0.0,0.0,0.0,0.0,0.0,0.0,0.0,0.0,0.0,0.0,0.0,0.0,0.0,1.4407,1.4832,1.5103,1.5103,1.4777,1.4633,1.469,1.3516,1.2759,1.2505,1.2567,1.259,1.259,1.259,1.259,1.259,1.259,1.2297,1.1754,1.1076,1.053,1.0144,1.0331,1.0275,1.0121,0.0,0.0,0.0,0.0,0.0,0.0,0.0,0.9428,0.9644,0.9911,1.0146,1.0337,1.0541,1.0411,1.012,0.9728,0.8632,0.7313,0.6116,0.5146,0.4341,0.3726,0.3587,0.3587,0.3587,0.3587,0.3587,0.3587,0.3587,0.3587,0.3587,0.3587,0.3587,0.3587,0.3587,0.3637,0.37,0.3761,0.3821,0.3884,0.3914,0.3888,0.3889,0.3889,0.3868,0.3805,0.3799,0.3742,0.3591,0.3587,0.3587,0.3587,0.3587,0.3587,0.3587,0.3587,0.3587,0.359,0.3678,0.374,0.3802,0.3864,0.3894,0.3889,0.3889,0.3889,0.3889,0.3889,0.3889,0.4073,0.5389,0.605,0.6682,0.0,0.0,0.0,0.0,0.0,0.0,0.0,0.0,0.0,0.0,0.0,0.0,0.0,0.0,0.0,0.0,0.0,0.0,1.4876,1.5028,1.4987,1.4759,1.4918,1.4731,1.4157,1.3608,1.3087,1.2568,1.2588,1.259,1.259,1.259,1.259,1.2575,1.1809,1.1544,1.1593,1.0696,1.0852,1.1617,1.0396,1.0342,1.0874,0.0,0.0,0.0,0.0,0.0,0.0,0.0,0.0,0.0,0.9975,1.0241,1.055,1.0759,1.1064,1.1198,1.0598,0.919,0.7661,0.6669,0.5146,0.3811,0.3643,0.3587,0.3587,0.3587,0.3587,0.3587,0.3587,0.3587,0.3587,0.3587,0.3587,0.3587,0.3587,0.3587,0.3637,0.37,0.3724,0.3776,0.388,0.3906,0.3905,0.3885,0.3889,0.3868,0.3805,0.3799,0.3742,0.3591,0.3587,0.3587,0.3587,0.3587,0.3587,0.3587,0.3587,0.3587,0.359,0.3678,0.374,0.3802,0.3864,0.3894,0.3889,0.3889,0.3889,0.3889,0.3889,0.3889,0.395,0.4349,0.5272,0.6554,0.0,0.0,0.0,0.0,0.0,0.0,0.0,0.0,0.0,0.0,0.0,0.0,0.0,0.0,0.0,0.0,0.0,0.0,0.0,0.0,1.5575,1.5357,1.5608,1.5213,1.4045,1.3549,1.3064,1.259,1.259,1.259,1.259,1.259,1.267,1.2774,1.2035,1.1829,1.1935,1.0876,1.0825,1.1353,0.9897,0.9721,1.0209,0.0,0.0,0.0,0.0,0.0,0.0,0.0,0.0,0.0,1.0099,1.0328,1.0585,1.0518,1.0459,1.0202,0.9313,0.7862,0.6415,0.5671,0.4534,0.3587,0.3587,0.3587,0.3587,0.3587,0.3587,0.3587,0.3587,0.3587,0.3587,0.3587,0.3587,0.3587,0.3587,0.3587,0.3629,0.3666,0.3692,0.3736,0.381,0.3839,0.3869,0.3846,0.3849,0.3837,0.3768,0.3762,0.3717,0.359,0.3587,0.3587,0.3587,0.3587,0.3587,0.3587,0.364,0.3652,0.3652,0.3665,0.3705,0.3766,0.3853,0.3894,0.3889,0.3889,0.3889,0.3889,0.3889,0.3889,0.3892,0.3945,0.4578,0.5633,0.0,0.0,0.0,0.0,0.0,0.0,0.0,0.0,0.0,0.0,0.0,0.0,0.0,0.0,0.0,0.0,0.0,0.0,0.0,0.0,1.6495,1.6512,1.6451,1.569,1.4124,1.3359,1.2867,1.259,1.259,1.259,1.259,1.263,1.2813,1.3092,1.2802,1.2593,1.2397,1.1225,1.0473,0.9998,0.9075,0.8751,0.8823,0.8751,0.0,0.0,0.0,0.0,0.0,0.0,0.0,0.0,1.0228,1.0432,1.052,1.0145,0.9263,0.8151,0.6967,0.5634,0.4479,0.3838,0.3643,0.3587,0.3587,0.3587,0.3587,0.3587,0.3587,0.3587,0.3587,0.3587,0.3587,0.3587,0.3587,0.3587,0.3587,0.3587,0.3587,0.3587,0.3665,0.37,0.3706,0.3758,0.3792,0.3798,0.3799,0.3772,0.371,0.3707,0.3678,0.359,0.3587,0.3587,0.3587,0.3587,0.359,0.3597,0.368,0.371,0.3713,0.3658,0.3662,0.3722,0.3839,0.3891,0.3912,0.3887,0.3889,0.3889,0.3889,0.3892,0.3903,0.3984,0.4045,0.4334,0.0,0.0,0.0,0.0,0.0,0.0,0.0,0.0,0.0,0.0,0.0,0.0,0.0,0.0,0.0,0.0,0.0,0.0,0.0,0.0,1.6526,1.657,1.5636,1.4529,1.3292,1.3087,1.2867,1.259,1.259,1.259,1.2614,1.2861,1.3036,1.3068,1.2111,1.1635,1.1409,0.9957,0.9571,0.9865,0.9045,0.9177,0.9817,0.9184,0.9062,0.0,0.0,0.0,0.0,0.0,0.0,0.0,1.0228,1.0432,1.0665,1.1052,1.0284,0.9178,0.8539,0.6981,0.5312,0.4507,0.3949,0.3587,0.3587,0.3587,0.3587,0.3587,0.3587,0.3587,0.3587,0.3587,0.3587,0.3587,0.3587,0.3587,0.3587,0.3587,0.3587,0.3587,0.36,0.3654,0.3702,0.372,0.3747,0.3795,0.3799,0.3772,0.371,0.3707,0.3678,0.359,0.3587,0.3587,0.3587,0.3587,0.3639,0.3687,0.37,0.3732,0.3779,0.3765,0.3766,0.3783,0.3858,0.3898,0.3913,0.39,0.3889,0.3889,0.3889,0.3947,0.3986,0.3999,0.4072,0.446,0.0,0.0,0.0,0.0,0.0,0.0,0.0,0.0,0.0,0.0,0.0,0.0,0.0,0.0,0.0,0.0,0.0,0.0,0.0,0.0,0.0,1.6383,1.5362,1.4332,1.3366,1.2988,1.2744,1.259,1.2766,1.2845,1.2837,1.2526,1.2754,1.336,1.1837,1.1423,1.1761,1.0092,0.9579,0.9833,0.912,0.9155,0.9596,0.9268,0.9274,0.9451,0.9564,0.0,0.0,0.0,0.0,0.0,0.0,0.0,1.0782,1.0974,1.0359,0.9346,0.8169,0.6833,0.5532,0.4367,0.3838,0.3587,0.3587,0.3587,0.3587,0.3587,0.3587,0.3587,0.3587,0.3587,0.3587,0.3587,0.3587,0.3587,0.3587,0.3587,0.3587,0.3587,0.3587,0.3628,0.3659,0.3663,0.3677,0.3709,0.3711,0.3698,0.3665,0.3663,0.3648,0.3589,0.3587,0.3587,0.3587,0.3587,0.3647,0.3707,0.3736,0.3768,0.3854,0.3825,0.3814,0.3845,0.3876,0.3908,0.3906,0.3907,0.3904,0.3959,0.3959,0.3996,0.405,0.4078,0.413,0.4418,0.0,0.0,0.0,0.0,0.0,0.0,0.0,0.0,0.0,0.0,0.0,0.0,0.0,0.0,0.0,0.0,0.0,0.0,0.0,0.0,0.0,0.0,1.5182,1.4373,1.3522,1.2911,1.2622,1.2686,1.2933,1.3115,1.3202,1.2239,1.2426,1.3503,1.1623,1.1302,1.2077,1.0445,0.9753,0.9698,0.9242,0.908,0.9128,0.9297,0.9491,0.9679,0.9679,0.9804,0.9999,1.0037,0.0,0.0,0.0,0.0,1.0874,1.0766,1.0196,0.9241,0.7542,0.6339,0.5256,0.3921,0.3587,0.3587,0.3587,0.3587,0.3587,0.3587,0.3587,0.3587,0.3587,0.3587,0.3587,0.3587,0.3587,0.3587,0.3587,0.3587,0.3587,0.3587,0.3587,0.3587,0.3587,0.3587,0.3587,0.3587,0.3587,0.3587,0.3587,0.3587,0.3587,0.3587,0.3587,0.3587,0.3587,0.3587,0.3647,0.3707,0.3769,0.3827,0.3901,0.3831,0.3842,0.389,0.389,0.3888,0.3905,0.3926,0.3962,0.4004,0.4015,0.4055,0.4115,0.4165,0.4289,0.4503,0.0,0.0,0.0,0.0,0.0,0.0,0.0,0.0,0.0,0.0,0.0,0.0,0.0,0.0,0.0,0.0,0.0,0.0,1.7183,0.0,0.0,1.5109,1.4575,1.381,1.2767,1.2652,1.2742,1.3036,1.29,1.3139,1.3691,1.285,1.2574,1.2692,1.1034,1.0387,1.047,0.9514,0.912,0.9139,0.922,0.9352,0.9526,0.955,0.9729,0.9952,0.9952,0.9971,1.0023,1.019,1.0271,0.0,0.0,0.0,1.0995,1.148,1.0664,0.9452,0.8798,0.6667,0.4507,0.3783,0.3587,0.3587,0.3587,0.3587,0.3587,0.3587,0.3587,0.3587,0.3587,0.3587,0.3587,0.3587,0.3587,0.3587,0.3587,0.3587,0.3587,0.3587,0.3587,0.3587,0.3587,0.3587,0.3587,0.3587,0.3587,0.3587,0.3587,0.3587,0.3587,0.3587,0.3587,0.3587,0.3587,0.3587,0.3647,0.3707,0.3769,0.3835,0.3902,0.3886,0.3883,0.389,0.389,0.3895,0.391,0.395,0.3996,0.4008,0.4061,0.4119,0.4173,0.4181,0.4647,0.5334,0.0,0.0,0.0,0.0,0.0,0.0,0.0,0.0,0.0,0.0,0.0,0.0,0.0,0.0,0.0,1.7167,1.7227,1.7306,1.7306,1.6673,1.5897,1.4943,1.4269,1.3509,1.2621,1.2789,1.2949,1.3108,1.3267,1.3519,1.3772,1.2517,1.2168,1.2514,1.0804,1.0089,1.0143,0.935,0.9071,0.9189,0.938,0.9522,0.9616,0.9771,0.9892,0.9994,0.9994,1.007,1.0172,1.0266,1.0451,1.0678,1.0839,0.0,0.0,0.0,1.1342,1.0479,0.8845,0.6858,0.4979,0.3866,0.3587,0.3587,0.3587,0.3587,0.3587,0.3587,0.3587,0.3587,0.3587,0.3587,0.3587,0.3587,0.3587,0.3587,0.3587,0.3587,0.3587,0.3587,0.3587,0.3587,0.3587,0.3587,0.3587,0.3587,0.3587,0.3587,0.3587,0.3587,0.3587,0.3587,0.3587,0.3587,0.3587,0.3587,0.3647,0.3707,0.3769,0.3813,0.3839,0.3839,0.3876,0.3912,0.3912,0.3912,0.3916,0.3935,0.3995,0.4057,0.4082,0.4151,0.43,0.4733,0.5085,0.5647,0.0,0.0,0.0,0.0,0.0,0.0,0.0,0.0,0.0,0.0,0.0,0.0,0.0,0.0,0.0,0.0,1.7306,1.7306,1.7306,1.6574,1.5771,1.4943,1.4255,1.3532,1.2741,1.306,1.3242,1.3281,1.359,1.3644,1.3464,1.2263,1.1814,1.192,1.0364,0.979,0.9938,0.9397,0.925,0.9406,0.9618,0.9703,0.9717,0.9916,1.0028,1.0075,1.0075,1.0213,1.038,1.0437,1.0641,1.0905,1.0957,1.1113,0.0,0.0,0.0,1.116,0.9112,0.744,0.5922,0.4507,0.4005,0.3783,0.3643,0.3587,0.3587,0.3587,0.3587,0.3587,0.3587,0.3587,0.3587,0.3587,0.3587,0.3587,0.3587,0.3587,0.3587,0.3587,0.3587,0.3587,0.3587,0.3587,0.3587,0.3587,0.3587,0.3587,0.3587,0.3587,0.3587,0.3587,0.3587,0.3587,0.3587,0.3587,0.3639,0.3684,0.3731,0.3761,0.3776,0.3776,0.3804,0.3874,0.3874,0.3874,0.3876,0.389,0.3957,0.4053,0.4081,0.4158,0.4353,0.5106,0.5515,0.5979,0.0,0.0,0.0,0.0,0.0,0.0,0.0,0.0,0.0,0.0,0.0,0.0,1.8139,1.7865,1.7601,1.732,1.7306,1.7306,1.7306,1.6666,1.5874,1.4943,1.4611,0.0,1.3092,1.3402,1.3635,1.3752,1.3598,1.3226,1.2652,1.2591,1.1756,1.0298,0.9434,0.9159,0.9359,0.9505,0.9578,0.9606,0.9873,0.998,0.998,0.999,1.0123,1.028,1.028,1.0408,1.0612,1.0792,1.0877,1.0929,1.1118,1.1326,1.1518,0.0,0.0,0.0,1.0284,0.883,0.7202,0.5977,0.5063,0.4313,0.3727,0.3587,0.3587,0.3587,0.3587,0.3587,0.3587,0.3587,0.3587,0.3587,0.3587,0.3587,0.3587,0.3587,0.3587,0.3587,0.3587,0.3587,0.3587,0.3587,0.3587,0.3587,0.3587,0.3587,0.3587,0.3587,0.3587,0.3587,0.3587,0.3587,0.3587,0.3587,0.3589,0.3593,0.3595,0.3655,0.3711,0.3711,0.3747,0.3809,0.3809,0.3809,0.3813,0.3871,0.3902,0.391,0.405,0.4132,0.4294,0.512,0.5817,0.6573,0.0,0.0,0.0,0.0,0.0,0.0,0.0,0.0,0.0,0.0,0.0,0.0,0.0,1.7767,1.7587,1.732,1.7306,1.7074,1.6563,1.5825,1.514,1.4543,1.3936,1.3541,1.3418,1.3743,1.3879,1.3806,1.3352,1.3,1.2767,1.1603,1.0892,1.0565,1.015,0.9791,0.9493,0.9573,0.9703,0.9873,0.9966,0.9994,1.0009,1.0151,1.0228,1.0314,1.0441,1.0621,1.0792,1.0868,1.0981,1.1099,1.1175,1.1345,1.156,1.19,1.1951,1.1669,1.0511,0.9739,0.8799,0.6866,0.5838,0.5117,0.4367,0.3867,0.3587,0.3587,0.3587,0.3587,0.3587,0.3587,0.3587,0.3587,0.3587,0.3587,0.3587,0.3587,0.3587,0.3587,0.3587,0.3587,0.3587,0.3587,0.3587,0.3587,0.3587,0.3587,0.3587,0.3587,0.3587,0.3587,0.3587,0.3587,0.3587,0.3587,0.3587,0.3587,0.3587,0.3626,0.3648,0.3648,0.3661,0.3681,0.3681,0.3726,0.3801,0.3823,0.3868,0.3897,0.3939,0.4015,0.4234,0.5499,0.6115,0.6671,0.0,0.0,0.0,0.0,0.0,0.0,0.0,0.0,0.0,0.0,0.0,0.0,0.0,0.0,1.7434,1.7099,1.6962,1.6651,1.6069,1.5394,1.4833,1.4484,1.4021,1.3768,1.3776,1.4057,1.4091,1.3897,1.3219,1.2738,1.2363,1.103,1.0406,1.0407,1.0346,1.0109,0.9726,0.9726,0.9828,0.9994,0.9994,1.0042,1.0118,1.0243,1.0385,1.0522,1.0655,1.0839,1.1009,1.108,1.1194,1.1316,1.1383,1.1527,1.1768,1.2112,1.2305,1.2191,1.1196,1.0731,1.0072,0.8303,0.7279,0.6392,0.52,0.4562,0.4089,0.3671,0.3587,0.3587,0.3587,0.3587,0.3587,0.3587,0.3587,0.3587,0.3587,0.3587,0.3587,0.3587,0.3587,0.3587,0.3587,0.3587,0.3587,0.3587,0.3587,0.3587,0.3587,0.3587,0.3587,0.3587,0.3587,0.3587,0.3587,0.3587,0.3587,0.3587,0.3587,0.3587,0.3587,0.3587,0.3587,0.3587,0.3587,0.3662,0.3737,0.3737,0.3773,0.3831,0.3851,0.4041,0.442,0.5742,0.6326,0.6873,0.0,0.0,0.0,0.0,0.0,0.0,0.0,0.0,0.0,0.0,0.0,0.0,0.0,0.0,0.0,1.6641,1.6296,1.6026,1.5885,1.5441,1.5067,1.4787,1.4967,1.4779,1.4125,1.4314,1.4297,1.4054,1.3276,1.2376,1.1373,1.095,1.0349,0.962,0.9883,0.9999,1.0004,1.0004,1.0004,1.0004,1.0018,1.0146,1.0304,1.0318,1.0574,1.0905,1.091,1.1042,1.1246,1.1428,1.1504,1.1537,1.1761,1.1942,1.2154,1.2352,1.2414,1.2414,0.0,0.0,0.0,1.0374,0.9378,0.8082,0.6281,0.5646,0.5065,0.3895,0.3615,0.3587,0.3587,0.3587,0.3587,0.3587,0.3587,0.3587,0.3587,0.3587,0.3587,0.3587,0.3587,0.3587,0.3587,0.3587,0.3587,0.3587,0.3587,0.3587,0.3587,0.3587,0.3587,0.3587,0.3587,0.3587,0.3587,0.3587,0.3587,0.3587,0.3587,0.3587,0.3587,0.3587,0.3587,0.3587,0.3587,0.3587,0.3587,0.3587,0.3651,0.371,0.3769,0.4215,0.4891,0.5782,0.6471,0.7226,0.0,0.0,0.0,0.0,0.0,0.0,0.0,0.0,0.0,0.0,0.0,0.0,0.0,1.6539,1.6352,1.6514,1.6216,1.5757,1.5143,1.4976,1.473,1.4317,1.4345,1.4367,1.4312,1.4566,1.4212,1.3227,1.266,1.1898,1.0957,1.0252,0.9911,0.9892,0.9971,1.008,1.0227,1.0227,1.0227,1.0233,1.0536,1.0602,1.0546,1.0849,1.1009,1.1132,1.1288,1.1452,1.1631,1.1688,1.1711,1.1744,1.1956,1.2065,1.2154,1.2352,1.2414,1.2414,1.2414,0.0,0.0,0.0,0.0,0.0,0.8051,0.6669,0.5534,0.5009,0.4201,0.3587,0.3587,0.3587,0.3587,0.3587,0.3587,0.3587,0.3587,0.3587,0.3587,0.3587,0.3587,0.3587,0.3587,0.3587,0.3587,0.3587,0.3587,0.3587,0.3587,0.3587,0.3587,0.3587,0.3587,0.3587,0.3587,0.3587,0.3587,0.3587,0.3587,0.3587,0.3587,0.3587,0.3587,0.3587,0.3587,0.3587,0.3587,0.3587,0.3597,0.3643,0.3659,0.4076,0.4755,0.5534,0.6219,0.7016,0.0,0.0,0.0,0.0,0.0,0.0,0.0,0.0,0.0,0.0,0.0,0.0,1.6605,0.0,1.5951,1.6004,1.57,1.5288,1.4747,1.4589,1.4444,1.4315,1.4314,1.4223,1.4025,1.41,1.3606,1.2531,1.1906,1.134,0.0,0.0,0.0,1.0004,1.018,1.0327,1.0437,1.0679,1.0693,1.0579,1.0801,1.0924,1.0981,1.1137,1.1302,1.1472,1.1575,1.1692,1.1806,1.1895,1.198,1.207,1.2197,1.2239,1.2258,1.2376,1.2414,1.2414,1.2414,1.2414,1.2278,1.1755,0.0,0.0,0.8686,0.7384,0.6197,0.4923,0.4089,0.3587,0.3587,0.3587,0.3587,0.3587,0.3587,0.3587,0.3587,0.3587,0.3587,0.3587,0.3587,0.3587,0.3587,0.3587,0.3587,0.3587,0.3587,0.3587,0.3587,0.3587,0.3587,0.3587,0.3587,0.3587,0.3587,0.3587,0.3587,0.3587,0.3587,0.3587,0.3587,0.3587,0.3587,0.3587,0.3587,0.3587,0.3587,0.3587,0.3587,0.3587,0.3587,0.4142,0.4981,0.5467,0.623,0.7193,0.0,0.0,0.0,0.0,0.0,0.0,0.0,0.0,0.0,0.0,0.0,0.0,1.6494,0.0,0.0,0.0,1.4975,1.4756,1.4663,1.4393,0.0,0.0,1.4607,1.4228,1.3542,1.3253,0.0,0.0,0.0,0.0,0.0,0.0,0.0,0.0,1.0456,1.0659,1.074,1.1302,1.1325,1.0985,1.0985,1.1192,1.1483,1.1314,1.1479,1.1799,1.1829,1.1843,1.189,1.2079,1.2236,1.2414,1.2414,1.2414,1.2414,1.2414,1.2414,1.2414,1.2414,1.2414,1.2414,1.2414,1.2219,0.0,0.8954,0.81,0.7135,0.47,0.4088,0.3976,0.3976,0.3976,0.3976,0.3976,0.3894,0.3755,0.3615,0.3587,0.3587,0.3587,0.3587,0.3587,0.3587,0.3587,0.3587,0.3587,0.3587,0.3587,0.3587,0.3587,0.3587,0.3587,0.3587,0.3587,0.3587,0.3587,0.3587,0.3587,0.3587,0.3587,0.3587,0.3587,0.3587,0.3587,0.3587,0.3587,0.3587,0.3587,0.3587,0.3587,0.3587,0.4341,0.5409,0.5548,0.6386,0.7487,0.0,0.0,0.0,0.0,0.0,0.0,0.0,0.0,0.0,0.0,1.6866,1.6129,1.5879,1.5271,1.4959,0.0,1.4867,1.4764,1.5061,1.5011,1.5125,1.5478,1.4614,1.3963,1.3673,0.0,0.0,0.0,0.0,0.0,0.0,0.0,0.0,0.0,1.0721,1.1019,1.135,1.1612,1.1683,1.1533,1.1533,1.1478,1.1435,1.1568,1.1638,1.176,1.1971,1.2154,1.2296,1.2338,1.2381,1.2414,1.2414,1.2414,1.2414,1.2414,1.2414,1.2414,1.2414,1.2414,1.2414,1.2414,1.2359,0.0,1.1122,1.0096,0.9078,0.8088,0.7085,0.642,0.642,0.642,0.642,0.642,0.5646,0.4702,0.3726,0.3587,0.3587,0.3587,0.3587,0.3587,0.3587,0.3587,0.3587,0.3587,0.3587,0.3587,0.3587,0.3587,0.3587,0.3587,0.3587,0.3587,0.3587,0.3587,0.3587,0.3587,0.3587,0.3587,0.3587,0.3587,0.3587,0.3587,0.3587,0.3587,0.3587,0.3587,0.3587,0.3587,0.3587,0.4341,0.5401,0.542,0.6247,0.7359,0.0,0.0,0.0,0.0,0.0,0.0,0.0,0.0,0.0,1.721,1.6178,1.554,1.5685,1.5213,1.5055,1.5421,0.0,0.0,0.0,0.0,1.4767,1.4367,1.3801,1.316,1.2427,0.0,0.0,0.0,0.0,0.0,0.0,0.0,0.0,1.0729,1.1139,1.1397,1.1485,1.1918,1.2004,1.185,1.1728,1.1629,1.1438,1.0843,1.0661,1.0685,1.0213,1.0595,1.1391,1.2001,1.2305,1.2414,1.2414,1.2414,1.2414,1.2414,1.2414,1.2414,1.2414,1.2414,1.2414,1.2414,1.2414,0.0,0.0,1.0241,0.9467,0.8251,0.7529,0.711,0.711,0.711,0.711,0.711,0.6146,0.5397,0.5339,0.4337,0.3587,0.3587,0.3587,0.3587,0.3587,0.3587,0.3587,0.3587,0.3587,0.3587,0.3587,0.3587,0.3587,0.3587,0.3587,0.3587,0.3587,0.3587,0.3587,0.3587,0.3587,0.3587,0.3587,0.3587,0.3587,0.3587,0.3587,0.3587,0.3587,0.3587,0.3587,0.3587,0.3587,0.4341,0.5399,0.5399,0.6217,0.7324,1.8123,1.8361,0.0,0.0,0.0,0.0,0.0,0.0,1.7275,1.6486,1.5702,1.5326,1.5582,1.5194,1.4983,1.5161,1.5184,0.0,1.4371,1.4332,1.394,1.31,1.286,1.2274,1.1235,0.0,0.0,0.0,0.0,0.0,0.0,0.0,1.0861,1.1008,1.1529,1.1668,1.154,1.2025,1.1946,1.1496,1.1316,1.1351,1.1355,1.0,0.957,0.9578,0.8404,0.8762,0.9982,1.1227,1.1805,1.2028,1.23,1.2359,1.2332,1.2382,1.2359,1.2332,1.2382,1.2359,1.2332,1.2332,1.2278,1.1864,0.0,0.0,0.0,0.8109,0.7802,0.7802,0.7802,0.7802,0.7802,0.7802,0.6838,0.6397,0.7307,0.5616,0.4283,0.4283,0.3866,0.3699,0.3921,0.3726,0.3587,0.3587,0.3587,0.3587,0.3587,0.3587,0.3587,0.3587,0.3587,0.3587,0.3587,0.3587,0.3587,0.3587,0.3587,0.3587,0.3587,0.3587,0.3587,0.3587,0.3587,0.3587,0.3587,0.3587,0.3587,0.3615,0.3727,0.4452,0.5427,0.5539,0.6289,0.7289,1.8607,1.828,1.7998,0.0,0.0,0.0,0.0,0.0,1.6622,1.6355,1.5715,1.5292,1.5331,1.4455,1.3722,1.333,1.3311,1.322,1.3033,1.3026,1.31,1.3266,1.2345,1.179,1.1647,0.0,0.0,0.0,0.0,0.0,0.0,0.0,1.1504,1.1679,1.1708,1.1799,1.191,1.1764,1.093,0.9691,0.9673,1.0253,1.1044,0.9861,0.9426,0.933,0.8348,0.8097,0.8459,0.9924,1.0425,1.0672,1.1996,1.225,1.2087,1.2332,1.2219,1.2087,1.2332,1.2219,1.206,1.206,1.1869,1.1568,1.1072,0.0,1.0825,1.0386,0.0,1.0304,1.0304,0.0,0.0,1.0304,0.9278,0.8561,0.8671,0.7556,0.6697,0.6697,0.4866,0.4033,0.5093,0.4229,0.3587,0.3587,0.3587,0.3587,0.3587,0.3587,0.3587,0.3587,0.3587,0.3587,0.3587,0.3587,0.3587,0.3587,0.3587,0.3587,0.3587,0.3587,0.3587,0.3587,0.3587,0.3587,0.3587,0.3587,0.3587,0.3643,0.4201,0.4814,0.5455,0.6012,0.6634,0.722,1.8328,1.8102,1.7892,1.7687,0.0,0.0,0.0,0.0,1.6398,1.6317,1.5861,1.5463,1.5272,1.4833,1.4299,1.364,1.3585,1.3288,1.2554,1.2518,1.2341,1.1975,1.1532,1.1221,1.106,1.0794,0.0,0.0,1.0924,0.0,0.0,0.0,0.0,1.1914,1.1899,1.1462,1.0762,1.1345,1.0739,0.9388,0.9388,0.9581,0.9636,0.7781,0.6644,0.6089,0.6392,0.6584,0.6914,0.8241,0.9264,1.0072,1.0703,1.1286,1.1787,1.1896,1.1869,1.1787,1.1923,1.1841,1.1759,1.1759,1.1678,1.1514,1.1181,1.1099,1.1017,1.0747,0.0,0.0,0.0,0.0,0.0,0.0,0.9695,0.9144,0.9833,0.8303,0.711,0.711,0.6225,0.556,0.5425,0.4313,0.3587,0.3587,0.3587,0.3587,0.3587,0.3587,0.3587,0.3587,0.3587,0.3587,0.3587,0.3587,0.3587,0.3587,0.3587,0.3587,0.3587,0.3587,0.3587,0.3587,0.3587,0.3587,0.3587,0.3587,0.3587,0.3699,0.4646,0.5176,0.5483,0.6068,0.668,0.7198,1.782,1.774,1.7664,1.7358,1.7072,0.0,0.0,1.6468,1.6266,1.6266,1.5775,1.5324,1.5082,1.4615,1.4035,1.3326,1.3148,1.2695,1.1809,1.1749,1.1493,1.0908,1.0932,1.0876,1.0683,1.0929,1.1066,0.0,0.0,0.0,0.0,0.0,0.0,0.0,1.1951,1.1122,0.9853,1.0574,0.9884,0.8306,0.8306,0.795,0.731,0.5926,0.4646,0.3727,0.459,0.5035,0.5393,0.6667,0.783,0.8772,0.9185,0.9849,1.0511,1.0594,1.0789,1.1017,1.1099,1.1291,1.1459,1.1459,1.1404,1.1295,1.1048,1.0994,1.0939,1.0747,1.0692,0.0,0.0,0.0,1.0692,1.0692,0.0,0.9695,1.0582,0.9192,0.8082,0.8082,0.7805,0.7143,0.598,0.5063,0.4423,0.4117,0.4089,0.3949,0.3615,0.3587,0.3587,0.3587,0.3587,0.3587,0.3587,0.3587,0.3587,0.3587,0.3587,0.3587,0.3587,0.3587,0.3587,0.3587,0.3587,0.3587,0.3587,0.3587,0.3699,0.3949,0.4981,0.5511,0.5734,0.6318,0.6818,0.7196,1.7199,1.7132,1.7126,1.711,1.6668,1.6199,1.5792,1.5999,1.619,1.619,1.5338,1.4727,1.472,1.3148,1.1918,1.1429,1.0977,1.0601,1.0383,1.0353,1.0443,1.0602,1.0811,1.0906,1.0886,1.1288,1.1471,1.1471,0.0,0.0,0.0,0.0,0.0,0.0,1.1841,1.093,0.977,0.9223,0.7645,0.5539,0.5539,0.4814,0.3894,0.4981,0.4646,0.3615,0.3643,0.3671,0.3894,0.5367,0.5894,0.617,0.7603,0.7907,0.7772,0.8042,0.8768,0.9526,0.9798,1.0464,1.1131,1.1131,1.0911,1.0719,1.0719,1.0719,1.0719,1.0692,1.0692,1.0692,1.0692,1.0692,1.0692,0.0,1.0665,0.0,0.0,1.0637,1.0582,1.0582,0.9557,0.8364,0.7168,0.7,0.6531,0.5427,0.5343,0.4841,0.3671,0.3587,0.3587,0.3587,0.3587,0.3587,0.3587,0.3587,0.3587,0.3587,0.3587,0.3587,0.3587,0.3587,0.3587,0.3587,0.3587,0.3587,0.3587,0.3587,0.3949,0.4536,0.5148,0.5761,0.6346,0.696,0.7182,0.721,1.7212,1.6834,1.6429,1.6207,1.6202,1.6268,1.6341,1.6456,1.6263,1.5506,1.5107,1.4516,1.3497,1.2949,1.2344,1.1569,1.1486,1.1238,1.0735,1.0811,1.0939,1.0981,1.1194,1.1368,1.148,1.1758,1.1905,1.1905,1.2178,0.0,0.0,0.0,0.0,0.0,1.1759,1.0402,0.8355,0.8751,0.7534,0.5399,0.5399,0.4674,0.3643,0.4061,0.3949,0.3587,0.3587,0.3587,0.3671,0.4171,0.4868,0.562,0.6116,0.6725,0.7277,0.7384,0.7636,0.7888,0.7996,0.8217,0.8634,0.9444,0.9585,0.9722,1.0527,1.0692,1.0692,1.0692,1.0692,1.0692,1.0692,1.0692,1.0692,0.0,1.0692,1.0692,0.0,1.0692,1.0692,1.0692,0.964,0.8727,0.8337,0.7556,0.6947,0.6561,0.5813,0.5232,0.4814,0.4033,0.3587,0.3587,0.3587,0.3587,0.3587,0.3587,0.3587,0.3587,0.3587,0.3587,0.3587,0.3587,0.3587,0.3587,0.3587,0.3587,0.3587,0.3587,0.3949,0.4562,0.5176,0.5761,0.6374,0.6985,0.721,0.7193,1.7042,1.6701,1.6297,1.6087,1.6218,1.6407,1.6485,1.6265,1.5801,1.5,1.4529,1.3928,1.3002,1.2728,1.2363,1.1753,1.1672,1.1487,1.1147,1.1236,1.134,1.1416,1.1598,1.1773,1.1905,1.2112,1.222,1.222,1.2348,1.2414,0.0,0.0,0.0,0.0,1.1732,1.0123,0.7633,0.8085,0.6894,0.4758,0.4758,0.4285,0.3587,0.3587,0.3587,0.3587,0.3587,0.3587,0.3587,0.3587,0.4117,0.4758,0.4758,0.5256,0.5864,0.5864,0.617,0.6505,0.6505,0.678,0.7279,0.8057,0.8254,0.8585,0.9778,1.0056,1.0056,1.0056,1.0386,1.0582,1.0139,1.0414,1.0692,0.0,0.0,1.0692,0.0,1.0692,1.0692,1.0692,0.9998,0.953,0.953,0.883,0.8192,0.7778,0.706,0.6285,0.5455,0.4674,0.4033,0.3615,0.3587,0.3587,0.3587,0.3587,0.3587,0.3587,0.3587,0.3587,0.3587,0.3587,0.3587,0.3587,0.3587,0.3587,0.3587,0.3587,0.4089,0.4869,0.526,0.5901,0.668,0.7043,0.721,0.7193,1.6689,1.6705,1.67,1.6675,1.6647,1.6493,1.6061,1.5389,1.488,1.462,1.3642,1.3049,1.3186,1.2419,1.1913,1.1899,1.1521,1.134,1.1509,1.1532,1.1617,1.1744,1.1934,1.202,1.1993,1.2207,1.2327,1.2327,1.2382,1.2414,0.0,0.0,0.0,0.0,1.1623,1.0014,0.7467,0.7138,0.5697,0.3587,0.3587,0.3587,0.3587,0.3587,0.3587,0.3587,0.3587,0.3587,0.3587,0.3587,0.3587,0.3587,0.3587,0.3587,0.3587,0.3587,0.4424,0.5316,0.5316,0.6089,0.6944,0.7002,0.7027,0.7335,0.853,0.8809,0.8809,0.8809,0.9722,1.0194,0.9089,0.9833,1.0637,1.0692,0.0,1.0692,1.0692,1.0692,1.0692,1.0692,1.0692,1.0692,1.0692,1.0692,1.0221,0.9089,0.892,0.7922,0.5704,0.5511,0.4925,0.3727,0.3699,0.3671,0.3587,0.3587,0.3587,0.3587,0.3587,0.3587,0.3587,0.3587,0.3587,0.3587,0.3587,0.3587,0.3587,0.3587,0.4313,0.5399,0.5399,0.6123,0.721,0.721,0.721,0.721,1.6689,1.6771,1.6684,1.6182,1.5899,1.5455,1.4668,1.4382,1.3992,1.3234,1.2886,1.2518,1.2023,1.1882,1.1902,1.2039,1.2087,1.2055,1.1961,1.2093,1.1833,1.1093,1.1254,1.1054,1.0393,1.1074,1.1427,1.1427,1.2082,1.2414,1.2414,0.0,0.0,0.0,1.0296,0.8661,0.5952,0.5868,0.4979,0.3587,0.3587,0.3587,0.3587,0.3587,0.3587,0.3587,0.3587,0.3587,0.3587,0.3587,0.3587,0.3587,0.3587,0.3587,0.3587,0.3587,0.3811,0.4061,0.4061,0.4283,0.47,0.562,0.5841,0.6146,0.7307,0.7556,0.7556,0.7556,0.7805,0.8195,0.8782,0.9144,0.9667,1.0551,1.0692,1.0692,1.0692,1.0692,1.0692,1.0692,1.0692,1.0692,1.0692,1.0692,1.0582,1.0249,0.942,0.8644,0.8033,0.7143,0.6144,0.4981,0.4925,0.4508,0.3615,0.3587,0.3587,0.3587,0.3587,0.3587,0.3587,0.3587,0.3587,0.3587,0.3587,0.3587,0.3587,0.3587,0.4313,0.5399,0.5399,0.6123,0.721,0.721,0.721,0.7293,1.6815,1.651,1.6046,1.5253,1.4597,1.4074,1.3788,1.3538,1.3159,1.255,1.2348,1.2128,1.1803,1.1942,1.1953,1.1697,1.1778,1.1624,1.1136,1.1199,1.099,1.0394,1.0463,1.0296,0.9798,1.0268,1.0519,1.0519,1.14,1.1837,1.1837,0.0,0.0,0.9798,0.9798,0.8165,0.5371,0.4841,0.4229,0.3587,0.3587,0.3587,0.0,0.3587,0.3587,0.3587,0.3587,0.3587,0.3587,0.3587,0.3587,0.3587,0.3587,0.3587,0.3587,0.3587,0.3587,0.3587,0.3587,0.3587,0.3755,0.4452,0.462,0.4923,0.6089,0.6366,0.6366,0.6366,0.6753,0.7307,0.8002,0.853,0.9309,1.0496,1.0692,1.0692,1.0692,1.0692,1.0692,1.0692,1.0692,1.0692,1.0692,1.0692,1.0692,1.0692,1.008,0.9447,0.8923,0.8254,0.7365,0.6172,0.6146,0.5813,0.5142,0.4646,0.4397,0.4369,0.3838,0.3587,0.3587,0.3587,0.3587,0.3587,0.3587,0.3587,0.3587,0.3587,0.4145,0.5065,0.5594,0.6374,0.721,0.721,0.721,0.7321,1.684,1.6089,1.5206,1.4155,1.3249,1.2758,1.3095,1.2764,1.2405,1.2279,1.2024,1.1914,1.2126,1.2197,1.1919,1.1181,1.0989,1.0602,0.9853,0.9798,0.9743,0.9633,0.9633,0.9578,0.9467,0.9578,0.9633,0.9633,1.0492,1.0935,0.0,0.0,1.1114,0.9381,0.9381,0.7805,0.5093,0.4033,0.3587,0.3587,0.3587,0.3587,0.3587,0.3587,0.3587,0.3587,0.3587,0.3587,0.3587,0.3587,0.3587,0.3587,0.3587,0.3587,0.3587,0.3587,0.3587,0.3587,0.3587,0.3587,0.3587,0.3587,0.3587,0.3867,0.4925,0.5176,0.5176,0.5176,0.595,0.6695,0.6836,0.7974,0.9309,1.0496,1.0692,1.0692,1.0692,1.0692,1.0692,1.0692,1.0692,0.0,1.0692,1.0692,1.0692,1.0692,1.0692,1.0249,0.9199,0.9144,0.8585,0.7362,0.7332,0.7249,0.711,0.598,0.5399,0.5399,0.4173,0.3587,0.3587,0.3587,0.3587,0.3587,0.3587,0.3587,0.3587,0.3587,0.4005,0.473,0.5873,0.668,0.721,0.721,0.7265,0.7487,1.6325,1.5882,1.517,1.3558,1.3078,1.2678,1.1949,1.175,1.1805,1.2104,1.2085,1.2131,1.2338,1.1737,1.1263,1.1099,1.0433,0.9962,0.9798,0.9798,0.9467,0.8758,0.8733,0.8398,0.7679,0.8371,0.8733,0.8733,0.9609,1.0017,0.0,0.0,0.9185,0.7254,0.7254,0.6005,0.3895,0.3699,0.3587,0.3587,0.3587,0.3587,0.3587,0.3587,0.3587,0.3587,0.3587,0.3587,0.3587,0.3587,0.3587,0.3587,0.3587,0.3587,0.3587,0.3587,0.3587,0.3587,0.3587,0.3587,0.3587,0.3587,0.3587,0.3643,0.3866,0.3921,0.3921,0.3921,0.4061,0.4507,0.5509,0.7451,0.9309,1.0496,1.0692,1.0692,1.0692,1.0692,1.0692,1.0692,1.0692,1.0692,1.0692,1.0692,1.0692,1.0692,1.0692,1.061,1.0386,1.0386,0.9833,0.8616,0.8589,0.8112,0.711,0.598,0.5399,0.5399,0.4173,0.3587,0.3587,0.3587,0.3587,0.3587,0.3587,0.3587,0.3587,0.3587,0.4257,0.5316,0.6012,0.668,0.721,0.721,0.7654,0.8401,1.6158,1.5139,1.4039,1.3193,1.2675,1.2236,1.1874,1.1815,1.1886,1.2057,1.18,1.163,1.1719,1.0958,1.0245,0.9778,0.9364,0.892,0.8475,0.845,0.8257,0.7848,0.782,0.7626,0.721,0.7598,0.782,0.782,0.8702,0.9116,0.0,0.0,0.8386,0.6647,0.5562,0.4534,0.3587,0.3587,0.3587,0.3587,0.3587,0.3587,0.3587,0.3587,0.3587,0.3587,0.3587,0.3587,0.3587,0.3587,0.3587,0.3587,0.3587,0.3587,0.3587,0.3587,0.3587,0.3587,0.3587,0.3587,0.3587,0.3587,0.3587,0.3587,0.3587,0.3587,0.3587,0.3587,0.3587,0.3977,0.5176,0.7313,0.9089,0.9667,1.0276,1.0692,1.0692,1.0692,1.0692,1.0692,1.0692,1.0692,1.0692,1.0692,1.0692,1.0692,1.0692,1.0692,1.0692,1.0692,1.0441,0.986,0.9833,0.9554,0.8968,0.7808,0.7202,0.7202,0.6005,0.5474,0.5576,0.5472,0.514,0.4646,0.4552,0.4173,0.3587,0.3587,0.4313,0.5427,0.5734,0.6402,0.7265,0.7709,0.8152,0.8623,1.5543,1.4208,1.3023,1.2772,1.2255,1.1919,1.2088,1.215,1.2098,1.1906,1.1422,1.1017,1.0848,1.0049,0.9251,0.8567,0.8318,0.7931,0.7238,0.721,0.721,0.721,0.721,0.721,0.721,0.721,0.721,0.721,0.7875,0.8235,0.0,0.0,0.7581,0.6146,0.4395,0.3587,0.3587,0.3587,0.3587,0.3587,0.3587,0.3587,0.3587,0.3587,0.3587,0.3587,0.3587,0.3587,0.3587,0.3587,0.3587,0.3587,0.3587,0.3587,0.3587,0.3587,0.3587,0.3587,0.3587,0.3587,0.3587,0.3587,0.3587,0.3587,0.3587,0.3587,0.3587,0.3587,0.3587,0.3977,0.5176,0.7118,0.8613,0.8865,0.9915,1.0692,1.0692,1.0692,1.0692,1.0692,1.0692,1.0692,1.0692,1.0692,1.0692,1.0692,1.0692,1.0692,1.0692,1.0692,1.0692,1.0692,1.0692,1.0692,1.0692,0.9502,0.8892,0.8892,0.7667,0.719,0.7339,0.7182,0.6659,0.5919,0.5818,0.523,0.4337,0.4337,0.4979,0.5952,0.6035,0.6733,0.7762,0.8509,0.8896,0.9144,1.3669,1.3324,1.3058,1.2068,1.199,1.2093,1.2112,1.2241,1.2082,1.1296,1.1145,1.0798,1.0017,0.9144,0.8595,0.8512,0.7792,0.7293,0.721,0.721,0.721,0.721,0.721,0.721,0.721,0.721,0.721,0.721,0.7293,0.7321,0.7321,0.0,0.5898,0.4674,0.3921,0.3587,0.3587,0.3587,0.3587,0.3587,0.3587,0.3587,0.3587,0.3587,0.3587,0.3587,0.3587,0.3587,0.3587,0.3587,0.3587,0.3587,0.3587,0.3587,0.3587,0.3587,0.3587,0.3587,0.3587,0.3587,0.3587,0.3587,0.3587,0.3587,0.3587,0.3587,0.3587,0.3587,0.3587,0.3977,0.5176,0.6422,0.7639,0.8727,0.9915,1.0692,1.0692,1.0692,1.0692,1.0692,1.0692,1.0692,1.0692,1.0692,1.0692,1.0692,1.0692,1.0692,1.0692,1.0692,1.0692,1.0692,1.0692,1.0692,1.0692,0.9502,0.8892,0.8892,0.7667,0.7116,0.7129,0.7116,0.706,0.696,0.6949,0.6891,0.678,0.678,0.7168,0.7781,0.8082,0.861,0.9223,0.9554,1.0186,1.088,1.3404,1.291,1.2474,1.2064,1.2154,1.2291,1.2291,1.1901,1.1318,1.0433,1.0323,0.9994,0.9113,0.8232,0.7709,0.7709,0.7404,0.721,0.721,0.721,0.721,0.721,0.721,0.721,0.721,0.721,0.7015,0.6652,0.7015,0.6818,0.6123,0.5873,0.512,0.3949,0.3699,0.3587,0.3587,0.3587,0.3587,0.3587,0.3587,0.3587,0.3587,0.3587,0.3587,0.3587,0.3587,0.3587,0.3587,0.3587,0.3587,0.3587,0.3587,0.3587,0.3587,0.3587,0.3587,0.3587,0.3587,0.3587,0.3587,0.3587,0.3587,0.3587,0.3587,0.3587,0.3587,0.3587,0.3587,0.3755,0.4229,0.5286,0.645,0.7642,0.8834,0.9864,1.061,1.0692,1.0692,1.0692,1.0692,1.0692,1.0692,1.0692,1.0692,1.0692,1.0692,1.0692,1.0692,1.0692,1.0692,1.0692,1.0692,1.0692,1.0692,1.0221,0.9974,0.9974,0.9495,0.9324,0.9447,0.9447,0.9049,0.8311,0.7477,0.711,0.711,0.711,0.7445,0.8002,0.814,0.8692,0.9471,1.0107,1.0661,1.1181,1.3091,1.2578,1.2202,1.2202,1.2319,1.23,1.2055,1.1509,1.0711,0.9554,0.9416,0.9085,0.8208,0.7571,0.721,0.721,0.721,0.721,0.721,0.721,0.721,0.721,0.721,0.721,0.721,0.721,0.6988,0.6568,0.6818,0.6485,0.565,0.5288,0.459,0.3587,0.3587,0.3587,0.3587,0.3587,0.3587,0.3587,0.3587,0.3587,0.3587,0.3587,0.3587,0.3587,0.3587,0.3587,0.3587,0.3587,0.3587,0.3587,0.3587,0.3587,0.3587,0.3587,0.3587,0.3587,0.3587,0.3587,0.3587,0.3587,0.3587,0.3587,0.3587,0.3587,0.3587,0.3587,0.3587,0.3587,0.3587,0.459,0.5785,0.6916,0.8112,0.9309,1.0527,1.0692,1.0692,1.0692,1.0692,1.0692,1.0692,1.0692,1.0692,1.0692,1.0692,1.0692,1.0692,1.0692,1.0692,1.0692,1.0692,1.0692,1.0692,1.0692,1.0692,1.0692,1.0692,1.0761,1.0915,1.0915,1.0487,0.967,0.8616,0.8165,0.8165,0.8165,0.8416,0.8806,0.8885,0.9385,1.0135,1.0825,1.1236,1.1564,1.232,1.2272,1.2409,1.2409,1.2409,1.2114,1.1236,1.1099,1.0468,0.8733,0.8512,0.818,0.7321,0.721,0.721,0.721,0.721,0.721,0.721,0.721,0.721,0.721,0.721,0.721,0.721,0.721,0.7182,0.7182,0.6596,0.629,0.6262,0.5065,0.4173,0.3587,0.3587,0.3587,0.3587,0.3587,0.3587,0.3587,0.3587,0.3587,0.3587,0.3587,0.3587,0.3587,0.3587,0.3587,0.3587,0.3587,0.3587,0.3587,0.3587,0.3587,0.3587,0.3587,0.3587,0.3587,0.3587,0.3587,0.3587,0.3587,0.3587,0.3587,0.3587,0.3587,0.3587,0.3587,0.3587,0.3587,0.3587,0.459,0.5785,0.6916,0.8112,0.9309,1.0527,1.0692,1.0692,1.0692,1.0692,1.0692,1.0692,1.0692,1.0692,1.0692,1.0692,1.0692,1.0692,1.0692,1.0692,1.0692,1.0692,1.0692,1.0692,1.0692,1.0692,1.0692,1.0692,1.0692,1.0696,1.0696,1.0798,1.0956,1.0746,1.0665,1.0665,1.0665,1.0665,1.0692,1.0962,1.1263,1.1623,1.1869,1.2141,1.2382,1.2369,1.2367,1.2219,1.1618,1.1173,1.0621,0.9735,0.8744,0.7891,0.734,0.676,0.6288,0.6012,0.6707,0.721,0.721,0.721,0.721,0.721,0.721,0.721,0.721,0.721,0.721,0.721,0.6791,0.6374,0.5984,0.5789,0.5483,0.5065,0.4257,0.3783,0.3587,0.3587,0.3587,0.3587,0.3587,0.3587,0.3587,0.3587,0.3587,0.3587,0.3587,0.3587,0.3587,0.3587,0.3587,0.3587,0.3587,0.3587,0.3587,0.3587,0.3587,0.3587,0.3587,0.3587,0.3587,0.3587,0.3587,0.3587,0.3587,0.3587,0.3587,0.3587,0.3587,0.3587,0.3587,0.3587,0.3587,0.3587,0.3923,0.4562,0.5757,0.6919,0.8085,0.9309,1.0166,1.0692,1.0692,1.0692,1.0692,1.0692,1.0692,1.0692,1.0692,1.0692,1.0692,1.0692,1.0692,1.0692,1.0692,1.0692,1.0692,1.0692,1.0692,1.0692,1.0692,1.0692,1.0757,1.0911,1.0911,1.0943,1.0992,1.0935,1.0837,1.0692,1.0692,1.0692,1.0719,1.0802,1.1131,1.1623,1.1705,1.2005,1.2414,1.2273,1.1887,1.1364,1.0711,0.9931,0.9071,0.8217,0.7279,0.6591,0.6258,0.5731,0.5399,0.5399,0.6068,0.6513,0.6513,0.6513,0.6513,0.6513,0.6513,0.6624,0.6849,0.6652,0.6624,0.6849,0.6262,0.5789,0.5399,0.5176,0.4758,0.4145,0.3783,0.3587,0.3587,0.3587,0.3587,0.3587,0.3587,0.3587,0.3587,0.3587,0.3587,0.3587,0.3587,0.3587,0.3587,0.3587,0.3587,0.3587,0.3587,0.3587,0.3587,0.3587,0.3587,0.3587,0.3587,0.3587,0.3587,0.3587,0.3587,0.3587,0.3587,0.3587,0.3587,0.3587,0.3587,0.3587,0.3587,0.3587,0.3587,0.3587,0.3587,0.4005,0.5204,0.6007,0.6866,0.8057,0.8861,0.9357,0.9357,0.9746,1.0025,1.0025,1.0441,1.0692,1.0692,1.0692,1.0692,1.0692,1.0692,1.0692,1.0692,1.0692,1.0692,1.0692,1.0692,1.0692,1.0692,1.0692,1.0817,1.0996,1.0923,1.0968,1.1057,1.0951,1.0866,1.0817,1.072,1.0692,1.0719,1.0802,1.1158,1.1623,1.1705,1.2032,1.2414,1.206,1.1036,1.0096,0.9766,0.8682,0.7548,0.6672,0.6505,0.6202,0.5371,0.5288,0.5288,0.5288,0.5288,0.5288,0.5288,0.5343,0.5399,0.5399,0.5399,0.565,0.6207,0.5706,0.565,0.6235,0.565,0.5316,0.5288,0.4704,0.4145,0.3587,0.3587,0.3587,0.3587,0.3587,0.3587,0.3587,0.3587,0.3587,0.3587,0.3587,0.3587,0.3587,0.3587,0.3587,0.3587,0.3587,0.3587,0.3587,0.3587,0.3587,0.3587,0.3587,0.3587,0.3587,0.3587,0.3587,0.3587,0.3587,0.3587,0.3587,0.3587,0.3587,0.3587,0.3587,0.3587,0.3587,0.3587,0.3587,0.3587,0.3587,0.3587,0.3977,0.5093,0.5343,0.5757,0.6836,0.7055,0.711,0.711,0.8085,0.8809,0.8892,0.9915,1.061,1.0692,1.0692,1.0692,1.0692,1.0692,1.0692,1.0692,1.0692,1.0692,1.0692,1.0692,1.0692,1.0692,1.0692,1.0809,1.0972,1.0813,1.0883,1.1138,1.0863,1.0842,1.0964,1.0777,1.0704,1.0719,1.0962,1.1291,1.1623,1.1869,1.2141,1.2414,1.206,1.1036,0.99,0.8965,0.7415,0.6031,0.5146,0.4618,0.4257,0.4061,0.4033,0.4033,0.4033,0.4033,0.4033,0.4033,0.4869,0.5399,0.5399,0.5399,0.5455,0.5594,0.5483,0.5455,0.5622,0.5009,0.4479,0.4033,0.3895,0.3727,0.3587,0.3587,0.3587,0.3587,0.3587,0.3587,0.3587,0.3587,0.3587,0.3587,0.3587,0.3587,0.3587,0.3587,0.3587,0.3587,0.3587,0.3587,0.3587,0.3587,0.3587,0.3587,0.3587,0.3587,0.3587,0.3587,0.3587,0.3587,0.3587,0.3587,0.3587,0.3587,0.3587,0.3587,0.3587,0.3587,0.3587,0.3587,0.3587,0.3587,0.3587,0.3587,0.3699,0.3977,0.4786,0.5481,0.5759,0.6561,0.711,0.711,0.7362,0.7891,0.8809,0.9171,0.9695,1.0637,1.0692,1.0692,1.0692,1.0692,1.0692,1.0692,1.0692,1.0692,1.0692,1.0692,1.0692,1.0692,1.0692,1.0716,1.0761,1.0886,1.0903,1.0826,1.1013,1.0968,1.0793,1.089,1.085,1.0719,1.0774,1.1131,1.1623,1.1678,1.2005,1.2414,1.0958,0.9849,0.8603,0.7307,0.581,0.4644,0.4173,0.3811,0.3587,0.3587,0.3587,0.3587,0.3587,0.3587,0.3587,0.3587,0.4201,0.4562,0.4562,0.4562,0.4702,0.4981,0.4732,0.4702,0.4981,0.4397,0.3921,0.3587,0.3587,0.3587,0.3587,0.3587,0.3587,0.3587,0.3587,0.3587,0.3587,0.3587,0.3587,0.3587,0.3587,0.3587,0.3587,0.3587,0.3587,0.3587,0.3587,0.3587,0.3587,0.3587,0.3587,0.3587,0.3587,0.3587,0.3587,0.3587,0.3587,0.3587,0.3587,0.3587,0.3587,0.3587,0.3587,0.3587,0.3587,0.3587,0.3587,0.3587,0.3587,0.3587,0.3587,0.3587,0.3587,0.3587,0.4145,0.4562,0.4562,0.5117,0.5504,0.5504,0.5977,0.6589,0.7229,0.8285,0.9168,0.9836,1.0386,1.0692,1.0692,1.0692,1.0692,1.0692,1.0692,1.0692,1.0692,1.0692,1.0692,1.0692,1.0692,1.0692,1.0696,1.0798,1.0862,1.0854,1.0936,1.0964,1.0936,1.0988,1.0939,1.0846,1.0957,1.1262,1.1623,1.1732,1.2032,1.2414,0.9691,0.8441,0.7135,0.5648,0.4397,0.3587,0.3587,0.3587,0.3587,0.3587,0.3587,0.3587,0.3587,0.3587,0.3587,0.3587,0.3587,0.3587,0.3587,0.3587,0.3838,0.4341,0.3867,0.3838,0.4341,0.3866,0.3587,0.3587,0.3587,0.3587,0.3587,0.3587,0.3587,0.3587,0.3587,0.3587,0.3587,0.3587,0.3587,0.3587,0.3587,0.3587,0.3587,0.3587,0.3587,0.3587,0.3587,0.3587,0.3587,0.3587,0.3587,0.3587,0.3587,0.3587,0.3587,0.3587,0.3587,0.3587,0.3587,0.3587,0.3587,0.3587,0.3587,0.3587,0.3587,0.3587,0.3587,0.3587,0.3587,0.3587,0.3587,0.3587,0.3587,0.3587,0.3587,0.3587,0.3587,0.3587,0.3587,0.3587,0.4508,0.5204,0.5371,0.7202,0.8533,0.8865,0.986,1.0496,1.0692,1.0527,1.0496,1.0692,1.0692,1.0692,1.0692,1.0692,1.0692,1.0692,1.0692,1.0692,1.0692,1.0692,1.0777,1.0947,1.0817,1.0903,1.1147,1.1086,1.1037,1.1061,1.1258,1.1456,1.1663,1.185,1.2141,1.2414,0.9691,0.8441,0.7135,0.5648,0.4397,0.3587,0.3587,0.3587,0.3587,0.3587,0.3587,0.3587,0.3587,0.3587,0.3587,0.3587,0.3587,0.3587,0.3587,0.3587,0.3643,0.3726,0.3643,0.3643,0.3727,0.3643,0.3587,0.3587,0.3587,0.3587,0.3587,0.3587,0.3587,0.3587,0.3587,0.3587,0.3587,0.3587,0.3587,0.3587,0.3587,0.3587,0.3587,0.3587,0.3587,0.3587,0.3587,0.3587,0.3587,0.3587,0.3587,0.3587,0.3587,0.3587,0.3587,0.3587,0.3587,0.3587,0.3587,0.3587,0.3587,0.3587,0.3587,0.3587,0.3587,0.3587,0.3587,0.3587,0.3587,0.3587,0.3587,0.3587,0.3587,0.3587,0.3587,0.3587,0.3587,0.3587,0.3587,0.3587,0.3755,0.4285,0.5288,0.5731,0.6758,0.8754,0.9089,0.9612,1.0637,0.9722,0.964,1.0665,1.0692,1.0692,1.0692,1.0692,1.0692,1.0692,1.0692,1.0692,1.0692,1.0692,1.0708,1.0745,1.0899,1.0988,1.1045,1.1135,1.1183,1.1171,1.1082,1.1345,1.1769,1.1685,1.1978,1.2414,0.8551,0.7719,0.6722,0.4756,0.3977,0.3587,0.3587,0.3587,0.3587,0.3587,0.3587,0.3587,0.3587,0.3587,0.3587,0.3587,0.3587,0.3587,0.3587,0.3587,0.3587,0.3587,0.3587,0.3587,0.3587,0.3587,0.3587,0.3587,0.3587,0.3587,0.3587,0.3587,0.3587,0.3587,0.3587,0.3587,0.3587,0.3587,0.3587,0.3587,0.3587,0.3587,0.3587,0.3587,0.3587,0.3587,0.3587,0.3587,0.3587,0.3587,0.3587,0.3587,0.3587,0.3587,0.3587,0.3587,0.3587,0.3587,0.3587,0.3587,0.3587,0.3587,0.3587,0.3587,0.3587,0.3587,0.3587,0.3587,0.3587,0.3587,0.3587,0.3587,0.3587,0.3587,0.3587,0.3587,0.3587,0.3587,0.3587,0.3587,0.3587,0.3811,0.4369,0.5009,0.5843,0.6924,0.7587,0.8168,0.8717,0.8837,0.8865,0.8775,1.0021,1.0692,1.0692,1.0692,1.0692,1.0692,1.0692,1.0692,1.0692,1.0692,1.0692,1.0696,1.0813,1.0907,1.1008,1.1151,1.1195,1.1195,1.1248,1.1477,1.1798,1.1734,1.1991,1.2414,0.7581,0.711,0.6364,0.4005,0.3587,0.3587,0.3587,0.3587,0.3587,0.3587,0.3587,0.3587,0.3587,0.3587,0.3587,0.3587,0.3587,0.3587,0.3587,0.3587,0.3587,0.3587,0.3587,0.3587,0.3587,0.3587,0.3587,0.3587,0.3587,0.3587,0.3587,0.3587,0.3587,0.3587,0.3587,0.3587,0.3587,0.3587,0.3587,0.3587,0.3587,0.3587,0.3587,0.3587,0.3587,0.3587,0.3587,0.3587,0.3587,0.3587,0.3587,0.3587,0.3587,0.3587,0.3587,0.3587,0.3587,0.3587,0.3587,0.3587,0.3587,0.3587,0.3587,0.3587,0.3587,0.3587,0.3587,0.3587,0.3587,0.3587,0.3587,0.3587,0.3587,0.3587,0.0,0.3587,0.3587,0.3587,0.3587,0.3587,0.3587,0.3587,0.3587,0.4424,0.5093,0.5371,0.62,0.6808,0.7083,0.7725,0.767,0.6725,0.8748,0.9998,1.0276,1.0276,1.0417,1.0692,1.0692,1.0692,1.0692,1.0692,1.0692,1.0692,1.0692,1.0798,1.1008,1.1151,1.1219,1.1301,1.1443,1.1678,1.1929,1.1837,1.2099,1.248,0.7581,0.711,0.6364,0.4005,0.3587,0.3587,0.3587,0.3587,0.3587,0.3587,0.3587,0.3587,0.3587,0.3587,0.3587,0.3587,0.3587,0.3587,0.3587,0.3587,0.3587,0.3587,0.3587,0.3587,0.3587,0.3587,0.3587,0.3587,0.3587,0.3587,0.3587,0.3587,0.3587,0.3587,0.3587,0.3587,0.3587,0.3587,0.3587,0.3587,0.3587,0.3587,0.3587,0.3587,0.3587,0.3587,0.3587,0.3587,0.3587,0.3587,0.3587,0.3587,0.3587,0.3587,0.3587,0.3587,0.3587,0.3587,0.3587,0.3587,0.3587,0.3587,0.3587,0.3587,0.3587,0.3587,0.3587,0.3587,0.3587,0.3587,0.3587,0.3587,0.3587,0.3587,0.0,0.0,0.3587,0.3587,0.3587,0.3587,0.3587,0.3587,0.3587,0.3671,0.4201,0.5316,0.5483,0.598,0.7055,0.6174,0.5622,0.5539,0.6725,0.7888,0.9034,0.9034,0.9585,1.0692,1.0692,1.0692,1.0692,1.0692,1.0692,1.0692,1.0692,1.0798,1.1008,1.1151,1.1325,1.148,1.1492,1.1837,1.2296,1.1938,1.2218,1.2743,0.7581,0.711,0.6364,0.4005,0.3587,0.3587,0.3587,0.3587,0.3587,0.3587,0.3587,0.3587,0.3587,0.3587,0.3587,0.3587,0.3587,0.3587,0.3587,0.3587,0.3587,0.3587,0.3587,0.3587,0.3587,0.3587,0.3587,0.3587,0.3587,0.3587,0.3587,0.3587,0.3587,0.3587,0.3587,0.3587,0.3587,0.3587,0.3587,0.3587,0.3587,0.3587,0.3587,0.3587,0.3587,0.3587,0.3587,0.3587,0.3587,0.3587,0.3587,0.3587,0.3587,0.3587,0.3587,0.3587,0.3587,0.3587,0.3587,0.3587,0.3587,0.3587,0.3587,0.3587,0.3587,0.3587,0.3587,0.3587,0.3587,0.3587,0.3587,0.3587,0.3587,0.3587,0.0,0.3587,0.3587,0.3587,0.3587,0.3587,0.3587,0.3587,0.3587,0.3587,0.3783,0.4257,0.4285,0.4479,0.4894,0.4507,0.462,0.5371,0.5091,0.5838,0.7753,0.853,0.9144,0.9585,1.0331,1.0692,1.0692,1.0692,1.0692,1.0692,1.0692,1.0733,1.0818,1.1078,1.1236,1.135,1.1581,1.1988,1.2378,1.2078,1.2331,1.2767,0.7501,0.6808,0.595,0.3949,0.3587,0.3587,0.3587,0.3587,0.3587,0.3587,0.3587,0.3587,0.3587,0.3587,0.3587,0.3587,0.3587,0.3587,0.3587,0.3587,0.3587,0.3587,0.3587,0.3587,0.3587,0.3587,0.3587,0.3587,0.3587,0.3587,0.3587,0.3587,0.3587,0.3587,0.3587,0.3587,0.3587,0.3587,0.3587,0.3587,0.3587,0.3587,0.3587,0.3587,0.3587,0.3587,0.3587,0.3587,0.3587,0.3587,0.3587,0.3587,0.3587,0.3587,0.3587,0.3587,0.3587,0.3587,0.3587,0.3587,0.3587,0.3587,0.3587,0.3587,0.3587,0.3587,0.3587,0.3587,0.3587,0.3587,0.3587,0.3587,0.3587,0.3587,0.3587,0.3587,0.3587,0.3587,0.3587,0.3587,0.3587,0.3587,0.3587,0.3587,0.3587,0.3587,0.3587,0.3587,0.3587,0.3587,0.3977,0.4814,0.4033,0.4365,0.5975,0.7199,0.7977,0.8337,0.9165,0.9774,1.0139,1.0139,1.0331,1.0692,1.0692,1.0692,1.0716,1.1021,1.1175,1.1252,1.1684,1.2124,1.2475,1.2398,1.2575,1.2861,0.7335,0.6172,0.5009,0.3811,0.3587,0.3587,0.3587,0.3587,0.3587,0.3587,0.3587,0.3587,0.3587,0.3587,0.3587,0.3587,0.3587,0.3587,0.3587,0.3587,0.3587,0.3587,0.3587,0.3587,0.3587,0.3587,0.3587,0.3587,0.3587,0.3587,0.3587,0.3587,0.3587,0.3587,0.3587,0.3587,0.3587,0.3587,0.3587,0.3587,0.3587,0.3587,0.3587,0.3587,0.3587,0.3587,0.3587,0.3587,0.3587,0.3587,0.3587,0.3587,0.3587,0.3587,0.3587,0.3587,0.3587,0.3587,0.3587,0.3587,0.3587,0.3587,0.3587,0.3587,0.3587,0.3587,0.3587,0.3587,0.3587,0.3587,0.3587,0.3587,0.3587,0.3587,0.3587,0.3587,0.3587,0.3587,0.3587,0.3587,0.3587,0.3587,0.3587,0.3587,0.3587,0.3587,0.3587,0.3587,0.3587,0.3587,0.3587,0.3587,0.3587,0.3587,0.3587,0.4786,0.598,0.7083,0.7083,0.7722,0.8892,0.8892,0.9557,1.0692,1.0692,1.0692,1.0708,1.0919,1.107,1.124,1.1779,1.229,1.2727,1.2838,1.2988,1.307,0.6313,0.562,0.5009,0.3811,0.3587,0.3587,0.3587,0.3587,0.3587,0.3587,0.3587,0.3587,0.3587,0.3587,0.3587,0.3587,0.3587,0.3587,0.3587,0.3587,0.3587,0.3587,0.3587,0.3587,0.3587,0.3587,0.3587,0.3587,0.3587,0.3587,0.3587,0.3587,0.3587,0.3587,0.3587,0.3587,0.3587,0.3587,0.3587,0.3587,0.3587,0.3587,0.3587,0.3587,0.3587,0.3587,0.3587,0.3587,0.3587,0.3587,0.3587,0.3587,0.3587,0.3587,0.3587,0.3587,0.3587,0.3587,0.3587,0.3587,0.3587,0.3587,0.3587,0.3587,0.3587,0.3587,0.3587,0.3587,0.3587,0.3587,0.3587,0.3587,0.3587,0.3587,0.3587,0.3587,0.3587,0.3587,0.3587,0.3587,0.3587,0.3587,0.3587,0.3587,0.3587,0.3587,0.3587,0.3587,0.3587,0.3587,0.3587,0.3587,0.3587,0.3587,0.3587,0.4786,0.5564,0.5924,0.6725,0.7279,0.7667,0.8502,0.9089,0.9475,1.0331,1.0692,1.0708,1.0919,1.1138,1.1386,1.182,1.233,1.2847,1.2876,1.3081,1.3273,0.5676,0.5009,0.4451,0.3727,0.3587,0.3587,0.3587,0.3587,0.3587,0.3587,0.3587,0.3587,0.3587,0.3587,0.3587,0.3587,0.3587,0.3587,0.3587,0.3587,0.3587,0.3587,0.3587,0.3587,0.3587,0.3587,0.3587,0.3587,0.3587,0.3587,0.3587,0.3587,0.3587,0.3587,0.3587,0.3587,0.3587,0.3587,0.3587,0.3587,0.3587,0.3587,0.3587,0.3587,0.3587,0.3587,0.3587,0.3587,0.3587,0.3587,0.3587,0.3587,0.3587,0.3587,0.3587,0.3587,0.3587,0.3587,0.3587,0.3587,0.3587,0.3587,0.3587,0.3587,0.3587,0.3587,0.3587,0.3587,0.3587,0.3587,0.3587,0.3587,0.3587,0.3587,0.3587,0.3587,0.3587,0.3587,0.3587,0.3587,0.3587,0.3587,0.3587,0.3587,0.3587,0.3587,0.3587,0.3587,0.3587,0.3587,0.3587,0.3587,0.3587,0.3587,0.3587,0.4313,0.4674,0.4702,0.5395,0.5975,0.645,0.7171,0.8036,0.8947,0.9667,1.0249,1.0728,1.0953,1.1183,1.1439,1.1926,1.2378,1.2794,1.2939,1.3113,1.3245,0.526,0.4341,0.3587,0.3587,0.3587,0.3587,0.3587,0.3587,0.3587,0.3587,0.3587,0.3587,0.3587,0.3587,0.3587,0.3587,0.3587,0.3587,0.3587,0.3587,0.3587,0.3587,0.3587,0.3587,0.3587,0.3587,0.3587,0.3587,0.3587,0.3587,0.3587,0.3587,0.3587,0.3587,0.3587,0.3587,0.3587,0.3587,0.3587,0.3587,0.3587,0.3587,0.3587,0.3587,0.3587,0.3587,0.3587,0.3587,0.3587,0.3587,0.3587,0.3587,0.3587,0.3587,0.3587,0.3587,0.3587,0.3587,0.3587,0.3587,0.3587,0.3587,0.3587,0.3587,0.3587,0.3587,0.3587,0.3587,0.3587,0.3587,0.3587,0.3587,0.3587,0.3587,0.3587,0.3587,0.3587,0.3587,0.3587,0.3587,0.3587,0.3587,0.3587,0.3587,0.3587,0.3587,0.3587,0.3587,0.3587,0.3587,0.3587,0.3587,0.3587,0.3587,0.3587,0.3587,0.3587,0.3587,0.3587,0.4173,0.5232,0.5343,0.6563,0.8589,0.8699,0.9388,1.0468,1.0798,1.1062,1.1276,1.2026,1.2392,1.2551,1.2946,1.3093,1.3065,0.4173,0.3783,0.3587,0.3587,0.3587,0.3587,0.3587,0.3587,0.3587,0.3587,0.3587,0.3587,0.3587,0.3587,0.3587,0.3587,0.3587,0.3587,0.3587,0.3587,0.3587,0.3587,0.3587,0.3587,0.3587,0.3587,0.3587,0.3587,0.3587,0.3587,0.3587,0.3587,0.3587,0.3587,0.3587,0.3587,0.3587,0.3587,0.3587,0.3587,0.3587,0.3587,0.3587,0.3587,0.3587,0.3587,0.3587,0.3587,0.3587,0.3587,0.3587,0.3587,0.3587,0.3587,0.3587,0.3587,0.3587,0.3587,0.3587,0.3587,0.3587,0.3587,0.3587,0.3587,0.3587,0.3587,0.3587,0.3587,0.3587,0.3587,0.3587,0.3587,0.3587,0.3587,0.3587,0.3587,0.3587,0.3587,0.3587,0.3587,0.3587,0.3587,0.3587,0.3587,0.3587,0.3587,0.3587,0.3587,0.3587,0.3587,0.3587,0.3587,0.3587,0.3587,0.3587,0.3587,0.3587,0.3587,0.3587,0.3726,0.4033,0.4981,0.5676,0.6202,0.7116,0.7916,0.8637,0.944,0.9796,1.0011,1.1662,1.2053,1.1788,1.2747,1.3093,1.3065,0.3727,0.3587,0.3587,0.3587,0.3587,0.3587,0.3587,0.3587,0.3587,0.3587,0.3587,0.3587,0.3587,0.3587,0.3587,0.3587,0.3587,0.3587,0.3587,0.3587,0.3587,0.3587,0.3587,0.3587,0.3587,0.3587,0.3587,0.3587,0.3587,0.3587,0.3587,0.3587,0.3587,0.3587,0.3587,0.3587,0.3587,0.3587,0.3587,0.3587,0.3587,0.3587,0.3587,0.3587,0.3587,0.3587,0.3587,0.3587,0.3587,0.3587,0.3587,0.3587,0.3587,0.3587,0.3587,0.3587,0.3587,0.3587,0.3587,0.3587,0.3587,0.3587,0.3587,0.3587,0.3587,0.3587,0.3587,0.3587,0.3587,0.3587,0.3587,0.3587,0.3587,0.3587,0.3587,0.3587,0.3587,0.3587,0.3587,0.3587,0.3587,0.3587,0.3587,0.3587,0.3587,0.3587,0.3587,0.3587,0.3587,0.3587,0.3587,0.3587,0.3587,0.3587,0.3587,0.3587,0.3587,0.3587,0.3587,0.3587,0.3643,0.4841,0.5704,0.6255,0.6836,0.7781,0.8865,0.8944,0.9137,0.9561,1.1126,1.1524,1.1334,1.1944,1.2152,1.2152,0.3587,0.3587,0.3587,0.3587,0.3587,0.3587,0.3587,0.3587,0.3587,0.3587,0.3587,0.3587,0.3587,0.3587,0.3587,0.3587,0.3587,0.3587,0.3587,0.3587,0.3587,0.3587,0.3587,0.3587,0.3587,0.3587,0.3587,0.3587,0.3587,0.3587,0.3587,0.3587,0.3587,0.3587,0.3587,0.3587,0.3587,0.3587,0.3587,0.3587,0.3587,0.3587,0.3587,0.3587,0.3587,0.3587,0.3587,0.3587,0.3587,0.3587,0.3587,0.3587,0.3587,0.3587,0.3587,0.3587,0.3587,0.3587,0.3587,0.3587,0.3587,0.3587,0.3587,0.3587,0.3587,0.3587,0.3587,0.3587,0.3587,0.3587,0.3587,0.3587,0.3587,0.3587,0.3587,0.3587,0.3587,0.3587,0.3587,0.3587,0.3587,0.3587,0.3587,0.3587,0.3587,0.3587,0.3587,0.3587,0.3587,0.3587,0.3587,0.3587,0.3587,0.3587,0.3587,0.3587,0.3587,0.3587,0.3587,0.3587,0.3643,0.4646,0.5618,0.65,0.6725,0.7753,0.923,0.872,0.8803,0.9361,1.0437,1.0798,1.0661,1.0825,1.0962,1.1124,0.3587,0.3587,0.3587,0.3587,0.3587,0.3587,0.3587,0.3587,0.3587,0.3587,0.3587,0.3587,0.3587,0.3587,0.3587,0.3587,0.3587,0.3587,0.3587,0.3587,0.3587,0.3587,0.3587,0.3587,0.3587,0.3587,0.3587,0.3587,0.3587,0.3587,0.3587,0.3587,0.3587,0.3587,0.3587,0.3587,0.3587,0.3587,0.3587,0.3587,0.3587,0.3587,0.3587,0.3587,0.3587,0.3587,0.3587,0.3587,0.3587,0.3587,0.3587,0.3587,0.3587,0.3587,0.3587,0.3587,0.3587,0.3587,0.3587,0.3587,0.3587,0.3587,0.3587,0.3587,0.3587,0.3587,0.3587,0.3587,0.3587,0.3587,0.3587,0.3587,0.3587,0.3587,0.3587,0.3587,0.3587,0.3587,0.3587,0.3587,0.3587,0.3587,0.3587,0.3587,0.3587,0.3587,0.3587,0.3587,0.3587,0.3587,0.3587,0.3587,0.3587,0.3587,0.3587,0.3587,0.3587,0.3587,0.3587,0.3587,0.3615,0.3783,0.3921,0.4143,0.5174,0.6202,0.7199,0.8109,0.8558,0.8702,0.9609,0.9526,0.8951,0.9691,1.046,1.1103,0.3587,0.3587,0.3587,0.3587,0.3587,0.3587,0.3587,0.3587,0.3587,0.3587,0.3587,0.3587,0.3587,0.3587,0.3587,0.3587,0.3587,0.3587,0.3587,0.3587,0.3587,0.3587,0.3587,0.3587,0.3587,0.3587,0.3587,0.3587,0.3587,0.3587,0.3587,0.3587,0.3587,0.3587,0.3587,0.3587,0.3587,0.3587,0.3587,0.3587,0.3587,0.3587,0.3587,0.3587,0.3587,0.3587,0.3587,0.3587,0.3587,0.3587,0.3587,0.3587,0.3587,0.3587,0.3587,0.3587,0.3587,0.3587,0.3587,0.3587,0.3587,0.3587,0.3587,0.3587,0.3587,0.3587,0.3587,0.3587,0.3587,0.3587,0.3587,0.3587,0.3587,0.3587,0.3587,0.3587,0.3587,0.3587,0.3587,0.3587,0.3587,0.3587,0.3587,0.3587,0.3587,0.3587,0.3587,0.3587,0.3587,0.3587,0.3587,0.3587,0.3587,0.3587,0.3587,0.3587,0.3587,0.3587,0.3587,0.3587,0.3615,0.4285,0.4592,0.4646,0.5539,0.6318,0.7038,0.7728,0.8202,0.8623,0.9998,0.9994,0.9278,0.966,0.9746,0.964]},{"header":{"parameterUnit":"m.s-1","parameterCategory":1,"la1":30.6,"la2":28.766,"lo1":-90.7593,"lo2":-88.6598,"dy":0.0162,"dx":0.0183,"nx":116,"ny":114,"refTime":"2023-09-17T00:00:00:Z","depth":0,"parameterNumber":3,"parameterNumberName":"V-component_of_WINDS"},"data":[0.0,0.0,0.0,0.0,0.0,0.0,0.0,0.0,0.0,0.0,0.0,0.0,0.0,0.0,0.0,0.0,0.0,0.0,0.0,0.0,0.0,0.0,0.0,0.0,0.0,0.0,0.0,0.0,0.0,0.0,0.0,0.0,0.0,0.0,0.0,0.0,0.0,0.0,0.0,0.0,0.0,0.0,0.0,0.0,0.0,0.0,0.0,0.0,0.0,0.0,0.0,0.0,0.0,0.0,0.0,0.0,0.0,0.0,0.0,0.0,0.0,0.0,0.0,0.0,0.0,0.0,0.0,0.0,0.0,0.0,0.0,0.0,0.0,0.0,0.0,0.0,0.0,0.0,0.0,0.0,0.0,0.0,0.0,0.0,0.0,0.0,0.0,0.0,0.0,0.0,0.0,0.0,0.0,0.0,0.0,0.0,0.0,0.0,0.0,0.0,0.0,0.0,0.0,0.0,0.0,0.0,0.0,0.0,0.0,0.0,0.0,0.0,0.0,0.0,0.0,0.0,0.0,0.0,0.0,0.0,0.0,0.0,0.0,0.0,0.0,0.0,0.0,0.0,0.0,0.0,0.0,0.0,0.0,0.0,0.0,0.0,0.0,0.0,0.0,0.0,0.0,0.0,0.0,0.0,0.0,0.0,0.0,0.0,0.0,0.0,0.0,0.0,0.0,0.0,0.0,0.0,0.0,0.0,0.0,0.0,0.0,0.0,0.0,0.0,0.0,0.0,0.0,0.0,0.0,0.0,0.0,0.0,0.0,0.0,0.0,0.0,0.0,0.0,0.0,0.0,0.0,0.0,0.0,0.0,0.0,0.0,0.0,0.0,0.0,0.0,0.0,0.0,0.0,0.0,0.0,0.0,0.0,0.0,0.0,0.0,0.0,0.0,0.0,0.0,0.0,0.0,0.0,0.0,0.0,0.0,0.0,0.0,0.0,0.0,0.0,0.0,0.0,0.0,0.0,0.0,0.0,0.0,0.0,0.0,0.0,0.0,0.0,0.0,0.0,0.0,0.0,0.0,0.0,0.0,0.0,0.0,0.0,0.0,0.0,0.0,0.0,0.0,0.0,0.0,0.0,0.0,0.0,0.0,0.0,0.0,0.0,0.0,0.0,0.0,0.0,0.0,0.0,0.0,0.0,0.0,0.0,0.0,0.0,0.0,0.0,0.0,0.0,0.0,0.0,0.0,0.0,0.0,0.0,0.0,0.0,0.0,0.0,0.0,0.0,0.0,0.0,0.0,0.0,0.0,0.0,0.0,0.0,0.0,0.0,0.0,0.0,0.0,0.0,0.0,0.0,0.0,0.0,0.0,0.0,0.0,0.0,0.0,0.0,0.0,0.0,0.0,0.0,0.0,0.0,0.0,0.0,0.0,0.0,0.0,0.0,0.0,0.0,0.0,0.0,0.0,0.0,0.0,0.0,0.0,0.0,0.0,0.0,0.0,0.0,0.0,0.0,0.0,0.0,0.0,0.0,0.0,0.0,0.0,0.0,0.0,0.0,0.0,0.0,0.0,0.0,0.0,0.0,0.0,0.0,0.0,0.0,0.0,0.0,0.0,0.0,0.0,0.0,0.0,0.0,0.0,0.0,0.0,0.0,0.0,0.0,0.0,0.0,0.0,0.0,0.0,0.0,0.0,0.0,0.0,0.0,0.0,0.0,0.0,0.0,0.0,0.0,0.0,0.0,0.0,0.0,0.0,0.0,0.0,0.0,0.0,0.0,0.0,0.0,0.0,0.0,0.0,0.0,0.0,0.0,0.0,0.0,0.0,0.0,0.0,0.0,0.0,0.0,0.0,0.0,0.0,0.0,0.0,0.0,0.0,0.0,0.0,0.0,0.0,0.0,0.0,0.0,0.0,0.0,0.0,0.0,0.0,0.0,0.0,0.0,0.0,0.0,0.0,0.0,0.0,0.0,0.0,0.0,0.0,0.0,0.0,0.0,0.0,0.0,0.0,0.0,0.0,0.0,0.0,0.0,0.0,0.0,0.0,0.0,0.0,0.0,0.0,0.0,0.0,0.0,0.0,0.0,0.0,0.0,0.0,0.0,0.0,0.0,0.0,0.0,0.0,0.0,0.0,0.0,0.0,0.0,0.0,0.0,0.0,0.0,0.0,0.0,0.0,0.0,0.0,0.0,0.0,0.0,0.0,0.0,0.0,0.0,0.0,0.0,0.0,0.0,0.0,0.0,0.0,0.0,0.0,0.0,0.0,0.0,0.0,0.0,0.0,0.0,0.0,0.0,0.0,0.0,0.0,0.0,0.0,0.0,0.0,0.0,0.0,0.0,0.0,0.0,0.0,0.0,0.0,0.0,0.0,0.0,0.0,0.0,0.0,0.0,0.0,0.0,0.0,0.0,0.0,0.0,0.0,0.0,0.0,0.0,0.0,0.0,0.0,0.0,0.0,0.0,0.0,0.0,0.0,0.0,0.0,0.0,0.0,0.0,0.0,0.0,0.0,0.0,0.0,0.0,0.0,0.0,0.0,0.0,0.0,0.0,0.0,0.0,0.0,0.0,0.0,0.0,0.0,0.0,0.0,0.0,0.0,0.0,0.0,0.0,0.0,0.0,0.0,0.0,0.0,0.0,0.0,0.0,0.0,0.0,0.0,0.0,0.0,0.0,0.0,0.0,0.0,0.0,0.0,0.0,0.0,0.0,0.0,0.0,0.0,0.0,0.0,0.0,0.0,0.0,0.0,0.0,0.0,0.0,0.0,0.0,0.0,0.0,0.0,0.0,0.0,0.0,0.0,0.0,0.0,0.0,0.0,0.0,0.0,0.0,0.0,0.0,0.0,0.0,0.0,0.0,0.0,0.0,0.0,0.0,0.0,0.0,0.0,0.0,0.0,0.0,0.0,0.0,0.0,0.0,0.0,0.0,0.0,0.0,0.0,0.0,0.0,0.0,0.0,0.0,0.0,0.0,0.0,0.0,0.0,0.0,0.0,0.0,0.0,0.0,0.0,0.0,0.0,0.0,0.0,0.0,0.0,0.0,0.0,0.0,0.0,0.0,0.0,0.0,0.0,0.0,0.0,0.0,0.0,0.0,0.0,0.0,0.0,0.0,0.0,0.0,0.0,0.0,0.0,0.0,0.0,0.0,0.0,0.0,0.0,0.0,0.0,0.0,0.0,0.0,0.0,0.0,0.0,0.0,0.0,0.0,0.0,0.0,0.0,0.0,0.0,0.0,0.0,0.0,0.0,0.0,0.0,0.0,0.0,0.0,0.0,0.0,0.0,0.0,0.0,0.0,0.0,0.0,0.0,0.0,0.0,0.0,0.0,0.0,0.0,0.0,0.0,0.0,0.0,0.0,0.0,0.0,0.0,0.0,0.0,0.0,0.0,0.0,0.0,0.0,0.0,0.0,0.0,0.0,0.0,0.0,0.0,0.0,0.0,0.0,0.0,0.0,0.0,0.0,0.0,0.0,0.0,0.0,0.0,0.0,0.0,0.0,0.0,0.0,0.0,0.0,0.0,0.0,0.0,0.0,0.0,0.0,0.0,0.0,0.0,0.0,0.0,0.0,0.0,0.0,0.0,0.0,0.0,0.0,0.0,0.0,0.0,0.0,0.0,0.0,0.0,0.0,0.0,0.0,0.0,0.0,0.0,0.0,0.0,0.0,0.0,0.0,0.0,0.0,0.0,0.0,0.0,0.0,0.0,0.0,0.0,0.0,0.0,0.0,0.0,0.0,0.0,0.0,0.0,0.0,0.0,0.0,0.0,0.0,0.0,0.0,0.0,0.0,0.0,0.0,0.0,0.0,0.0,0.0,0.0,0.0,0.0,0.0,0.0,0.0,0.0,0.0,0.0,0.0,0.0,0.0,0.0,0.0,0.0,0.0,0.0,0.0,0.0,0.0,0.0,0.0,0.0,0.0,0.0,0.0,0.0,0.0,0.0,0.0,0.0,0.0,0.0,0.0,0.0,0.0,0.0,0.0,0.0,0.0,0.0,0.0,0.0,0.0,0.0,0.0,0.0,0.0,0.0,0.0,0.0,0.0,0.0,0.0,0.0,0.0,0.0,0.0,0.0,0.0,0.0,0.0,0.0,0.0,0.0,0.0,0.0,0.0,0.0,0.0,0.0,0.0,0.0,0.0,0.0,0.0,0.0,0.0,0.0,0.0,0.0,0.0,0.0,0.0,0.0,0.0,0.0,0.0,0.0,0.0,0.0,0.0,0.0,0.0,0.0,0.0,0.0,0.0,0.0,0.0,0.0,0.0,0.0,0.0,0.0,0.0,0.0,0.0,0.0,0.0,0.0,0.0,0.0,0.0,0.0,0.0,0.0,0.0,0.0,0.0,0.0,0.0,0.0,0.0,0.0,0.0,0.0,0.0,0.0,0.0,0.0,0.0,0.0,0.0,0.0,0.0,0.0,0.0,0.0,0.0,0.0,0.0,0.0,0.0,0.0,0.0,0.0,0.0,0.0,0.0,0.0,0.0,0.0,0.0,0.0,0.0,0.0,0.0,0.0,0.0,0.0,0.0,0.0,0.0,0.0,0.0,0.0,0.0,0.0,0.0,0.0,0.0,0.0,0.0,0.0,0.0,0.0,0.0,0.0,0.0,0.0,0.0,0.0,0.0,0.0,0.0,0.0,0.0,0.0,0.0,0.0,0.0,0.0,0.0,0.0,0.0,0.0,0.0,0.0,0.0,0.0,0.0,0.0,0.0,0.0,0.0,0.0,0.0,0.0,0.0,0.0,0.0,0.0,0.0,0.0,0.0,0.0,0.0,0.0,0.0,0.0,0.0,0.0,0.0,0.0,0.0,0.0,0.0,0.0,0.0,0.0,0.0,0.0,0.0,0.0,0.0,0.0,0.0,0.0,0.0,0.0,0.0,0.0,0.0,0.0,0.0,0.0,0.0,0.0,0.0,0.0,0.0,0.0,0.0,0.0,0.0,0.0,0.0,0.0,0.0,0.0,0.0,0.0,0.0,0.0,0.0,0.0,0.0,0.0,0.0,0.0,0.0,0.0,0.0,0.0,0.0,0.0,0.0,0.0,0.0,0.0,0.0,0.0,0.0,0.0,0.0,0.0,0.0,0.0,0.0,0.0,0.0,0.0,0.0,0.0,0.0,0.0,0.0,0.0,0.0,0.0,0.0,0.0,0.0,0.0,0.0,0.0,0.0,0.0,0.0,0.0,0.0,0.0,0.0,0.0,0.0,0.0,0.0,0.0,0.0,0.0,0.0,0.0,0.0,0.0,0.0,0.0,0.0,0.0,0.0,0.0,0.0,0.0,0.0,0.0,0.0,0.0,0.0,0.0,0.0,0.0,0.0,0.0,0.0,0.0,0.0,0.0,0.0,0.0,0.0,0.0,0.0,0.0,0.0,0.0,0.0,0.0,0.0,0.0,0.0,0.0,0.0,0.0,0.0,0.0,0.0,0.0,0.0,0.0,0.0,0.0,0.0,0.0,0.0,0.0,0.0,0.0,0.0,0.0,0.0,0.0,0.0,0.0,0.0,0.0,0.0,0.0,0.0,0.0,0.0,0.0,0.0,0.0,0.0,0.0,0.0,0.0,0.0,0.0,0.0,0.0,0.0,0.0,0.0,0.0,0.0,0.0,0.0,0.0,0.0,0.0,0.0,0.0,0.0,0.0,0.0,0.0,0.0,0.0,0.0,0.0,0.0,0.0,0.0,0.0,0.0,0.0,0.0,0.0,0.0,0.0,0.0,0.0,0.0,0.0,0.0,0.0,0.0,0.0,0.0,0.0,0.0,0.0,0.0,0.0,0.0,0.0,0.0,0.0,0.0,0.0,0.0,0.0,0.0,0.0,0.0,0.0,0.0,0.0,0.0,0.0,0.0,0.0,0.0,0.0,0.0,0.0,0.0,0.0,0.0,0.0,0.0,0.0,0.0,0.0,0.0,0.0,0.0,0.0,0.0,0.0,0.0,0.0,0.0,0.0,0.0,0.0,0.0,0.0,0.0,0.0,0.0,0.0,0.0,0.0,0.0,0.0,0.0,0.0,0.0,0.0,0.0,0.0,0.0,0.0,0.0,0.0,0.0,0.0,0.0,0.0,0.0,0.0,0.0,0.0,0.0,0.0,0.0,0.0,0.0,0.0,0.0,0.0,0.0,0.0,3.1656,3.0498,0.0,0.0,0.0,0.0,0.0,0.0,0.0,0.0,0.0,0.0,0.0,0.0,0.0,0.0,0.0,0.0,0.0,0.0,0.0,0.0,0.0,0.0,0.0,0.0,0.0,0.0,0.0,0.0,0.0,0.0,0.0,0.0,0.0,0.0,0.0,0.0,0.0,0.0,2.4033,2.4471,2.4586,2.4701,2.4715,2.4645,0.0,0.0,0.0,0.0,0.0,0.0,0.0,0.0,0.0,0.0,0.0,0.0,0.0,0.0,0.0,0.0,0.0,0.0,0.0,0.0,0.0,0.0,0.0,0.0,0.0,0.0,0.0,0.0,0.0,0.0,0.0,0.0,0.0,0.0,0.0,0.0,0.0,0.0,0.0,0.0,0.0,0.0,0.0,0.0,0.0,0.0,0.0,0.0,0.0,0.0,0.0,0.0,0.0,0.0,0.0,0.0,0.0,0.0,0.0,0.0,0.0,0.0,0.0,0.0,0.0,0.0,0.0,0.0,0.0,0.0,3.3929,3.2813,0.0,0.0,0.0,0.0,0.0,0.0,0.0,0.0,0.0,0.0,0.0,0.0,0.0,0.0,0.0,0.0,0.0,0.0,0.0,0.0,0.0,0.0,0.0,0.0,1.9708,1.9726,1.9771,1.9806,0.0,0.0,0.0,0.0,0.0,0.0,0.0,2.3164,2.3907,2.4141,2.4994,2.5422,2.5441,2.5864,2.5773,2.5249,2.5328,0.0,0.0,0.0,0.0,0.0,0.0,0.0,0.0,0.0,0.0,0.0,0.0,0.0,0.0,0.0,0.0,0.0,0.0,0.0,0.0,0.0,0.0,0.0,0.0,0.0,0.0,0.0,0.0,0.0,0.0,0.0,0.0,0.0,0.0,0.0,0.0,0.0,0.0,0.0,0.0,0.0,0.0,0.0,0.0,0.0,0.0,0.0,0.0,0.0,0.0,0.0,0.0,0.0,0.0,0.0,0.0,0.0,0.0,0.0,0.0,0.0,0.0,0.0,3.8146,3.8501,3.8501,3.8501,3.876,3.9119,3.6728,3.6153,3.6846,3.6582,0.0,0.0,0.0,0.0,0.0,0.0,0.0,0.0,0.0,0.0,0.0,0.0,0.0,0.0,0.0,0.0,0.0,0.0,0.0,0.0,0.0,1.965,1.9726,1.978,1.9788,1.9857,0.0,0.0,0.0,0.0,0.0,0.0,2.3319,2.4131,2.4742,2.5122,2.5656,2.593,2.5997,2.6238,2.63,2.624,2.6643,2.6825,2.6846,0.0,0.0,0.0,0.0,0.0,0.0,0.0,0.0,0.0,0.0,0.0,0.0,0.0,0.0,0.0,0.0,0.0,0.0,0.0,0.0,0.0,0.0,0.0,0.0,0.0,0.0,0.0,0.0,0.0,0.0,0.0,0.0,0.0,0.0,0.0,0.0,0.0,0.0,0.0,0.0,0.0,3.3735,3.4323,0.0,0.0,0.0,0.0,0.0,0.0,0.0,0.0,0.0,0.0,0.0,0.0,0.0,3.8857,3.8639,3.8945,3.9075,3.9103,3.9482,3.9672,3.9672,3.9672,3.973,3.9761,3.9382,0.0,3.8741,3.8698,0.0,0.0,0.0,0.0,0.0,0.0,0.0,0.0,0.0,0.0,0.0,0.0,0.0,0.0,0.0,0.0,0.0,0.0,0.0,0.0,0.0,1.9687,1.9771,1.9797,1.9904,1.9993,2.0045,2.0778,0.0,0.0,0.0,2.3659,2.4218,2.5045,2.5628,2.5912,2.6119,2.6296,2.6445,2.6908,2.7136,2.716,2.7781,2.7538,2.6722,2.6857,0.0,0.0,0.0,0.0,0.0,0.0,0.0,0.0,0.0,0.0,0.0,0.0,0.0,0.0,0.0,0.0,0.0,0.0,0.0,0.0,0.0,0.0,0.0,0.0,0.0,0.0,0.0,0.0,0.0,0.0,0.0,0.0,0.0,0.0,0.0,0.0,0.0,0.0,0.0,3.471,3.5685,3.6372,3.6734,3.7311,0.0,0.0,0.0,0.0,0.0,0.0,0.0,0.0,0.0,4.0123,3.9982,3.9906,3.9906,4.0762,4.1191,4.1209,4.2258,4.2774,4.2774,4.2774,4.2774,4.2774,4.2774,4.2586,4.2154,4.0298,3.9435,3.9297,0.0,0.0,0.0,0.0,4.012,4.0131,0.0,0.0,0.0,0.0,0.0,0.0,0.0,0.0,0.0,0.0,0.0,0.0,1.9605,1.9732,1.9806,1.9857,2.001,2.0229,2.0546,2.1293,0.0,0.0,2.3749,2.4727,2.5101,2.5885,2.6454,2.6733,2.6666,2.6851,2.7271,2.7776,2.8118,2.8348,2.8894,2.8309,2.697,2.7049,2.7067,2.7109,0.0,0.0,0.0,0.0,0.0,0.0,0.0,0.0,0.0,0.0,0.0,0.0,0.0,0.0,0.0,0.0,0.0,0.0,0.0,0.0,0.0,0.0,0.0,0.0,0.0,0.0,0.0,0.0,0.0,0.0,0.0,0.0,0.0,0.0,0.0,0.0,0.0,3.6524,3.7434,3.8141,3.8941,3.9617,0.0,0.0,0.0,0.0,0.0,0.0,4.1134,4.137,4.1479,4.1479,4.1715,4.1842,4.1842,4.2967,4.3539,4.3557,4.4724,4.5284,4.5284,4.5182,4.515,4.5139,4.5034,4.493,4.4667,4.2172,4.1178,4.129,4.1641,4.1826,4.1961,4.2255,4.2361,4.2383,0.0,0.0,0.0,0.0,0.0,0.0,0.0,0.0,0.0,0.0,0.0,1.962,1.969,1.9762,1.9857,1.9988,2.0054,2.0594,2.1721,2.2498,2.3362,2.4404,2.5447,2.6074,2.6216,2.664,2.7114,2.7624,2.738,2.7786,2.8799,2.8809,2.9248,2.9977,3.0012,2.9463,2.8516,2.8769,2.887,2.887,2.8904,0.0,0.0,0.0,0.0,0.0,0.0,0.0,0.0,0.0,0.0,0.0,0.0,0.0,0.0,0.0,0.0,0.0,0.0,0.0,0.0,0.0,0.0,0.0,0.0,0.0,0.0,0.0,0.0,0.0,0.0,0.0,0.0,0.0,0.0,0.0,0.0,0.0,0.0,3.9927,4.0676,0.0,0.0,0.0,0.0,4.2276,4.3006,4.3431,4.3431,4.4212,4.4672,4.4672,4.5532,4.6008,4.6008,4.6082,4.612,4.612,4.6062,4.6046,4.6029,4.5709,4.5568,4.554,4.517,4.5,4.4962,4.4667,4.4486,4.4374,4.4403,4.4421,4.4424,4.4445,4.4456,4.4456,0.0,0.0,0.0,0.0,0.0,0.0,0.0,0.0,1.9321,1.9385,1.952,1.9647,1.9753,1.9866,2.0061,2.0359,2.0486,2.1038,2.2215,2.2943,2.3803,2.4867,2.5966,2.6748,2.7191,2.7332,2.7754,2.8461,2.8378,2.9096,3.0568,3.0568,3.1001,3.1769,3.1769,3.1494,3.0941,2.9545,2.8936,2.8885,2.827,2.8031,0.0,0.0,0.0,0.0,0.0,0.0,0.0,0.0,0.0,0.0,0.0,0.0,0.0,0.0,0.0,0.0,0.0,0.0,0.0,0.0,0.0,0.0,0.0,0.0,0.0,0.0,0.0,0.0,0.0,0.0,0.0,0.0,0.0,0.0,0.0,0.0,0.0,4.1499,4.183,0.0,4.255,4.3498,4.4076,4.4076,4.4901,4.5397,4.5397,4.571,4.5877,4.5877,4.6189,4.6354,4.6354,4.6876,4.7127,4.7146,4.7605,4.7829,4.7829,4.7707,4.7664,4.7645,4.7509,4.7407,4.7305,4.7267,4.6294,4.4888,4.5136,4.5042,4.4721,4.4721,4.4678,4.4614,0.0,0.0,0.0,0.0,0.0,0.0,0.0,0.0,1.9349,1.9385,1.9532,1.9678,1.9795,2.0019,2.0282,2.0572,2.0852,2.1569,2.2948,2.3523,2.4422,2.5814,2.6729,2.738,2.7799,2.8104,2.8663,2.9438,2.971,3.0702,3.2383,3.2383,3.2792,3.3529,3.3529,3.347,3.3227,3.1415,3.0292,2.9654,2.902,2.8615,2.8417,0.0,0.0,0.0,0.0,0.0,0.0,0.0,0.0,0.0,0.0,0.0,0.0,0.0,0.0,0.0,0.0,0.0,0.0,0.0,0.0,0.0,0.0,0.0,0.0,0.0,0.0,0.0,0.0,0.0,0.0,0.0,0.0,0.0,0.0,4.1606,4.2255,4.3172,4.352,4.3953,4.4649,4.5374,4.5802,4.5802,4.6386,4.6742,4.6742,4.7023,4.7181,4.7181,4.7443,4.7574,4.7574,4.8102,4.8375,4.8393,4.922,4.9605,4.9615,4.977,4.9842,4.9842,4.9694,4.9588,4.9525,4.9667,4.8688,4.7087,4.6716,4.6274,4.5853,4.5853,4.5706,4.5519,0.0,0.0,0.0,0.0,0.0,0.0,0.0,1.9284,1.9404,1.9404,1.9572,1.9735,1.9797,2.0224,2.0539,2.0622,2.1111,2.2193,2.4012,2.4302,2.5313,2.7334,2.7788,2.8007,2.8032,2.8959,2.9815,3.0575,3.1385,3.2599,3.416,3.4196,3.4606,3.532,3.5338,3.5356,3.5302,3.4588,3.3211,3.1523,3.1392,3.0883,3.0181,0.0,0.0,0.0,0.0,0.0,0.0,0.0,0.0,0.0,0.0,0.0,0.0,0.0,0.0,0.0,0.0,0.0,0.0,0.0,0.0,0.0,0.0,0.0,0.0,0.0,0.0,0.0,0.0,0.0,0.0,0.0,0.0,0.0,4.2566,4.2905,4.367,4.4939,4.5761,4.6428,4.6882,4.7226,4.7441,4.7441,4.7453,4.7479,4.7479,4.8275,4.873,4.873,4.9526,4.9943,4.9943,4.9962,4.9981,4.9987,5.082,5.1237,5.1249,5.171,5.1915,5.189,5.1508,5.133,5.1357,5.1757,5.168,5.1145,4.9315,4.8355,4.8004,4.8004,4.7747,4.7413,0.0,0.0,0.0,0.0,0.0,0.0,0.0,1.9413,1.9547,1.9547,1.9678,1.9815,1.9928,2.0325,2.0746,2.1142,2.1539,2.259,2.4543,2.4822,2.578,2.7746,2.7932,2.8323,2.9009,2.9793,3.0868,3.2232,3.3045,3.424,3.5774,3.6354,3.7059,3.7835,3.837,3.862,3.8593,3.8388,3.77,3.6479,3.3507,3.2182,3.1901,0.0,0.0,0.0,0.0,0.0,0.0,0.0,0.0,0.0,0.0,0.0,0.0,0.0,0.0,0.0,0.0,0.0,0.0,0.0,0.0,0.0,0.0,0.0,0.0,0.0,0.0,0.0,0.0,0.0,0.0,0.0,4.441,4.4908,4.4685,4.5049,4.5689,4.6627,4.6939,4.7124,4.7254,4.7926,4.8332,4.8332,4.8881,4.9204,4.9204,4.9431,4.9564,4.9564,5.0391,5.0846,5.0846,5.1414,5.171,5.1717,5.1957,5.207,5.2063,5.2192,5.225,5.2269,5.2141,5.2111,5.2111,5.222,5.2205,5.2023,5.1249,5.066,5.0221,5.0221,5.0116,4.9979,0.0,0.0,0.0,0.0,0.0,0.0,0.0,1.9492,1.9593,1.9593,1.9714,1.9857,1.9997,2.0506,2.0991,2.1371,2.2165,2.3308,2.4873,2.5829,2.6817,2.7947,2.8383,2.8838,2.938,3.0779,3.2125,3.3392,3.4526,3.5882,3.7416,3.788,3.8597,3.9478,3.9926,4.0163,4.0275,4.0275,4.0031,3.9437,3.7043,3.5348,3.415,3.3267,3.29,3.2797,3.233,3.1884,3.1588,3.2019,0.0,0.0,0.0,0.0,0.0,0.0,0.0,0.0,0.0,0.0,0.0,0.0,0.0,0.0,0.0,0.0,0.0,0.0,0.0,0.0,0.0,0.0,0.0,0.0,4.5735,4.6514,4.6793,4.6768,4.7005,4.7858,4.7934,4.8085,4.8408,4.89,4.9204,4.9204,4.9646,5.0057,5.0429,5.0448,5.0599,5.094,5.1452,5.171,5.171,5.2165,5.2393,5.2393,5.2771,5.2942,5.2961,5.3283,5.3454,5.3454,5.3454,5.3454,5.3454,5.3454,5.3454,5.3363,0.0,0.0,0.0,0.0,5.113,5.1046,0.0,0.0,0.0,0.0,0.0,0.0,0.0,1.9538,1.9611,1.962,1.9762,1.9922,2.0052,2.0781,2.1329,2.1455,2.2868,2.4171,2.5216,2.6989,2.805,2.8152,2.8966,2.9487,2.9654,3.1913,3.346,3.4214,3.5933,3.7488,3.8855,3.9053,3.9669,4.0574,4.0682,4.0853,4.1078,4.1078,4.1078,4.1059,4.0968,3.9287,3.6756,3.5862,3.5366,3.5146,3.496,3.4279,3.3433,3.3433,0.0,0.0,0.0,0.0,0.0,0.0,0.0,0.0,0.0,0.0,0.0,0.0,0.0,0.0,0.0,0.0,0.0,0.0,0.0,0.0,0.0,0.0,0.0,0.0,4.6892,4.7858,4.8711,4.8187,4.7978,4.873,4.885,4.9115,4.9836,4.9994,5.0051,5.0051,5.0159,5.0532,5.1321,5.1359,0.0,0.0,0.0,5.2551,5.2544,5.2639,5.2677,5.2696,5.3473,5.384,5.3859,5.4579,5.4901,5.4901,5.4901,5.4901,5.4901,5.4901,5.4901,5.475,5.3264,5.2496,5.2196,5.1839,5.1636,5.1536,0.0,0.0,0.0,0.0,0.0,0.0,0.0,1.9632,1.9699,1.9759,2.0111,2.0403,2.0471,2.126,2.1809,2.1882,2.3147,2.4669,2.6358,2.7423,2.834,2.9105,2.9301,2.9976,3.1232,3.3183,3.4451,3.4981,3.7672,3.9023,3.9157,4.0672,4.1495,4.173,4.2359,4.2695,4.2749,4.2749,4.2749,4.2676,4.2028,4.0897,3.9473,3.8013,3.6904,3.5972,3.4716,3.3728,3.3009,3.3009,3.3239,3.3511,3.3511,3.3917,0.0,0.0,0.0,0.0,0.0,0.0,0.0,0.0,0.0,0.0,0.0,0.0,0.0,0.0,0.0,0.0,0.0,0.0,0.0,4.7953,4.8305,4.873,4.9551,4.9572,4.9548,4.9646,4.9665,4.9734,4.9886,5.0585,5.1036,5.1036,5.1678,5.2149,5.232,5.2339,5.2382,5.2472,5.3155,5.3507,5.3461,5.4086,5.4427,5.4427,5.4598,0.0,5.4674,5.4825,5.4901,5.4901,5.4901,5.4901,5.4901,5.4901,5.4901,5.4863,5.4541,5.439,5.4311,5.4238,5.4188,5.4173,0.0,0.0,0.0,0.0,0.0,0.0,0.0,1.9708,1.9762,1.9797,2.0275,2.0607,2.0656,2.146,2.2039,2.2129,2.3801,2.5574,2.7298,2.7932,2.8633,2.9516,3.0064,3.1107,3.2712,3.4491,3.5724,3.6394,3.8677,3.9934,4.0225,4.15,4.2399,4.2921,4.326,4.3469,4.3597,4.3597,4.3597,4.3579,4.3153,4.2598,4.181,4.0068,3.8738,3.7648,3.6481,3.5178,3.4044,3.4044,3.4013,3.4008,3.4382,3.4755,3.5137,0.0,0.0,0.0,0.0,0.0,0.0,0.0,0.0,0.0,0.0,0.0,0.0,0.0,0.0,4.5417,4.566,0.0,4.8,4.8596,4.9066,4.9484,4.9902,5.0011,5.0031,4.9965,4.9985,5.0182,5.0607,5.107,5.1508,5.1926,5.234,5.2785,5.3242,5.3254,5.3412,5.379,5.4185,5.4378,5.4353,5.4727,5.4901,5.492,5.5337,5.5546,5.5564,5.5962,5.6152,5.6152,5.6152,5.6152,5.6152,5.6152,5.6152,5.6152,5.6152,5.564,5.4901,5.4901,5.4901,5.4901,0.0,0.0,0.0,0.0,0.0,0.0,0.0,1.9762,1.9806,1.9848,2.0354,2.0756,2.0821,2.1633,2.2322,2.2692,2.4555,2.6309,2.7705,2.821,2.8893,2.9897,3.0753,3.2092,3.3996,3.5553,3.6765,3.7604,3.9329,4.0533,4.1288,4.2042,4.2945,4.3926,4.3793,4.3852,4.4051,4.402,4.4005,4.4005,4.4005,4.3868,4.3498,4.1817,4.0297,3.8953,3.831,3.6795,3.5141,3.5334,3.5009,3.4622,3.5248,3.5544,3.5856,3.6766,3.7683,0.0,0.0,0.0,0.0,0.0,0.0,0.0,0.0,4.4004,4.4881,4.4506,4.5797,4.6857,4.6377,4.7758,4.8939,4.8939,4.9548,5.0024,5.0024,5.0082,5.0158,5.0285,5.033,5.0621,5.1338,5.1713,5.2177,5.2824,5.304,5.3447,5.4151,5.4189,5.4468,5.5102,5.5059,5.5035,5.5021,5.4982,5.5022,5.5192,5.5879,5.6296,5.6459,5.7107,5.7403,5.7403,5.7403,5.7403,5.7403,5.7403,5.7403,5.7403,5.7403,5.6569,5.5375,5.5204,5.5053,5.4901,0.0,0.0,0.0,0.0,0.0,0.0,0.0,0.0,1.9848,1.9955,2.0503,2.0991,2.13,2.2006,2.2946,2.4161,2.5141,2.61,2.7048,2.7823,2.8983,3.0685,3.0871,3.217,3.4802,3.5989,3.6914,3.7604,3.9689,4.1008,4.1585,4.2609,4.3561,4.4418,4.4274,4.4248,4.4244,4.4085,4.4005,4.4005,4.4005,4.3989,4.3846,4.2933,4.0877,3.8486,3.8393,3.6846,3.4972,3.5809,3.6032,3.6006,3.6203,3.6754,3.7484,3.8305,3.8634,3.9069,4.0619,4.1072,4.1387,4.2517,4.2808,4.3123,0.0,4.4777,4.5117,4.5817,4.6694,4.7547,4.8235,4.918,4.9846,4.9846,4.9993,5.0089,5.0089,5.0158,5.0468,5.1237,5.1288,5.1281,5.1396,5.2806,5.376,5.3836,5.4626,5.5129,5.5224,5.5224,5.5217,5.5183,5.517,5.5155,5.5087,5.508,5.5472,5.6233,5.6275,5.6663,5.7358,5.7385,5.7403,5.7403,5.7403,5.7403,5.7403,5.7403,5.7403,5.7403,5.7403,5.7289,5.7024,5.6323,5.5564,5.4901,0.0,0.0,0.0,0.0,0.0,0.0,0.0,0.0,0.0,1.9955,2.0597,2.1134,2.1424,2.2285,2.3298,2.4391,2.4881,2.5643,2.6913,2.7411,2.8426,3.0132,3.0945,3.2379,3.4544,3.5669,3.6908,3.8231,3.9609,4.0657,4.1387,4.2234,4.3081,4.3909,4.3736,4.3905,4.4292,4.4207,4.4116,4.3968,4.3485,4.3066,4.2668,4.2347,4.0595,3.8384,3.8656,3.7702,0.0,3.6854,3.7003,3.7102,3.762,3.8022,3.8466,3.9316,3.9693,4.0152,4.1513,4.2592,4.3339,4.3396,4.4133,4.5009,4.5546,4.6411,4.7213,4.7574,4.8294,4.8989,4.9389,4.9738,5.0018,5.0057,5.0101,5.0164,5.0164,5.0644,5.1179,5.1678,5.2559,5.3098,5.2972,5.3633,5.4276,5.4772,5.5173,5.5396,5.5396,5.5396,5.5364,5.5326,5.5248,5.5196,5.5162,5.5616,5.6052,5.6414,5.7367,5.7999,5.8334,5.8733,5.8899,5.8851,5.8851,5.8851,5.8851,5.8851,5.8851,5.8851,5.8851,5.8567,5.8055,5.7213,5.6664,5.6341,0.0,0.0,0.0,0.0,0.0,0.0,0.0,0.0,0.0,0.0,2.063,2.1205,2.1694,2.251,2.3342,2.4146,2.4515,2.5265,2.6574,2.7019,2.7967,2.9646,3.0662,3.2056,3.3958,3.5026,3.6351,3.8007,3.8831,3.9659,4.0531,4.1223,4.2032,4.2862,4.2918,4.3212,4.3709,4.363,4.3401,4.304,4.2426,4.1758,4.1168,4.1169,4.0113,3.8714,3.9295,3.8702,3.7739,3.8334,3.8388,3.8332,3.9197,3.929,3.9271,4.0151,4.073,4.1343,4.2462,4.3638,4.4535,4.4421,4.5464,4.6588,4.6834,4.7991,4.904,4.904,4.9508,4.9933,4.9998,5.0037,5.0076,5.0126,5.0169,5.0237,5.0237,5.1017,5.1752,5.2178,5.3506,5.4446,5.4574,5.4601,5.485,5.5497,5.5535,5.5535,5.5535,5.5489,5.5483,5.5535,5.5395,5.5345,5.5399,5.5925,5.6421,5.6879,5.8027,5.8682,5.8948,5.9209,5.9303,5.9248,5.9251,5.9376,5.9603,5.9579,5.9704,5.9893,5.9893,5.9533,5.8946,5.832,5.7801,5.7403,0.0,0.0,0.0,0.0,0.0,0.0,0.0,0.0,0.0,0.0,0.0,0.0,0.0,2.2636,2.2991,2.3483,2.426,2.5009,2.58,2.6574,2.7838,2.9717,2.9842,3.0919,3.3181,3.4037,3.5045,3.6277,3.7073,3.7926,3.8784,3.9597,4.0425,4.1296,4.1937,4.2247,4.2247,4.1986,4.147,4.0796,4.0626,4.0179,3.9564,3.9565,3.9533,3.9577,4.0447,3.9683,3.8544,4.0294,4.0336,3.9818,4.081,4.056,4.0043,4.0901,4.1726,4.2547,4.3411,4.3701,4.4118,4.571,4.6759,4.7574,4.8426,4.9267,4.9848,4.9848,4.994,5.0005,5.0005,5.012,5.0188,5.0207,5.0261,5.0296,5.0296,5.1041,5.1963,5.2956,5.3853,5.4776,5.5741,5.5855,5.5855,5.5874,5.5874,5.5874,5.5874,5.5691,5.5676,5.5885,5.5686,5.5676,5.5889,5.572,5.6437,5.8041,5.7844,5.817,5.8971,5.8077,5.7672,5.7672,5.7605,5.8057,5.8828,5.8769,5.9192,5.9893,5.9893,5.9893,5.9856,5.9837,5.8794,5.7403,0.0,0.0,0.0,0.0,0.0,0.0,0.0,0.0,0.0,0.0,0.0,0.0,0.0,0.0,0.0,0.0,2.3812,2.4295,2.5082,2.5894,2.6858,2.8021,2.9399,3.0513,3.1327,3.2442,3.351,3.4529,3.4813,3.5652,3.7059,3.732,3.8186,3.9556,3.9778,4.0121,4.0537,4.0434,4.0209,3.9852,3.9264,3.8614,3.805,3.8619,3.8526,3.8291,0.0,3.9775,3.9344,4.0032,4.0091,3.9888,4.023,4.0146,4.0071,4.0948,4.2558,4.401,4.383,4.5379,4.7087,4.7068,4.8093,4.9181,4.9444,4.9722,4.9899,4.9965,4.9973,5.0037,5.0126,5.0163,5.0206,5.0267,5.029,5.0359,5.048,5.1591,5.2642,5.3356,5.4587,5.5635,5.6241,5.6067,5.5911,5.5911,5.5911,5.5911,5.5911,5.583,5.5825,5.5907,5.583,5.5825,5.5907,5.6409,5.6883,5.7308,5.7743,5.8105,5.833,5.815,5.7968,5.7792,5.7773,5.7867,5.8041,5.8562,5.893,5.9215,5.9709,5.9893,5.9893,5.9893,5.9533,5.9059,0.0,0.0,0.0,0.0,0.0,0.0,0.0,0.0,0.0,0.0,0.0,0.0,0.0,0.0,0.0,0.0,0.0,2.3935,2.4746,2.529,2.6081,2.7191,2.8602,2.9571,2.9993,3.1173,3.2123,3.2804,3.3089,3.379,3.4851,3.5159,3.6031,3.7363,3.7666,3.8207,3.8876,3.8831,3.8786,3.8683,3.7814,3.7401,3.7322,3.7886,3.8015,0.0,3.9413,3.9837,3.9825,4.0238,4.0165,3.9957,4.026,4.0355,4.0607,4.1772,4.3465,4.5038,4.5503,4.7181,4.8739,4.8498,4.9226,4.9979,4.9985,4.9978,4.9992,5.0031,5.0044,5.0108,5.0175,5.0289,5.0321,5.0308,5.0357,5.0448,5.0572,5.1929,5.3083,5.3544,5.5026,5.6148,5.6472,5.628,5.6111,5.6111,5.6111,5.6111,5.6111,5.6059,5.6032,5.6111,5.6036,5.6036,5.6111,5.6595,5.6902,5.7007,5.7527,5.7757,5.7714,5.753,5.7346,5.7173,5.7156,5.7216,5.7343,5.7846,5.837,5.8874,5.9329,5.9668,5.9934,5.9902,5.9893,5.9893,0.0,0.0,0.0,0.0,0.0,0.0,0.0,0.0,0.0,0.0,0.0,0.0,0.0,0.0,0.0,0.0,0.0,0.0,2.4703,2.4799,2.5535,2.7163,2.7547,2.8208,2.9275,3.0304,3.0936,3.1132,3.1909,3.2288,3.2364,3.3183,3.4036,3.487,3.5709,3.6524,3.7258,3.7144,3.7159,3.7196,3.6307,3.6479,3.7282,3.732,3.7874,3.8746,3.9545,3.9862,4.0033,4.0853,4.0582,4.0033,4.0872,4.1194,4.159,4.3303,4.4427,4.5693,4.8211,4.8884,4.9068,4.9905,5.0063,5.0031,5.0089,5.0101,5.0101,5.0108,5.0164,5.0194,5.02,5.0426,5.0541,5.0359,5.0485,5.0611,5.062,5.2059,5.325,5.3582,5.5155,5.6285,5.6476,5.6507,5.6507,5.6507,5.6507,5.6507,5.6507,5.6311,5.6303,5.6483,5.6308,5.6306,5.6505,5.63,5.6511,5.7157,5.7157,5.7157,5.7119,5.63,5.5932,5.59,5.5846,5.6169,5.6754,5.6717,5.7531,5.8781,5.8806,5.9261,5.9937,5.9915,5.9902,5.9902,0.0,0.0,0.0,0.0,0.0,0.0,0.0,0.0,0.0,0.0,0.0,0.0,0.0,0.0,0.0,0.0,0.0,0.0,2.4032,2.4615,2.5416,2.6446,2.7312,2.824,2.9275,2.9714,3.0023,3.0238,3.0446,3.0863,3.1511,3.1739,3.2615,3.4017,3.4245,3.4775,3.5533,3.5504,3.5509,3.5514,3.5277,3.532,3.5609,3.6258,3.7016,3.7831,3.8703,3.9399,3.9938,4.0165,4.0089,3.9938,4.0165,4.1127,4.2391,4.3491,4.5292,4.7241,4.8588,4.9395,4.9897,5.0125,5.0151,5.0132,5.0108,5.0101,5.0114,5.0151,5.0182,5.0225,5.0273,5.0453,5.0572,5.0536,5.0647,5.0793,5.0944,5.233,5.3445,5.3774,5.5222,5.6285,5.6476,5.6507,5.6507,5.6507,5.6507,5.6507,5.6507,5.6443,5.6441,5.6505,5.6443,5.6441,5.6507,5.63,5.6291,5.6448,5.6448,5.6448,5.6451,5.6383,5.6277,5.6118,5.6111,5.611,5.6165,5.6599,5.6998,5.743,5.8473,5.9003,5.925,5.9836,6.0018,5.9963,0.0,0.0,0.0,0.0,0.0,0.0,0.0,0.0,0.0,0.0,0.0,0.0,0.0,0.0,0.0,0.0,0.0,0.0,0.0,2.4221,2.4824,2.5637,2.6359,2.7335,2.8614,2.8928,2.9295,2.976,2.9859,3.0143,3.0635,3.0635,3.1341,3.2615,3.2975,3.36,3.4396,3.4756,3.5116,0.0,0.0,3.5344,3.6012,3.6145,3.6694,3.7509,3.8386,3.921,3.99,3.99,3.99,3.99,3.99,4.1106,4.2756,4.4011,4.5921,4.7935,4.9226,4.9874,5.02,5.0249,5.0212,5.0207,5.0194,5.0188,5.0201,5.0243,5.0236,5.0261,5.0296,5.0503,5.0675,5.0606,5.0781,5.0962,5.1074,5.2479,5.3579,5.3873,5.5341,5.6385,5.6481,5.6507,5.6507,5.6507,5.6507,5.6507,5.6507,5.6836,5.7031,5.7031,5.7401,5.7401,5.7031,5.6565,5.6339,5.6339,5.6339,5.6339,5.6342,5.6441,5.6437,5.6339,5.6339,5.6226,5.6048,5.6295,5.6582,5.6915,5.7578,5.8296,5.9001,5.9421,5.9764,6.0049,0.0,0.0,0.0,0.0,0.0,0.0,0.0,0.0,0.0,0.0,0.0,0.0,0.0,0.0,0.0,0.0,0.0,0.0,0.0,0.0,2.4158,2.4961,2.5218,2.6075,2.7614,2.8085,2.8684,2.9401,2.9677,2.9839,2.9859,2.9859,3.0349,3.1227,3.1928,3.2724,3.3581,3.4396,3.5178,3.5803,3.5154,3.5761,3.6997,0.0,3.6524,3.7377,3.8348,3.9158,3.9767,3.9862,3.99,3.99,3.99,4.1106,4.2854,4.4594,4.634,4.8088,4.9826,5.0261,5.0237,5.029,5.0261,5.0237,5.029,5.0302,5.0302,5.0302,5.0302,5.0302,5.0302,5.0558,5.0737,5.0634,5.0894,5.1108,5.1125,5.2475,5.3566,5.3862,5.5333,5.6368,5.6487,5.6507,5.6507,5.6507,5.6507,5.6507,5.6507,5.7265,5.7752,5.7869,5.8492,5.8453,5.7713,5.6894,5.6507,5.6507,5.6507,5.6507,5.6507,5.6507,5.6507,5.6507,5.6507,5.639,5.6185,5.5986,5.6237,5.6703,5.6575,5.7479,5.8871,5.8913,5.9436,6.0133,0.0,0.0,0.0,0.0,0.0,0.0,0.0,0.0,0.0,0.0,0.0,0.0,0.0,0.0,0.0,0.0,0.0,0.0,0.0,0.0,0.0,2.4966,2.5034,2.5612,2.6775,2.7535,2.8053,2.836,2.9065,2.9494,2.9653,2.9653,3.0214,3.1208,3.136,3.1852,3.2686,3.3543,3.3998,3.4188,3.468,3.5078,3.5325,3.5173,0.0,0.0,3.8159,3.8784,3.9007,3.9678,3.99,3.99,3.99,4.1119,4.2909,4.4606,4.6374,4.8145,4.9838,5.0296,5.029,5.0296,5.0296,5.029,5.0296,5.0302,5.0302,5.0302,5.0302,5.0302,5.0302,5.0471,5.0666,5.0753,5.0942,5.1136,5.1245,5.2135,5.3055,5.381,5.4805,5.5704,5.6427,5.6507,5.6507,5.6507,5.6507,5.6507,5.6507,5.7265,5.8024,5.8745,5.8219,5.7849,5.7693,5.6894,5.6507,5.6507,5.6507,5.6507,5.6507,5.6507,5.6507,5.6507,5.6507,5.639,5.6185,5.5986,5.5875,5.5888,5.6378,5.7198,5.8172,5.8819,5.9579,6.0264,0.0,0.0,0.0,0.0,0.0,0.0,0.0,0.0,0.0,0.0,2.0942,2.1395,0.0,0.0,0.0,0.0,0.0,0.0,0.0,0.0,0.0,0.0,0.0,0.0,2.5756,2.6245,2.6977,2.7938,0.0,2.8937,2.945,2.9556,2.9865,3.0388,3.0957,3.1417,3.1833,3.2667,3.3297,3.3733,3.4112,3.4529,3.4908,0.0,0.0,0.0,3.7116,3.7969,3.8765,3.9158,3.9545,3.99,3.99,4.1128,4.2881,4.46,4.6357,4.8117,4.9832,5.0302,5.0302,5.0302,5.0302,5.0302,5.0302,5.0302,5.0302,5.0302,5.0302,5.0302,5.0302,5.0458,5.0639,5.0786,5.0978,5.1145,5.1286,5.2058,5.276,5.3169,5.4396,5.5195,5.5158,5.5979,5.631,5.586,5.6232,5.6507,5.6507,5.7693,5.8979,6.0302,5.9077,5.8375,5.8375,5.7128,5.6507,5.6507,5.6507,5.6507,5.6507,5.6507,5.6507,5.6507,5.6507,5.6441,5.6339,5.6021,5.5839,5.5779,5.5922,5.6492,5.7332,5.8173,5.8986,5.9734,0.0,0.0,0.0,0.0,0.0,0.0,0.0,1.9367,1.9914,2.0243,2.0828,2.1246,2.1355,2.1533,0.0,0.0,0.0,0.0,0.0,0.0,0.0,0.0,0.0,0.0,2.4703,0.0,0.0,2.7174,2.7669,0.0,0.0,0.0,0.0,0.0,3.0557,3.0924,3.0977,3.1756,3.2503,0.0,0.0,3.4041,3.4661,0.0,0.0,0.0,0.0,3.7154,3.8443,3.8633,3.9229,3.99,3.99,4.0973,4.2615,4.4537,4.6207,4.7859,4.9788,5.0302,5.0302,5.0302,5.0302,5.0302,5.0302,5.0302,5.0302,5.0302,5.0302,5.0302,5.0302,5.044,5.0572,5.0728,5.0914,5.1089,5.1239,5.1873,5.2389,5.2584,5.3968,5.4649,5.3968,5.5472,5.6134,5.5273,5.6018,5.6663,5.7011,5.8278,5.9798,6.1549,5.9914,5.8999,5.8999,5.7342,5.6507,5.6507,5.6507,5.6507,5.6507,5.6507,5.6507,5.6505,5.6446,5.6403,5.6347,5.6025,5.5863,5.5779,5.5527,5.5913,5.6708,5.7581,5.8421,5.9217,0.0,0.0,0.0,0.0,0.0,0.0,0.0,1.9049,1.9573,1.9899,2.0464,2.0966,2.127,2.1387,0.0,0.0,0.0,0.0,0.0,0.0,0.0,0.0,0.0,0.0,0.0,0.0,0.0,2.5179,2.6598,0.0,0.0,0.0,0.0,0.0,0.0,3.0029,3.0055,3.0753,0.0,0.0,0.0,0.0,0.0,0.0,0.0,0.0,0.0,3.677,3.7642,3.8424,3.9229,3.99,3.99,4.0594,4.1893,4.4366,4.5818,4.7152,4.9635,5.0302,5.0302,5.0302,5.0302,5.0302,5.0302,5.0302,5.0302,5.0302,5.0302,5.0302,5.0302,5.0319,5.0396,5.0587,5.0743,5.0911,5.1083,5.1286,5.1708,5.2506,5.3442,5.3987,5.3909,5.5472,5.6134,5.5273,5.6018,5.7167,5.8687,5.8921,5.9798,6.1549,5.9914,5.8999,5.8999,5.7342,5.6507,5.6507,5.6507,5.6507,5.6507,5.6507,5.6507,5.6481,5.6306,5.6121,5.5957,5.5924,5.5715,5.5453,5.5546,5.5995,5.6708,5.7581,5.8421,5.9217,0.0,0.0,0.0,0.0,0.0,0.0,0.0,1.9011,1.9518,1.9864,2.0437,2.0933,2.1254,2.1324,2.1379,0.0,0.0,0.0,0.0,0.0,0.0,0.0,0.0,0.0,0.0,0.0,2.4369,2.4905,2.5517,0.0,0.0,0.0,0.0,0.0,0.0,2.9673,2.9792,3.0058,0.0,0.0,0.0,0.0,0.0,0.0,0.0,0.0,0.0,0.0,3.6581,3.7582,3.8476,3.9267,3.9748,4.0163,4.1065,4.4184,4.5732,4.6992,4.9591,5.0302,5.0302,5.0302,5.0302,5.0302,5.0302,5.0302,5.0302,5.0302,5.0302,5.0302,5.0302,5.0302,5.0363,5.0576,5.0718,5.087,5.1065,5.122,5.1437,5.1785,5.2584,5.2916,5.2389,5.4398,5.5782,5.5976,5.629,5.6992,5.8161,5.8706,5.9564,6.0769,5.9642,5.8745,5.8219,5.707,5.6507,5.6507,5.6507,5.6507,5.6507,5.6507,5.6507,5.6481,5.6291,5.621,5.6242,5.5998,5.5889,5.5864,5.568,5.5764,5.6154,5.743,5.8096,5.8574,0.0,0.0,0.0,0.0,0.0,0.0,1.8547,1.8941,1.94,1.9897,2.0345,2.0795,2.1246,2.1293,2.1317,2.1379,0.0,0.0,0.0,0.0,0.0,0.0,0.0,0.0,0.0,0.0,2.3864,2.4483,2.4716,2.5433,0.0,0.0,2.7971,2.868,0.0,0.0,0.0,0.0,0.0,0.0,0.0,0.0,0.0,0.0,0.0,0.0,0.0,0.0,0.0,0.0,0.0,3.8841,3.9659,3.99,4.0534,4.3792,4.5354,4.6595,4.9228,5.0111,5.0302,5.0302,5.0302,5.0302,5.0302,5.0302,5.0302,5.0302,5.0302,5.0302,5.0302,5.0302,5.0359,5.049,5.0664,5.0855,5.0995,5.1184,5.13,5.13,5.2078,5.2253,5.1376,5.3422,5.5275,5.6427,5.6507,5.6855,5.7654,5.8278,5.9018,5.9895,5.933,5.8589,5.7713,5.6894,5.6507,5.6507,5.6507,5.6507,5.6507,5.6507,5.6507,5.6498,5.6213,5.6233,5.639,5.6036,5.5957,5.6005,5.5774,5.5623,5.5729,5.7328,5.7905,5.8135,0.0,0.0,0.0,0.0,0.0,0.0,0.0,1.876,1.9119,1.9986,2.0163,2.0496,2.1222,2.1293,2.1293,2.1293,0.0,0.0,0.0,0.0,0.0,0.0,0.0,0.0,0.0,0.0,2.3505,2.3505,2.432,2.4841,2.5155,2.676,2.7643,2.7954,0.0,0.0,0.0,0.0,0.0,0.0,0.0,0.0,0.0,0.0,0.0,0.0,0.0,0.0,0.0,0.0,0.0,0.0,0.0,3.99,4.0439,4.3115,4.4472,4.5706,4.8375,4.9691,5.0302,5.0302,5.0302,5.0302,5.0302,5.0302,5.0302,5.0302,5.0302,5.0302,5.0302,5.0302,5.0302,5.0302,5.0572,5.0798,5.0798,5.1098,5.13,5.13,5.2078,5.2253,5.1376,5.2896,5.4632,5.637,5.6507,5.6855,5.7654,5.7713,5.8102,5.8999,5.8999,5.8589,5.7713,5.6894,5.6507,5.6507,5.6507,5.6507,5.6507,5.6507,5.6507,5.6476,5.6082,5.6013,5.6185,5.5986,5.5779,5.5639,5.5816,5.5698,5.5613,5.7275,5.7905,5.8135,0.0,0.0,0.0,0.0,0.0,0.0,0.0,1.8764,1.9006,1.9606,1.9997,2.0388,2.0909,2.1159,2.1293,2.1293,0.0,0.0,0.0,0.0,0.0,0.0,0.0,0.0,0.0,0.0,2.3505,2.3505,2.3755,2.4194,2.4847,2.5859,2.6742,2.753,2.8318,2.888,0.0,0.0,0.0,0.0,0.0,0.0,3.1507,0.0,0.0,0.0,0.0,0.0,0.0,0.0,0.0,0.0,0.0,0.0,0.0,4.2338,4.3963,4.5687,4.8369,4.9691,5.0302,5.0302,5.0302,5.0302,5.0302,5.0302,5.0302,5.0302,5.0302,5.0335,5.048,5.0396,5.0354,5.048,5.0678,5.0794,5.0794,5.1095,5.13,5.13,5.1532,5.2078,5.2993,5.3578,5.4613,5.637,5.6507,5.6604,5.6875,5.7401,5.783,5.8102,5.8102,5.7713,5.6894,5.6624,5.6507,5.6507,5.6507,5.6507,5.6507,5.6507,5.6507,5.6498,5.623,5.6226,5.6393,5.6188,5.6158,5.6194,5.5986,5.5835,5.5839,5.6702,5.7396,5.8039,0.0,0.0,0.0,0.0,0.0,0.0,0.0,1.8736,1.8936,1.9439,1.9892,2.0333,2.0753,2.1103,2.1293,2.1293,0.0,0.0,0.0,0.0,0.0,0.0,0.0,0.0,0.0,2.336,2.3505,2.3505,2.3505,2.3755,2.4278,2.5313,2.6131,2.6776,2.789,2.8581,0.0,0.0,0.0,0.0,0.0,0.0,3.0579,0.0,0.0,0.0,0.0,0.0,0.0,0.0,0.0,0.0,0.0,0.0,0.0,0.0,4.3715,4.5584,4.7928,4.9425,5.0296,5.0273,5.0284,5.0296,5.0273,5.0284,5.0302,5.0302,5.0302,5.0348,5.0458,5.0456,5.0448,5.0586,5.0772,5.0902,5.0902,5.1141,5.13,5.13,5.1591,5.2351,5.3753,5.4201,5.4983,5.6388,5.6507,5.6507,5.6507,5.6661,5.6914,5.7245,5.7537,5.7304,5.6507,5.6507,5.6507,5.6507,5.6507,5.6507,5.6507,5.6507,5.6507,5.6481,5.6291,5.6308,0.0,5.6288,5.6263,5.6352,5.6025,5.5848,5.5861,5.6407,5.7148,5.802,0.0,0.0,0.0,0.0,0.0,0.0,0.0,0.0,0.0,0.0,1.9794,2.023,2.0703,2.1055,2.1262,0.0,0.0,0.0,0.0,0.0,0.0,0.0,0.0,0.0,0.0,2.3336,2.3494,2.3505,2.3505,2.3523,2.3612,2.5116,2.583,2.5955,2.75,2.8307,0.0,0.0,0.0,0.0,0.0,0.0,0.0,0.0,0.0,0.0,0.0,0.0,0.0,0.0,0.0,0.0,0.0,0.0,0.0,0.0,0.0,0.0,0.0,4.897,5.0278,5.0225,5.0255,5.0278,5.0206,5.0255,0.0,5.0302,5.0302,5.0308,5.0325,5.0469,5.0596,5.0611,5.0886,5.1102,5.1102,5.122,5.13,5.13,5.2078,5.2935,5.3812,5.4688,5.5567,5.6427,5.6507,5.6468,5.6407,5.5645,5.5548,5.629,5.7109,5.7187,5.6507,5.6507,5.6507,5.6507,5.6507,5.6507,5.6507,5.6507,5.6507,5.6481,5.6303,5.6336,5.6498,5.63,5.623,5.6194,5.5986,5.5784,5.5698,5.6294,5.7071,5.7925,0.0,0.0,0.0,0.0,0.0,0.0,0.0,0.0,0.0,0.0,0.0,1.9794,2.0222,2.0662,0.0,0.0,0.0,0.0,0.0,0.0,0.0,0.0,0.0,0.0,0.0,2.3109,2.3407,2.3505,2.3505,2.3808,2.4438,2.5366,2.6139,2.6753,2.775,2.8307,2.8499,0.0,0.0,0.0,0.0,0.0,0.0,0.0,0.0,0.0,3.3776,3.4321,0.0,0.0,0.0,0.0,0.0,0.0,0.0,0.0,4.364,4.5375,4.7151,0.0,5.0212,5.02,5.0206,5.0212,0.0,5.0206,5.0249,5.029,5.0302,5.0359,5.05,5.0576,5.0625,5.0732,5.0954,5.1102,5.1102,5.122,5.13,5.13,5.2078,5.2935,5.3812,5.4688,5.5567,5.6427,5.6507,5.6212,5.5546,5.5312,5.4981,5.4535,5.5331,5.6015,5.6507,5.6507,5.6507,5.6507,5.6507,5.6507,5.6507,5.6507,5.6507,5.6505,5.6443,5.6465,5.6505,5.6443,5.6432,5.6395,5.6032,5.5865,5.5822,5.5723,5.6205,5.7033,0.0,0.0,0.0,0.0,0.0,0.0,0.0,0.0,0.0,0.0,0.0,0.0,0.0,0.0,0.0,0.0,0.0,0.0,0.0,0.0,0.0,0.0,0.0,0.0,2.2409,2.283,2.3151,2.3313,2.3372,2.3815,2.4627,2.543,2.6229,2.7038,2.7846,2.8307,2.8486,2.8406,2.8419,0.0,2.8463,0.0,0.0,0.0,0.0,0.0,3.3967,3.4465,0.0,3.672,3.7395,3.7699,0.0,0.0,0.0,0.0,4.3611,4.5334,4.7108,4.8874,5.0188,5.0151,5.0188,5.0188,5.0151,5.0188,5.0212,5.029,5.0302,5.0357,5.0552,5.0648,5.0748,5.0914,5.1089,5.1184,5.1184,5.125,5.1456,5.1844,5.2662,5.3539,5.4416,5.5275,5.5996,5.6468,5.6507,5.6115,5.5253,5.4825,5.4396,5.3909,5.3968,5.4611,5.5899,5.629,5.6507,5.6507,5.6507,5.6507,5.6507,5.6507,5.6507,5.6507,5.6507,5.6507,5.6507,5.6507,5.6507,5.6468,5.6067,5.5911,5.5863,5.5511,5.5919,5.6728,0.0,0.0,0.0,0.0,0.0,0.0,0.0,0.0,0.0,0.0,0.0,0.0,0.0,0.0,0.0,0.0,0.0,0.0,0.0,0.0,0.0,0.0,0.0,2.2025,2.2289,2.263,2.291,2.3138,2.3377,2.3903,2.4719,2.559,2.6407,2.721,2.7892,2.828,2.8434,2.8277,2.8304,2.8434,2.8333,0.0,0.0,0.0,0.0,0.0,0.0,0.0,0.0,3.6746,3.7395,3.7699,3.937,0.0,0.0,0.0,0.0,0.0,4.7109,4.8886,5.0212,5.0126,5.0145,5.0169,5.0151,5.0169,5.0224,5.0337,5.0354,5.0402,5.0576,5.0735,5.0891,5.1065,5.1218,5.13,5.13,5.13,5.161,5.2506,5.3364,5.424,5.5117,5.5996,5.6507,5.6507,5.6507,5.6057,5.5059,5.4299,5.3773,5.3519,5.2916,5.3305,5.4786,5.5665,5.6173,5.629,5.629,5.6368,5.6507,5.6507,5.6507,5.6507,5.6507,5.6507,5.6507,5.6507,5.6507,5.647,5.6093,5.5936,5.5867,5.5558,5.5855,5.6556,0.0,0.0,0.0,0.0,0.0,0.0,0.0,0.0,0.0,0.0,0.0,0.0,0.0,0.0,0.0,0.0,0.0,0.0,0.0,0.0,0.0,0.0,2.1742,2.2053,2.2213,2.2664,2.3003,2.3271,2.3979,2.4756,2.5626,2.6436,2.7246,2.8017,2.8142,2.8216,2.8243,2.8202,2.8216,2.8243,2.8223,0.0,0.0,0.0,0.0,0.0,0.0,0.0,0.0,3.6699,3.7395,3.7699,3.937,0.0,0.0,0.0,0.0,0.0,4.7042,4.8907,5.033,5.0145,5.0108,5.0157,5.0325,5.0281,5.0271,5.0511,5.0542,5.0552,5.0587,5.0852,5.1062,5.1099,5.1218,5.13,5.13,5.13,5.161,5.2506,5.3364,5.424,5.5117,5.5996,5.6507,5.6507,5.6507,5.5803,5.4182,5.3968,5.3227,5.1747,5.2292,5.2721,5.2993,5.3851,5.4669,5.539,5.539,5.5782,5.6507,5.6507,5.6507,5.6507,5.6507,5.6507,5.6507,5.6507,5.6507,5.6476,5.6245,5.604,5.5865,5.5649,5.5575,5.5797,0.0,0.0,0.0,0.0,0.0,0.0,0.0,0.0,0.0,0.0,0.0,0.0,0.0,0.0,0.0,0.0,0.0,0.0,0.0,0.0,0.0,2.1293,2.1655,2.1911,2.2096,2.2531,2.3054,2.3721,2.4242,2.5127,2.6363,2.7248,2.7846,2.8196,2.8196,2.8196,2.8196,2.8196,2.8264,2.836,0.0,0.0,0.0,0.0,0.0,0.0,0.0,0.0,0.0,0.0,3.7395,3.7699,3.937,0.0,0.0,0.0,0.0,0.0,4.7024,4.8788,5.0149,5.0239,5.0336,5.044,5.0539,5.0505,5.0519,5.0683,5.0713,5.0739,5.0852,5.1001,5.1125,5.1206,5.1254,5.13,5.13,5.13,5.1805,5.3149,5.3656,5.4435,5.5762,5.6251,5.6507,5.6507,5.6507,5.5745,5.3987,5.3909,5.3091,5.1359,5.1688,5.1902,5.1902,5.2292,5.3169,5.4494,5.4494,5.4942,5.5801,5.5801,5.6057,5.6507,5.6507,5.6507,5.6507,5.6507,5.6507,5.6476,5.6285,5.6135,5.6021,5.5711,5.6084,5.6855,0.0,0.0,0.0,0.0,0.0,0.0,0.0,0.0,0.0,0.0,0.0,0.0,0.0,0.0,0.0,0.0,0.0,0.0,0.0,0.0,2.1293,2.1293,2.1602,2.1855,2.2039,2.2583,2.3296,2.4193,2.4752,2.5759,2.714,2.7851,2.8196,2.8196,2.8196,2.8196,2.8196,2.825,2.8353,2.851,0.0,0.0,0.0,0.0,0.0,0.0,0.0,0.0,0.0,0.0,0.0,0.0,0.0,0.0,0.0,4.1914,4.3587,4.5286,4.7005,4.8732,5.0106,5.0376,5.0539,5.0651,5.0743,5.0743,5.0743,5.0855,5.087,5.0925,5.1065,5.1125,5.1174,5.1288,5.13,5.13,5.13,5.13,5.1941,5.3695,5.3909,5.4574,5.6329,5.6507,5.6507,5.6507,5.6507,5.5745,5.3987,5.3909,5.3091,5.1359,5.13,5.13,5.13,5.13,5.2078,5.3597,5.3597,5.4046,5.4903,5.5117,5.5567,5.6212,5.6407,5.6507,5.6507,5.6507,5.6507,5.6479,5.6339,5.6242,5.6142,5.575,5.6604,5.7934,0.0,0.0,0.0,0.0,0.0,0.0,0.0,0.0,0.0,0.0,0.0,0.0,0.0,0.0,0.0,0.0,0.0,0.0,0.0,0.0,2.1293,2.1293,2.1744,2.2039,2.2178,2.3126,2.3903,2.4462,2.5917,2.7136,2.811,2.8171,2.8196,2.8196,2.8196,2.8196,2.8202,2.84,2.8497,2.8564,2.9304,0.0,0.0,0.0,0.0,0.0,0.0,0.0,0.0,0.0,0.0,0.0,0.0,0.0,4.0222,4.1914,4.3587,4.5274,4.6948,4.8909,5.0476,5.0555,5.0491,5.0514,5.0895,5.0888,5.0851,5.1043,5.109,5.1071,5.1099,5.1191,5.1292,5.1298,5.13,5.13,5.13,5.13,5.1941,5.3695,5.3909,5.4574,5.6329,5.6507,5.6507,5.6507,5.6507,5.5745,5.3987,5.3909,5.3091,5.1359,5.13,5.13,5.13,5.13,5.1766,5.2682,5.2682,5.3149,5.4026,5.4825,5.5234,5.5331,5.6154,5.6507,5.6507,5.6507,5.6507,5.6505,5.6479,5.6358,5.6142,5.575,5.6648,5.8058,0.0,0.0,0.0,0.0,0.0,0.0,0.0,0.0,0.0,0.0,0.0,0.0,0.0,0.0,0.0,0.0,0.0,0.0,0.0,0.0,2.1364,2.1533,2.2167,2.27,2.3119,2.3749,2.4677,2.5923,2.7097,2.7851,2.8196,2.8196,2.8196,2.8213,2.8327,2.8324,2.8209,2.8419,2.8781,2.9288,2.9805,3.0937,0.0,0.0,0.0,0.0,0.0,0.0,0.0,0.0,3.7756,3.84,3.9545,4.0279,4.0929,4.2066,4.3966,4.5956,4.71,4.8865,5.0415,5.0555,5.0694,5.0855,5.1116,5.1152,5.1122,5.1201,5.1227,5.1227,5.1227,5.1278,5.13,5.13,5.13,5.13,5.13,5.13,5.1941,5.3695,5.3909,5.4574,5.6329,5.6507,5.6507,5.6507,5.6507,5.5745,5.3987,5.3909,5.3091,5.1359,5.13,5.13,5.13,5.13,5.1476,5.1785,5.1785,5.2253,5.311,5.3987,5.4688,5.5253,5.6115,5.6507,5.6507,5.6507,5.6507,5.6507,5.6507,5.6385,5.6181,5.6029,5.6869,5.8085,0.0,0.0,0.0,0.0,0.0,0.0,0.0,0.0,0.0,0.0,0.0,0.0,0.0,0.0,0.0,0.0,0.0,0.0,0.0,2.1528,2.1737,2.1908,2.2778,2.358,2.4284,2.4777,2.5608,2.6809,2.7749,2.8196,2.8196,2.8196,2.8196,2.8202,2.834,2.836,2.8336,2.884,2.9385,3.0025,3.0771,3.1846,0.0,0.0,0.0,0.0,0.0,0.0,0.0,0.0,3.7988,3.8841,3.9659,4.0506,4.1364,4.216,4.4223,4.6446,4.7306,4.8955,5.0504,5.0674,5.0896,5.1098,5.1261,5.13,5.13,5.13,5.13,5.13,5.13,5.13,5.13,5.13,5.13,5.13,5.13,5.13,5.1844,5.3325,5.3734,5.4474,5.5959,5.6349,5.6507,5.6507,5.6507,5.5745,5.3987,5.3909,5.3091,5.1359,5.13,5.13,5.13,5.13,5.13,5.13,5.13,5.161,5.2214,5.3091,5.3968,5.4844,5.5704,5.6251,5.6507,5.6507,5.6507,5.6507,5.6507,5.6425,5.6291,5.621,5.7083,5.8268,0.0,0.0,0.0,0.0,0.0,0.0,0.0,0.0,0.0,0.0,0.0,0.0,0.0,0.0,0.0,0.0,0.0,0.0,2.1309,2.1989,2.2418,2.2418,2.3562,2.4657,2.5573,2.6278,2.6676,2.6817,2.7735,2.8196,2.8196,2.8196,2.8196,2.8196,2.8196,2.8324,2.8597,2.9722,3.0313,3.065,3.2335,3.309,3.33,0.0,0.0,0.0,0.0,0.0,0.0,0.0,3.7988,3.886,3.9659,4.0506,4.1364,4.2179,4.4321,4.6609,4.755,4.9269,5.0824,5.0962,5.1109,5.1223,5.1271,5.13,5.13,5.13,5.13,5.13,5.13,5.13,5.13,5.13,5.13,5.13,5.13,5.13,5.161,5.2506,5.3364,5.4221,5.5117,5.5976,5.6487,5.6507,5.6507,5.5745,5.3987,5.3909,5.3091,5.1359,5.13,5.13,5.13,5.13,5.13,5.13,5.13,5.13,5.1339,5.2195,5.3071,5.3948,5.4825,5.5684,5.6507,5.6507,5.6507,5.6507,5.6507,5.6507,5.6474,5.6285,5.7259,5.8644,0.0,0.0,0.0,0.0,0.0,0.0,0.0,0.0,0.0,0.0,0.0,0.0,0.0,0.0,0.0,0.0,0.0,0.0,2.2029,2.228,2.2777,2.3619,2.4554,2.5324,2.5939,2.6889,2.7515,2.7777,2.8068,2.8196,2.8196,2.8196,2.8196,2.8202,2.851,2.8935,2.9524,3.0151,3.0966,3.1916,3.2847,3.3437,3.3843,0.0,0.0,0.0,0.0,0.0,0.0,0.0,0.0,0.0,3.9824,4.0885,4.2217,4.3051,4.5108,4.7326,4.8304,4.9585,5.0694,5.0873,5.1109,5.1284,5.1296,5.13,5.13,5.13,5.13,5.13,5.13,5.13,5.13,5.13,5.13,5.13,5.13,5.13,5.161,5.2506,5.2838,5.3578,5.5059,5.5429,5.584,5.6448,5.6507,5.5745,5.3987,5.3909,5.3091,5.1359,5.13,5.13,5.13,5.13,5.13,5.13,5.13,5.13,5.1339,5.2195,5.3071,5.3948,5.4825,5.5684,5.6507,5.6507,5.6507,5.6507,5.6507,5.6507,5.6483,5.6434,5.7375,5.8658,0.0,0.0,0.0,0.0,0.0,0.0,0.0,0.0,0.0,0.0,0.0,0.0,0.0,0.0,0.0,0.0,0.0,0.0,0.0,0.0,2.3559,2.4281,2.5161,2.5924,2.6554,2.7399,2.7936,2.8196,2.8196,2.8196,2.8196,2.8196,2.8374,2.8691,2.8966,2.9557,3.0397,3.1144,3.1946,3.2798,3.3612,3.4111,3.4396,0.0,0.0,0.0,0.0,0.0,0.0,0.0,0.0,0.0,4.0317,4.1327,4.2651,4.3914,4.5873,4.787,4.8906,4.9991,5.0867,5.1014,5.1186,5.13,5.13,5.13,5.13,5.13,5.13,5.13,5.13,5.13,5.13,5.13,5.13,5.13,5.13,5.13,5.1493,5.2019,5.2389,5.3013,5.4065,5.4474,5.4903,5.5433,5.5472,5.4866,5.3461,5.3383,5.274,5.1339,5.13,5.13,5.13,5.13,5.13,5.13,5.1649,5.1824,5.1824,5.2,5.2565,5.3442,5.4669,5.5684,5.6507,5.6507,5.6507,5.6507,5.6507,5.6507,5.6546,5.6855,5.7768,5.8832,0.0,0.0,0.0,0.0,0.0,0.0,0.0,0.0,0.0,0.0,0.0,0.0,0.0,0.0,0.0,0.0,0.0,0.0,0.0,0.0,2.4542,2.4625,2.5576,2.6505,2.735,2.7774,2.8071,2.8196,2.8196,2.8196,2.8196,2.8285,2.8695,2.9405,2.9575,3.0215,3.1222,3.2428,3.3089,3.3419,3.447,3.4936,3.4979,3.5017,0.0,0.0,0.0,0.0,0.0,0.0,0.0,0.0,4.0929,4.1743,4.2788,4.4723,4.6568,4.8222,4.9374,5.0428,5.1191,5.1263,5.1296,5.13,5.13,5.13,5.13,5.13,5.13,5.13,5.13,5.13,5.13,5.13,5.13,5.13,5.13,5.13,5.13,5.13,5.2,5.2506,5.2584,5.3325,5.3812,5.389,5.3909,5.3519,5.2643,5.2604,5.2195,5.1339,5.13,5.13,5.13,5.13,5.1339,5.1437,5.2214,5.2643,5.2682,5.1902,5.1961,5.2818,5.4474,5.5645,5.6388,5.6468,5.6507,5.6507,5.6507,5.6546,5.6702,5.742,5.8297,5.9197,0.0,0.0,0.0,0.0,0.0,0.0,0.0,0.0,0.0,0.0,0.0,0.0,0.0,0.0,0.0,0.0,0.0,0.0,0.0,0.0,2.485,2.5639,2.6446,2.7181,2.7828,2.7947,2.8071,2.8196,2.8196,2.8196,2.8206,2.8845,2.9237,2.9437,3.0453,3.1431,3.2385,3.3085,3.3727,3.4333,3.474,3.517,3.5625,3.5834,3.6429,0.0,0.0,0.0,0.0,0.0,0.0,0.0,4.0929,4.1743,4.2873,4.5272,4.6873,4.8196,4.986,5.0674,5.1072,5.1189,5.1254,5.13,5.13,5.13,5.13,5.13,5.13,5.13,5.13,5.13,5.13,5.13,5.13,5.13,5.13,5.13,5.13,5.13,5.1476,5.1844,5.2526,5.2779,5.3169,5.3851,5.3909,5.3519,5.2643,5.2604,5.2195,5.1339,5.13,5.13,5.13,5.13,5.163,5.2312,5.2506,5.2954,5.3617,5.3422,5.3442,5.3675,5.4747,5.5312,5.5526,5.6212,5.6507,5.6507,5.6507,5.6894,5.7459,5.7635,5.8687,6.001,0.0,0.0,0.0,0.0,0.0,0.0,0.0,0.0,0.0,0.0,0.0,0.0,0.0,0.0,0.0,0.0,0.0,0.0,0.0,0.0,0.0,2.6059,2.6674,2.7241,2.7749,2.7972,2.8126,2.8196,2.8588,2.8766,2.8791,2.9375,2.9956,3.0589,3.1606,3.2483,3.3213,3.3799,3.4252,3.4647,3.5265,3.572,3.6049,3.6578,3.7282,3.8083,3.8538,0.0,0.0,0.0,0.0,0.0,0.0,0.0,4.3548,4.6155,4.7337,4.8224,5.0159,5.0832,5.1029,5.1201,5.1263,5.13,5.13,5.13,5.13,5.13,5.13,5.13,5.13,5.13,5.13,5.13,5.13,5.13,5.13,5.13,5.13,5.13,5.13,5.1474,5.1922,5.198,5.2175,5.2623,5.2662,5.2467,5.2,5.198,5.1766,5.132,5.13,5.13,5.13,5.13,5.1747,5.2604,5.3013,5.3892,5.5119,5.4279,5.4123,5.4552,5.5,5.5448,5.586,5.631,5.6721,5.707,5.707,5.7596,5.8375,5.8784,5.9525,6.0346,0.0,0.0,0.0,0.0,0.0,0.0,0.0,0.0,0.0,0.0,0.0,0.0,0.0,0.0,0.0,0.0,0.0,0.0,0.0,0.0,0.0,0.0,2.6732,2.7175,2.7609,2.8007,2.8267,2.841,2.9091,2.9544,2.9826,3.015,3.0853,3.1909,3.2765,3.3414,3.3868,3.457,3.4873,3.4969,3.598,3.6505,3.6694,3.7377,3.8154,3.8912,3.8912,3.9323,3.9919,4.0071,0.0,0.0,0.0,0.0,4.423,4.6865,4.7712,4.8244,5.0277,5.0935,5.1078,5.1256,5.13,5.13,5.13,5.13,5.13,5.13,5.13,5.13,5.13,5.13,5.13,5.13,5.13,5.13,5.13,5.13,5.13,5.13,5.13,5.13,5.13,5.13,5.13,5.13,5.13,5.13,5.13,5.13,5.13,5.13,5.13,5.13,5.13,5.13,5.1747,5.2604,5.3481,5.473,5.6232,5.4788,5.4513,5.5195,5.5195,5.5606,5.629,5.6583,5.7109,5.7713,5.7869,5.8453,5.931,6.0031,6.0395,6.0594,0.0,0.0,0.0,0.0,0.0,0.0,0.0,0.0,0.0,0.0,0.0,0.0,0.0,0.0,0.0,0.0,0.0,0.0,2.5445,0.0,0.0,2.6773,2.709,2.751,2.8095,2.8168,2.8534,2.9237,2.9404,3.0173,3.1488,3.1756,3.1972,3.2219,3.3585,3.424,3.4379,3.5505,3.5991,3.6067,3.6893,3.7685,3.8386,3.8481,3.902,3.973,3.973,3.9805,4.0014,4.0777,4.1099,0.0,0.0,0.0,4.42,4.6695,4.7609,4.8203,5.0053,5.0854,5.1189,5.1286,5.13,5.13,5.13,5.13,5.13,5.13,5.13,5.13,5.13,5.13,5.13,5.13,5.13,5.13,5.13,5.13,5.13,5.13,5.13,5.13,5.13,5.13,5.13,5.13,5.13,5.13,5.13,5.13,5.13,5.13,5.13,5.13,5.13,5.13,5.1747,5.2604,5.3481,5.4416,5.537,5.5137,5.5098,5.5195,5.5195,5.5273,5.5487,5.6933,5.7596,5.7771,5.8531,5.9369,6.0148,6.0265,6.074,6.135,0.0,0.0,0.0,0.0,0.0,0.0,0.0,0.0,0.0,0.0,0.0,0.0,0.0,0.0,0.0,2.5007,2.5391,2.5597,2.5597,2.5921,2.6359,2.6888,2.723,2.7659,2.8182,2.8641,2.9041,2.9398,3.0331,3.1137,3.1815,3.2769,3.315,3.3084,3.407,3.4756,3.5229,3.5912,3.6467,3.6941,3.7799,3.8367,3.8746,3.9191,3.9583,3.99,3.99,4.0203,4.0701,4.108,4.1819,4.2729,4.3474,0.0,0.0,0.0,4.7472,4.801,5.0005,5.0809,5.1125,5.1261,5.13,5.13,5.13,5.13,5.13,5.13,5.13,5.13,5.13,5.13,5.13,5.13,5.13,5.13,5.13,5.13,5.13,5.13,5.13,5.13,5.13,5.13,5.13,5.13,5.13,5.13,5.13,5.13,5.13,5.13,5.13,5.13,5.13,5.13,5.1747,5.2604,5.3481,5.4104,5.4474,5.4474,5.5,5.5937,5.5937,5.5937,5.5996,5.6719,5.7576,5.8473,5.8843,5.9836,6.102,6.0988,6.1195,6.146,0.0,0.0,0.0,0.0,0.0,0.0,0.0,0.0,0.0,0.0,0.0,0.0,0.0,0.0,0.0,0.0,2.5597,2.5597,2.5597,2.5984,2.6411,2.6888,2.7457,2.8016,2.8492,2.9291,2.9787,3.0005,3.1255,3.1998,3.2306,3.3635,3.425,3.4255,3.4778,3.545,3.622,3.6666,3.7187,3.7812,3.8665,3.9007,3.9063,3.9678,4.0033,4.0222,4.0222,4.0772,4.1535,4.1762,4.2678,4.3739,4.3947,4.4573,0.0,0.0,0.0,4.8458,5.0076,5.0727,5.0985,5.1189,5.125,5.1286,5.1296,5.13,5.13,5.13,5.13,5.13,5.13,5.13,5.13,5.13,5.13,5.13,5.13,5.13,5.13,5.13,5.13,5.13,5.13,5.13,5.13,5.13,5.13,5.13,5.13,5.13,5.13,5.13,5.13,5.13,5.13,5.13,5.163,5.2273,5.2935,5.3364,5.3578,5.3578,5.4398,5.5842,5.5842,5.5842,5.5862,5.6076,5.7031,5.8414,5.8823,5.9934,6.1291,6.1448,6.1491,6.1389,0.0,0.0,0.0,0.0,0.0,0.0,0.0,0.0,0.0,0.0,0.0,0.0,2.4966,2.5162,2.5371,2.5588,2.5597,2.5597,2.5597,2.5972,2.6418,2.6888,2.7955,0.0,2.9319,3.0058,3.0852,3.1675,3.189,3.2531,3.3616,3.4534,3.5198,3.5692,3.5991,3.6566,3.7361,3.821,3.8595,3.8709,3.9508,3.9843,3.9843,3.9881,4.0412,4.1137,4.1137,4.1649,4.2464,4.3284,4.3625,4.3834,4.4592,4.5426,4.6304,0.0,0.0,0.0,5.0267,5.0563,5.084,5.0979,5.1117,5.1225,5.129,5.13,5.13,5.13,5.13,5.13,5.13,5.13,5.13,5.13,5.13,5.13,5.13,5.13,5.13,5.13,5.13,5.13,5.13,5.13,5.13,5.13,5.13,5.13,5.13,5.13,5.13,5.13,5.13,5.13,5.13,5.13,5.132,5.1378,5.1417,5.1863,5.2662,5.2662,5.3169,5.4046,5.4046,5.4046,5.4104,5.4922,5.5801,5.6799,5.8375,5.9564,6.0453,6.1212,6.1464,6.125,0.0,0.0,0.0,0.0,0.0,0.0,0.0,0.0,0.0,0.0,0.0,0.0,0.0,2.5256,2.5381,2.5588,2.5597,2.5705,2.5968,2.6402,2.7069,2.8012,2.8732,2.9416,3.0093,3.0868,3.1449,3.18,3.2585,3.3483,3.449,3.5187,3.6189,3.7383,3.6911,3.7271,3.8254,3.8576,3.9007,3.9508,3.9786,3.99,3.9957,4.0525,4.0929,4.127,4.1781,4.2501,4.3284,4.3587,4.4042,4.4516,4.4819,4.5501,4.6474,4.7839,4.9073,5.0044,5.026,5.0396,5.0548,5.0867,5.0995,5.1092,5.1201,5.128,5.13,5.13,5.13,5.13,5.13,5.13,5.13,5.13,5.13,5.13,5.13,5.13,5.13,5.13,5.13,5.13,5.13,5.13,5.13,5.13,5.13,5.13,5.13,5.13,5.13,5.13,5.13,5.13,5.13,5.13,5.13,5.13,5.13,5.1454,5.1766,5.1766,5.1941,5.2234,5.2234,5.2877,5.3929,5.424,5.4883,5.5723,5.6327,5.7418,5.8715,5.9492,5.9746,5.9706,0.0,0.0,0.0,0.0,0.0,0.0,0.0,0.0,0.0,0.0,0.0,0.0,0.0,0.0,2.5486,2.5712,2.5779,2.6074,2.6711,2.7105,2.786,2.905,2.9687,3.03,3.0896,3.1712,3.2166,3.225,3.3397,3.4355,3.5093,3.6148,3.7286,3.842,3.8113,3.8398,3.9101,3.9101,3.9418,3.99,3.99,4.0089,4.0393,4.0986,4.1554,4.2103,4.2634,4.3373,4.4156,4.444,4.4895,4.5388,4.5653,4.6342,4.7308,4.8692,4.9469,4.994,5.0112,5.0214,5.035,5.0632,5.0789,5.0909,5.1084,5.1184,5.1243,5.1294,5.13,5.13,5.13,5.13,5.13,5.13,5.13,5.13,5.13,5.13,5.13,5.13,5.13,5.13,5.13,5.13,5.13,5.13,5.13,5.13,5.13,5.13,5.13,5.13,5.13,5.13,5.13,5.13,5.13,5.13,5.13,5.13,5.13,5.13,5.13,5.13,5.13,5.1961,5.3032,5.3032,5.3539,5.4357,5.4649,5.5615,5.6958,5.7978,5.8349,5.8346,0.0,0.0,0.0,0.0,0.0,0.0,0.0,0.0,0.0,0.0,0.0,0.0,0.0,0.0,0.0,2.6058,2.6206,2.6737,2.7792,2.8108,2.8752,2.9903,3.0772,3.1381,3.1724,3.258,3.3078,3.316,3.436,3.513,3.5529,3.7415,3.8456,3.8765,3.9545,3.9919,3.9938,3.9938,3.9938,3.9938,3.9995,4.0506,4.1232,4.1289,4.2312,4.3739,4.3758,4.4289,4.5103,4.5944,4.6247,4.638,4.7169,4.801,4.8862,4.9658,4.9905,4.9905,0.0,0.0,0.0,5.0289,5.0444,5.0668,5.0923,5.1036,5.1136,5.1278,5.1298,5.13,5.13,5.13,5.13,5.13,5.13,5.13,5.13,5.13,5.13,5.13,5.13,5.13,5.13,5.13,5.13,5.13,5.13,5.13,5.13,5.13,5.13,5.13,5.13,5.13,5.13,5.13,5.13,5.13,5.13,5.13,5.13,5.13,5.13,5.13,5.13,5.13,5.13,5.13,5.1805,5.2643,5.3481,5.4309,5.5213,5.6796,5.7351,5.73,0.0,0.0,0.0,0.0,0.0,0.0,0.0,0.0,0.0,0.0,0.0,0.0,0.0,2.6629,2.7452,2.8105,2.83,2.8648,2.9285,2.9393,2.9953,3.1144,3.1432,3.1894,3.2624,3.345,3.4047,3.44,3.5506,3.655,3.7515,3.826,3.8934,3.9583,3.9805,4.0241,4.0828,4.0828,4.0828,4.0948,4.216,4.2426,4.2198,4.3411,4.4156,4.4649,4.5274,4.6038,4.6759,4.6986,4.7081,4.7213,4.8066,4.8502,4.8862,4.9658,4.9905,4.9905,4.9905,0.0,0.0,0.0,0.0,0.0,5.0653,5.0873,5.1048,5.1142,5.1234,5.13,5.13,5.13,5.13,5.13,5.13,5.13,5.13,5.13,5.13,5.13,5.13,5.13,5.13,5.13,5.13,5.13,5.13,5.13,5.13,5.13,5.13,5.13,5.13,5.13,5.13,5.13,5.13,5.13,5.13,5.13,5.13,5.13,5.13,5.13,5.13,5.13,5.13,5.13,5.1437,5.1688,5.1922,5.2518,5.3343,5.4367,5.5119,5.5633,0.0,0.0,0.0,0.0,0.0,0.0,0.0,0.0,0.0,0.0,0.0,0.0,2.7231,0.0,2.8629,2.9247,2.9412,2.9804,3.0531,3.0629,3.1107,3.2152,3.2196,3.2662,3.3702,3.4199,3.4819,3.5572,3.6711,3.7605,0.0,0.0,0.0,3.9938,4.0639,4.1226,4.1762,4.2829,4.2886,4.2331,4.3322,4.3815,4.4042,4.4668,4.5331,4.6013,4.6531,4.7005,4.746,4.782,4.8161,4.8521,4.9033,4.9204,4.9279,4.9753,4.9905,4.9905,4.9905,4.9905,4.9939,5.0044,0.0,0.0,5.0548,5.0735,5.0933,5.1131,5.1243,5.13,5.13,5.13,5.13,5.13,5.13,5.13,5.13,5.13,5.13,5.13,5.13,5.13,5.13,5.13,5.13,5.13,5.13,5.13,5.13,5.13,5.13,5.13,5.13,5.13,5.13,5.13,5.13,5.13,5.13,5.13,5.13,5.13,5.13,5.13,5.13,5.13,5.13,5.13,5.13,5.13,5.13,5.1552,5.2028,5.2843,5.3643,5.4409,0.0,0.0,0.0,0.0,0.0,0.0,0.0,0.0,0.0,0.0,0.0,0.0,2.9153,0.0,0.0,0.0,3.0159,3.0678,3.1716,3.1904,0.0,0.0,3.3198,3.3723,3.4823,3.5038,0.0,0.0,0.0,0.0,0.0,0.0,0.0,0.0,4.1838,4.2653,4.2975,4.5331,4.5527,4.4263,4.4263,4.5097,4.6272,4.559,4.6253,4.7542,4.7555,4.7611,4.7801,4.8559,4.9305,4.9905,4.9905,4.9905,4.9905,4.9905,4.9905,4.9905,4.9905,4.9905,4.9905,4.9905,4.9933,0.0,5.0462,5.0606,5.077,5.1152,5.1224,5.1233,5.1233,5.1233,5.1233,5.1233,5.1258,5.1288,5.1298,5.13,5.13,5.13,5.13,5.13,5.13,5.13,5.13,5.13,5.13,5.13,5.13,5.13,5.13,5.13,5.13,5.13,5.13,5.13,5.13,5.13,5.13,5.13,5.13,5.13,5.13,5.13,5.13,5.13,5.13,5.13,5.13,5.13,5.13,5.1223,5.1199,5.197,5.272,5.3482,0.0,0.0,0.0,0.0,0.0,0.0,0.0,0.0,0.0,0.0,2.8668,2.9513,3.0422,3.084,3.1318,0.0,3.2203,3.2679,3.3531,3.3617,3.3972,3.4713,3.5065,3.5392,3.5735,0.0,0.0,0.0,0.0,0.0,0.0,0.0,0.0,0.0,4.3,4.4194,4.552,4.6683,4.741,4.7808,4.7808,4.758,4.7289,4.784,4.8245,4.8517,4.8465,4.8862,4.9431,4.9602,4.9772,4.9905,4.9905,4.9905,4.9905,4.9905,4.9905,4.9905,4.9905,4.9905,4.9905,4.9905,4.9918,0.0,5.0169,5.0325,5.0519,5.0707,5.0817,5.0905,5.0905,5.0905,5.0905,5.0905,5.1036,5.1171,5.1271,5.13,5.13,5.13,5.13,5.13,5.13,5.13,5.13,5.13,5.13,5.13,5.13,5.13,5.13,5.13,5.13,5.13,5.13,5.13,5.13,5.13,5.13,5.13,5.13,5.13,5.13,5.13,5.13,5.13,5.13,5.13,5.13,5.13,5.13,5.1223,5.1122,5.1296,5.1812,5.2573,0.0,0.0,0.0,0.0,0.0,0.0,0.0,0.0,0.0,2.9327,3.0308,3.1339,3.2247,3.2623,3.3083,3.3839,0.0,0.0,0.0,0.0,3.5107,3.5672,3.5895,3.6343,3.7074,0.0,0.0,0.0,0.0,0.0,0.0,0.0,0.0,4.3742,4.4989,4.6032,4.6935,4.8136,4.894,4.9359,4.8967,4.8789,4.8814,4.891,4.923,4.9604,4.9644,4.9843,5.0088,4.9986,4.9932,4.9905,4.9905,4.9905,4.9905,4.9905,4.9905,4.9905,4.9905,4.9905,4.9905,4.9905,4.9905,0.0,0.0,5.0336,5.0467,5.0661,5.0753,5.0794,5.0794,5.0794,5.0794,5.0794,5.0978,5.1083,5.1069,5.1184,5.13,5.13,5.13,5.13,5.13,5.13,5.13,5.13,5.13,5.13,5.13,5.13,5.13,5.13,5.13,5.13,5.13,5.13,5.13,5.13,5.13,5.13,5.13,5.13,5.13,5.13,5.13,5.13,5.13,5.13,5.13,5.13,5.13,5.1223,5.1102,5.1102,5.156,5.2322,2.6931,2.7382,0.0,0.0,0.0,0.0,0.0,0.0,3.0417,3.1007,3.2282,3.3389,3.4045,3.4327,3.4717,3.5342,3.5396,0.0,3.5965,3.5981,3.6197,3.6676,3.6761,3.729,3.839,0.0,0.0,0.0,0.0,0.0,0.0,0.0,4.3971,4.5524,4.7005,4.7796,4.8068,4.9377,4.9999,5.0044,4.9384,4.9536,5.0056,4.9568,4.9812,5.0446,5.0556,5.0495,5.0328,5.0125,5.0012,4.9979,4.9913,4.9918,4.9925,4.9893,4.9918,4.9925,4.9893,4.9918,4.9925,4.9925,4.9939,5.0018,0.0,0.0,0.0,5.0664,5.0692,5.0692,5.0692,5.0692,5.0692,5.0692,5.087,5.0948,5.0786,5.102,5.1208,5.1208,5.1261,5.1292,5.1256,5.1271,5.13,5.13,5.13,5.13,5.13,5.13,5.13,5.13,5.13,5.13,5.13,5.13,5.13,5.13,5.13,5.13,5.13,5.13,5.13,5.13,5.13,5.13,5.13,5.13,5.13,5.1298,5.129,5.1213,5.1099,5.1087,5.1453,5.207,2.7782,2.7882,2.8388,0.0,0.0,0.0,0.0,0.0,3.2016,3.3028,3.4285,3.5116,3.5205,3.5553,3.5863,3.6073,3.608,3.6446,3.7321,3.7365,3.7711,3.846,3.8786,3.9019,3.9164,0.0,0.0,0.0,0.0,0.0,0.0,0.0,4.6247,4.7169,4.8188,4.903,4.9726,4.9962,5.0211,5.0445,5.0349,5.0254,5.0206,5.0292,5.0396,5.0493,5.0565,5.0586,5.0547,5.032,5.0258,5.0206,4.9967,4.9945,4.9985,4.9925,4.9933,4.9985,4.9925,4.9933,4.9992,4.9992,5.0037,5.0108,5.02,0.0,5.0253,5.0346,0.0,5.0363,5.0363,0.0,0.0,5.0363,5.0522,5.0649,5.063,5.0749,5.087,5.087,5.1116,5.1248,5.1134,5.1232,5.13,5.13,5.13,5.13,5.13,5.13,5.13,5.13,5.13,5.13,5.13,5.13,5.13,5.13,5.13,5.13,5.13,5.13,5.13,5.13,5.13,5.13,5.13,5.13,5.13,5.1296,5.1234,5.1161,5.1096,5.1034,5.1035,5.1173,2.8943,2.936,3.0036,3.0519,0.0,0.0,0.0,0.0,3.3855,3.4305,3.4905,3.551,3.6144,3.6369,3.6771,3.754,3.7581,3.7852,3.8493,3.8525,3.8992,4.0024,4.0215,4.0546,4.1096,4.2115,0.0,0.0,4.3815,0.0,0.0,0.0,0.0,4.8922,4.9327,4.9771,5.0227,5.0139,5.0252,5.0502,5.0502,5.0466,5.0455,5.0735,5.0896,5.0966,5.0909,5.0865,5.0801,5.0603,5.0445,5.035,5.022,5.0132,5.0057,5.0031,5.0037,5.0057,5.0024,5.0044,5.0063,5.0063,5.0082,5.012,5.0175,5.0194,5.0212,5.029,0.0,0.0,0.0,0.0,0.0,0.0,5.0464,5.0567,5.0437,5.0632,5.0794,5.0794,5.0929,5.1026,5.108,5.1225,5.13,5.13,5.13,5.13,5.13,5.13,5.13,5.13,5.13,5.13,5.13,5.13,5.13,5.13,5.13,5.13,5.13,5.13,5.13,5.13,5.13,5.13,5.13,5.13,5.13,5.1292,5.1176,5.1125,5.1093,5.1027,5.0951,5.1018,3.0983,3.1276,3.1744,3.2179,3.2971,0.0,0.0,3.4623,3.5386,3.5386,3.5799,3.6377,3.7153,3.7402,3.7853,3.877,3.8872,3.9145,3.9707,3.9745,4.0247,4.1339,4.1615,4.2054,4.2748,4.3834,4.4383,0.0,0.0,0.0,0.0,0.0,0.0,0.0,5.0018,5.0169,5.0393,5.0287,5.0407,5.0652,5.0652,5.0728,5.0805,5.1024,5.1176,5.129,5.1181,5.112,5.1044,5.0854,5.0688,5.0553,5.048,5.0374,5.026,5.0243,5.0221,5.0212,5.0194,5.0151,5.0133,5.0133,5.0145,5.017,5.0225,5.0237,5.0249,5.029,5.0302,0.0,0.0,0.0,5.0302,5.0302,0.0,5.0464,5.0325,5.0518,5.0668,5.0668,5.0711,5.0828,5.0998,5.1117,5.1196,5.1241,5.1243,5.1254,5.1298,5.13,5.13,5.13,5.13,5.13,5.13,5.13,5.13,5.13,5.13,5.13,5.13,5.13,5.13,5.13,5.13,5.13,5.13,5.13,5.1292,5.1254,5.1145,5.109,5.1066,5.0997,5.0932,5.0999,3.4309,3.3577,3.3251,3.4223,3.4701,3.4987,3.5108,3.5828,3.6363,3.6363,3.7492,3.8302,3.8346,3.8872,3.9287,3.9452,3.958,4.0087,4.1071,4.1139,4.1499,4.2325,4.3159,4.3638,4.3663,4.5274,4.6114,4.6114,0.0,0.0,0.0,0.0,0.0,0.0,5.0044,5.0211,5.0409,5.0532,5.0775,5.1087,5.1087,5.1161,5.1258,5.1145,5.1176,5.1298,5.1296,5.1294,5.1258,5.1066,5.0988,5.0936,5.0683,5.0636,5.0677,5.0595,5.0534,5.0476,5.0404,5.031,5.0207,5.0207,5.0255,5.0296,5.0296,5.0296,5.0296,5.0302,5.0302,5.0302,5.0302,5.0302,5.0302,0.0,5.0308,0.0,0.0,5.0314,5.0325,5.0325,5.049,5.0662,5.0805,5.0809,5.0891,5.1099,5.1108,5.1158,5.1294,5.13,5.13,5.13,5.13,5.13,5.13,5.13,5.13,5.13,5.13,5.13,5.13,5.13,5.13,5.13,5.13,5.13,5.13,5.13,5.1254,5.1206,5.1128,5.1063,5.0993,5.0933,5.0902,5.0898,3.524,3.5292,3.5181,3.5004,3.5501,3.6114,3.6702,3.7015,3.7291,3.7549,3.7985,3.8632,3.9619,4.0377,4.1178,4.2071,4.2681,4.2969,4.2856,4.336,4.3771,4.4042,4.4895,4.5596,4.6152,4.727,4.7858,4.7858,4.8957,0.0,0.0,0.0,0.0,0.0,5.0063,5.0283,5.0604,5.0596,5.0792,5.1102,5.1102,5.1174,5.1296,5.1245,5.1254,5.13,5.13,5.13,5.1294,5.1217,5.1136,5.1059,5.0962,5.0866,5.077,5.0735,5.0717,5.0698,5.0662,5.0626,5.0577,5.0492,5.0485,5.0458,5.0337,5.0302,5.0302,5.0302,5.0302,5.0302,5.0302,5.0302,5.0302,0.0,5.0302,5.0302,0.0,5.0302,5.0302,5.0302,5.0474,5.062,5.0666,5.0749,5.0836,5.0907,5.1017,5.112,5.1161,5.1248,5.13,5.13,5.13,5.13,5.13,5.13,5.13,5.13,5.13,5.13,5.13,5.13,5.13,5.13,5.13,5.13,5.13,5.13,5.1254,5.1184,5.1125,5.1063,5.099,5.091,5.0898,5.0979,3.6339,3.6647,3.6658,3.6131,3.6479,3.7122,3.8026,3.7972,3.8146,3.9075,3.9315,3.9884,4.1159,4.2123,4.3025,4.3863,4.443,4.472,4.4605,4.5066,4.5483,4.5786,4.6626,4.7327,4.7858,4.8692,4.9128,4.9128,4.964,4.9905,0.0,0.0,0.0,0.0,5.007,5.032,5.0698,5.0687,5.0863,5.1166,5.1166,5.1227,5.13,5.13,5.13,5.13,5.13,5.13,5.13,5.13,5.1241,5.1166,5.1166,5.1078,5.0972,5.0972,5.0936,5.0914,5.0914,5.0858,5.0789,5.0692,5.068,5.0625,5.0448,5.0413,5.0413,5.0413,5.0346,5.0325,5.0396,5.034,5.0302,0.0,0.0,5.0302,0.0,5.0302,5.0302,5.0302,5.0405,5.0495,5.0495,5.0563,5.065,5.0716,5.084,5.0961,5.1096,5.1174,5.1248,5.1298,5.13,5.13,5.13,5.13,5.13,5.13,5.13,5.13,5.13,5.13,5.13,5.13,5.13,5.13,5.13,5.13,5.1243,5.1155,5.1117,5.1047,5.0951,5.0921,5.0898,5.0979,3.7595,3.7631,3.7675,3.7729,3.7721,3.8044,3.9137,3.8756,3.9017,4.0861,4.1445,4.2025,4.2963,4.4125,4.4851,4.4895,4.5054,4.5483,4.6266,4.6361,4.6702,4.7435,4.8313,4.8775,4.8782,4.9534,4.9906,4.9906,4.9893,4.9905,0.0,0.0,0.0,0.0,5.0095,5.0342,5.0723,5.079,5.0991,5.13,5.13,5.13,5.13,5.13,5.13,5.13,5.13,5.13,5.13,5.13,5.13,5.13,5.13,5.13,5.13,5.13,5.1215,5.1111,5.1111,5.0966,5.0817,5.0828,5.0805,5.0782,5.0634,5.0606,5.0606,5.0606,5.0458,5.0385,5.0576,5.0437,5.0314,5.0302,0.0,5.0302,5.0302,5.0302,5.0302,5.0302,5.0302,5.0302,5.0302,5.0302,5.038,5.0576,5.0587,5.0733,5.1049,5.109,5.115,5.129,5.1292,5.1294,5.13,5.13,5.13,5.13,5.13,5.13,5.13,5.13,5.13,5.13,5.13,5.13,5.13,5.13,5.1225,5.1102,5.1102,5.102,5.0898,5.0898,5.0898,5.0898,3.7595,3.8114,3.8833,3.9678,3.9351,3.936,4.0575,4.0614,4.0998,4.2376,4.2646,4.3386,4.5165,4.6151,4.6972,4.7623,4.8255,4.8464,4.8085,4.8616,4.8821,4.8533,4.9358,4.9863,4.9966,5.0079,5.012,5.012,4.9966,4.9905,4.9905,0.0,0.0,0.0,5.0325,5.0572,5.1001,5.1011,5.1125,5.13,5.13,5.13,5.13,5.13,5.13,5.13,5.13,5.13,5.13,5.13,5.13,5.13,5.13,5.13,5.13,5.13,5.1284,5.1245,5.1245,5.1208,5.1152,5.1059,5.1014,5.0978,5.0786,5.0749,5.0749,5.0749,5.0711,5.067,5.0611,5.0567,5.0469,5.0312,5.0302,5.0302,5.0302,5.0302,5.0302,5.0302,5.0302,5.0302,5.0302,5.0302,5.0325,5.0374,5.0516,5.0635,5.0715,5.0828,5.0959,5.1145,5.115,5.1208,5.1298,5.13,5.13,5.13,5.13,5.13,5.13,5.13,5.13,5.13,5.13,5.13,5.13,5.13,5.1225,5.1102,5.1102,5.102,5.0898,5.0898,5.0898,5.0886,3.8159,3.9014,4.0092,4.1276,4.1222,4.1239,4.1891,4.2054,4.2624,4.4129,4.4713,4.5562,4.7118,4.801,4.8731,4.9315,4.9778,4.9854,4.9465,4.9871,4.9958,4.9566,5.0031,5.0325,5.0404,5.033,5.0298,5.0298,5.0126,5.0025,5.0025,0.0,0.0,5.0404,5.0404,5.0655,5.1105,5.1158,5.1232,5.13,5.13,5.13,0.0,5.13,5.13,5.13,5.13,5.13,5.13,5.13,5.13,5.13,5.13,5.13,5.13,5.13,5.13,5.13,5.13,5.13,5.1288,5.1213,5.1198,5.1131,5.0966,5.0932,5.0932,5.0932,5.0862,5.0786,5.07,5.0634,5.0536,5.0323,5.0302,5.0302,5.0302,5.0302,5.0302,5.0302,5.0302,5.0302,5.0302,5.0302,5.0302,5.0302,5.0388,5.0511,5.0606,5.068,5.0797,5.0956,5.0978,5.1017,5.107,5.1176,5.1218,5.122,5.1263,5.13,5.13,5.13,5.13,5.13,5.13,5.13,5.13,5.13,5.1239,5.1136,5.1081,5.099,5.0898,5.0898,5.0898,5.0882,3.9255,4.0201,4.1356,4.2613,4.3169,4.3418,4.3338,4.3437,4.417,4.6027,4.7022,4.7896,4.8749,4.9496,5.0005,5.0175,5.0218,5.0281,5.0393,5.0404,5.0415,5.0436,5.0436,5.0446,5.0467,5.0446,5.0436,5.0436,5.0304,5.023,0.0,0.0,5.013,5.0463,5.0463,5.0711,5.1134,5.1248,5.13,5.13,5.13,5.13,5.13,5.13,5.13,5.13,5.13,5.13,5.13,5.13,5.13,5.13,5.13,5.13,5.13,5.13,5.13,5.13,5.13,5.13,5.13,5.13,5.13,5.128,5.115,5.1125,5.1125,5.1125,5.0982,5.085,5.0851,5.0705,5.0536,5.0323,5.0302,5.0302,5.0302,5.0302,5.0302,5.0302,5.0302,0.0,5.0302,5.0302,5.0302,5.0302,5.0302,5.0374,5.0557,5.0567,5.0625,5.0778,5.0762,5.0774,5.0794,5.0998,5.1102,5.1102,5.1236,5.13,5.13,5.13,5.13,5.13,5.13,5.13,5.13,5.13,5.125,5.1168,5.105,5.0951,5.0898,5.0898,5.089,5.0858,4.1179,4.1645,4.2324,4.3748,4.4688,4.5331,4.5589,4.564,4.6272,4.7989,4.8356,4.8768,4.9602,4.9968,5.0157,5.0194,5.0296,5.0372,5.0404,5.0404,5.0467,5.0635,5.0659,5.0696,5.081,5.07,5.0659,5.0659,5.046,5.0361,0.0,0.0,5.048,5.0813,5.0813,5.0976,5.1278,5.1292,5.13,5.13,5.13,5.13,5.13,5.13,5.13,5.13,5.13,5.13,5.13,5.13,5.13,5.13,5.13,5.13,5.13,5.13,5.13,5.13,5.13,5.13,5.13,5.13,5.13,5.1296,5.1261,5.1256,5.1256,5.1256,5.1245,5.1189,5.1071,5.0804,5.0536,5.0323,5.0302,5.0302,5.0302,5.0302,5.0302,5.0302,5.0302,5.0302,5.0302,5.0302,5.0302,5.0302,5.0302,5.0319,5.0346,5.0346,5.0437,5.0639,5.0644,5.0683,5.0794,5.0998,5.1102,5.1102,5.1236,5.13,5.13,5.13,5.13,5.13,5.13,5.13,5.13,5.13,5.123,5.1111,5.1034,5.0951,5.0898,5.0898,5.0833,5.0715,4.2438,4.3351,4.4191,4.4899,4.5899,4.6786,4.7403,4.7498,4.7782,4.8585,4.915,4.9632,5.0012,5.0205,5.0355,5.0448,5.0526,5.0587,5.0643,5.0667,5.0699,5.0804,5.0808,5.0837,5.0898,5.0841,5.0808,5.0808,5.0644,5.0571,0.0,0.0,5.0619,5.0916,5.1045,5.1186,5.13,5.13,5.13,5.13,5.13,5.13,5.13,5.13,5.13,5.13,5.13,5.13,5.13,5.13,5.13,5.13,5.13,5.13,5.13,5.13,5.13,5.13,5.13,5.13,5.13,5.13,5.13,5.13,5.13,5.13,5.13,5.13,5.13,5.1252,5.1125,5.0824,5.0576,5.0469,5.0369,5.0302,5.0302,5.0302,5.0302,5.0302,5.0302,5.0302,5.0302,5.0302,5.0302,5.0302,5.0302,5.0302,5.0302,5.0302,5.0335,5.0432,5.0437,5.0471,5.0538,5.0731,5.084,5.084,5.0976,5.1271,5.1692,5.1252,5.1325,5.1804,5.1381,5.1236,5.13,5.13,5.1225,5.1099,5.1066,5.0986,5.089,5.0825,5.0756,5.0678,4.3664,4.4977,4.5984,4.6055,4.6962,4.7915,4.8597,4.8843,4.8977,4.9004,4.972,5.0212,5.0228,5.0375,5.0527,5.0687,5.0729,5.0791,5.0894,5.0898,5.0898,5.0898,5.0898,5.0898,5.0898,5.0898,5.0898,5.0898,5.0799,5.0742,0.0,0.0,5.0726,5.0978,5.1198,5.13,5.13,5.13,5.13,5.13,5.13,5.13,5.13,5.13,5.13,5.13,5.13,5.13,5.13,5.13,5.13,5.13,5.13,5.13,5.13,5.13,5.13,5.13,5.13,5.13,5.13,5.13,5.13,5.13,5.13,5.13,5.13,5.13,5.13,5.1252,5.1125,5.0852,5.062,5.0596,5.0421,5.0302,5.0302,5.0302,5.0302,5.0302,5.0302,5.0302,5.0302,5.0302,5.0302,5.0302,5.0302,5.0302,5.0302,5.0302,5.0302,5.0302,5.0302,5.0302,5.0302,5.05,5.0592,5.0592,5.0732,5.1157,5.1807,5.1099,5.1229,5.1949,5.1312,5.11,5.1184,5.1184,5.1125,5.1001,5.0992,5.0924,5.0797,5.0677,5.0611,5.0567,4.5327,4.6183,4.6887,4.7192,4.7978,4.8616,4.8692,4.9324,4.9846,5.0049,5.0143,5.0259,5.0361,5.0567,5.0682,5.0696,5.0812,5.0886,5.0898,5.0898,5.0898,5.0898,5.0898,5.0898,5.0898,5.0898,5.0898,5.0898,5.0886,5.0882,5.0882,0.0,5.1027,5.1174,5.1256,5.13,5.13,5.13,5.13,5.13,5.13,5.13,5.13,5.13,5.13,5.13,5.13,5.13,5.13,5.13,5.13,5.13,5.13,5.13,5.13,5.13,5.13,5.13,5.13,5.13,5.13,5.13,5.13,5.13,5.13,5.13,5.13,5.13,5.13,5.1252,5.1125,5.0925,5.0737,5.062,5.0421,5.0302,5.0302,5.0302,5.0302,5.0302,5.0302,5.0302,5.0302,5.0302,5.0302,5.0302,5.0302,5.0302,5.0302,5.0302,5.0302,5.0302,5.0302,5.0302,5.0302,5.05,5.0592,5.0592,5.0732,5.0832,5.0929,5.0832,5.084,5.0933,5.0855,5.0844,5.0858,5.0858,5.0805,5.0735,5.0668,5.0601,5.0532,5.0471,5.0347,5.0242,4.6363,4.7252,4.8016,4.816,4.8862,4.9412,4.9412,4.9809,5.0145,5.0296,5.0319,5.0386,5.0552,5.0723,5.0825,5.0825,5.087,5.0898,5.0898,5.0898,5.0898,5.0898,5.0898,5.0898,5.0898,5.0898,5.0925,5.0954,5.0925,5.0932,5.102,5.105,5.1131,5.1254,5.1292,5.13,5.13,5.13,5.13,5.13,5.13,5.13,5.13,5.13,5.13,5.13,5.13,5.13,5.13,5.13,5.13,5.13,5.13,5.13,5.13,5.13,5.13,5.13,5.13,5.13,5.13,5.13,5.13,5.13,5.13,5.13,5.13,5.13,5.13,5.1288,5.1232,5.1094,5.0921,5.0756,5.0582,5.0451,5.0319,5.0302,5.0302,5.0302,5.0302,5.0302,5.0302,5.0302,5.0302,5.0302,5.0302,5.0302,5.0302,5.0302,5.0302,5.0302,5.0302,5.0302,5.0302,5.038,5.0429,5.0429,5.0462,5.0772,5.1285,5.1285,5.1318,5.1383,5.0978,5.0794,5.0794,5.0794,5.0765,5.07,5.0678,5.0587,5.0486,5.0383,5.0289,5.0175,4.7405,4.8311,4.9052,4.9052,4.9526,4.9913,4.9973,5.0101,5.0258,5.0471,5.0497,5.0557,5.0747,5.0846,5.0898,5.0898,5.0898,5.0898,5.0898,5.0898,5.0898,5.0898,5.0898,5.0898,5.0898,5.0898,5.0929,5.0965,5.0932,5.0976,5.1075,5.1114,5.1181,5.13,5.13,5.13,5.13,5.13,5.13,5.13,5.13,5.13,5.13,5.13,5.13,5.13,5.13,5.13,5.13,5.13,5.13,5.13,5.13,5.13,5.13,5.13,5.13,5.13,5.13,5.13,5.13,5.13,5.13,5.13,5.13,5.13,5.13,5.13,5.13,5.13,5.13,5.1181,5.1021,5.082,5.0683,5.0536,5.0337,5.0302,5.0302,5.0302,5.0302,5.0302,5.0302,5.0302,5.0302,5.0302,5.0302,5.0302,5.0302,5.0302,5.0302,5.0302,5.0302,5.0302,5.0302,5.0302,5.0302,5.0302,5.0302,5.0627,5.1213,5.1213,5.1402,5.1701,5.0976,5.0655,5.0655,5.0655,5.0633,5.0587,5.0553,5.0483,5.0377,5.0253,5.0163,5.0089,4.862,4.9336,4.9886,4.9886,4.9886,4.9978,5.0163,5.0194,5.0329,5.0659,5.0696,5.0751,5.0882,5.0898,5.0898,5.0898,5.0898,5.0898,5.0898,5.0898,5.0898,5.0898,5.0898,5.0898,5.0898,5.0898,5.0902,5.0902,5.0961,5.1,5.1004,5.1136,5.1236,5.13,5.13,5.13,5.13,5.13,5.13,5.13,5.13,5.13,5.13,5.13,5.13,5.13,5.13,5.13,5.13,5.13,5.13,5.13,5.13,5.13,5.13,5.13,5.13,5.13,5.13,5.13,5.13,5.13,5.13,5.13,5.13,5.13,5.13,5.13,5.13,5.13,5.13,5.1181,5.1021,5.082,5.0683,5.0536,5.0337,5.0302,5.0302,5.0302,5.0302,5.0302,5.0302,5.0302,5.0302,5.0302,5.0302,5.0302,5.0302,5.0302,5.0302,5.0302,5.0302,5.0302,5.0302,5.0302,5.0302,5.0302,5.0302,5.0302,5.0321,5.0321,5.0799,5.1544,5.069,5.0308,5.0308,5.0308,5.0308,5.0302,5.0224,5.0157,5.0095,5.0037,4.9972,4.9893,4.9493,4.9715,4.9933,5.0076,5.0137,5.0237,5.0376,5.0558,5.0718,5.082,5.092,5.0981,5.1034,5.0947,5.0898,5.0898,5.0898,5.0898,5.0898,5.0898,5.0898,5.0898,5.0898,5.0898,5.0898,5.0936,5.099,5.1037,5.1059,5.1093,5.1136,5.123,5.1286,5.13,5.13,5.13,5.13,5.13,5.13,5.13,5.13,5.13,5.13,5.13,5.13,5.13,5.13,5.13,5.13,5.13,5.13,5.13,5.13,5.13,5.13,5.13,5.13,5.13,5.13,5.13,5.13,5.13,5.13,5.13,5.13,5.13,5.13,5.13,5.13,5.13,5.13,5.1276,5.1184,5.1024,5.084,5.0687,5.0536,5.0391,5.0302,5.0302,5.0302,5.0302,5.0302,5.0302,5.0302,5.0302,5.0302,5.0302,5.0302,5.0302,5.0302,5.0302,5.0302,5.0302,5.0302,5.0302,5.0302,5.0302,5.0302,5.0608,5.1194,5.1194,5.1347,5.1576,5.1308,5.085,5.0302,5.0302,5.0302,5.0296,5.0278,5.0207,5.0095,5.0076,5.0005,4.9905,4.992,4.9993,5.0094,5.0258,5.0358,5.048,5.0626,5.0789,5.0923,5.0965,5.1046,5.1102,5.1102,5.1027,5.0972,5.0972,5.0972,5.0972,5.0972,5.0972,5.0958,5.0948,5.0954,5.0958,5.0948,5.1004,5.1059,5.1102,5.1125,5.1166,5.1239,5.1286,5.13,5.13,5.13,5.13,5.13,5.13,5.13,5.13,5.13,5.13,5.13,5.13,5.13,5.13,5.13,5.13,5.13,5.13,5.13,5.13,5.13,5.13,5.13,5.13,5.13,5.13,5.13,5.13,5.13,5.13,5.13,5.13,5.13,5.13,5.13,5.13,5.13,5.13,5.13,5.13,5.125,5.1122,5.0995,5.0867,5.0692,5.0577,5.0488,5.0488,5.0434,5.0399,5.0399,5.0335,5.0302,5.0302,5.0302,5.0302,5.0302,5.0302,5.0302,5.0302,5.0302,5.0302,5.0302,5.0302,5.0302,5.0302,5.0302,5.0755,5.1595,5.1251,5.1461,5.2021,5.1385,5.0984,5.0755,5.0436,5.0302,5.0296,5.0278,5.0201,5.0095,5.0076,4.9998,4.9905,4.9992,5.0168,5.0325,5.039,5.0529,5.0691,5.0893,5.0914,5.0972,5.1105,5.1114,5.1114,5.1114,5.1114,5.1114,5.1114,5.1108,5.1102,5.1102,5.1102,5.1075,5.101,5.1069,5.1075,5.1007,5.1075,5.1111,5.1114,5.119,5.1239,5.13,5.13,5.13,5.13,5.13,5.13,5.13,5.13,5.13,5.13,5.13,5.13,5.13,5.13,5.13,5.13,5.13,5.13,5.13,5.13,5.13,5.13,5.13,5.13,5.13,5.13,5.13,5.13,5.13,5.13,5.13,5.13,5.13,5.13,5.13,5.13,5.13,5.13,5.13,5.13,5.13,5.13,5.1252,5.1134,5.1108,5.1024,5.0851,5.0801,5.0794,5.0794,5.0687,5.0606,5.0592,5.0421,5.0319,5.0302,5.0302,5.0302,5.0302,5.0302,5.0302,5.0302,5.0302,5.0302,5.0302,5.0302,5.0302,5.0302,5.0302,5.0716,5.148,5.0735,5.12,5.2543,5.1104,5.0869,5.1442,5.0703,5.0359,5.0296,5.0224,5.0151,5.0095,5.0037,4.9972,4.9905,4.9992,5.0168,5.0344,5.0519,5.075,5.0953,5.1109,5.1179,5.123,5.1245,5.1248,5.1248,5.1248,5.1248,5.1248,5.1248,5.1155,5.1102,5.1102,5.1102,5.1096,5.1081,5.1093,5.1096,5.1078,5.1142,5.1191,5.1248,5.1278,5.129,5.13,5.13,5.13,5.13,5.13,5.13,5.13,5.13,5.13,5.13,5.13,5.13,5.13,5.13,5.13,5.13,5.13,5.13,5.13,5.13,5.13,5.13,5.13,5.13,5.13,5.13,5.13,5.13,5.13,5.13,5.13,5.13,5.13,5.13,5.13,5.13,5.13,5.13,5.13,5.13,5.13,5.13,5.1292,5.1252,5.1163,5.1074,5.1043,5.0907,5.0794,5.0794,5.0778,5.0718,5.0606,5.0562,5.0464,5.0314,5.0302,5.0302,5.0302,5.0302,5.0302,5.0302,5.0302,5.0302,5.0302,5.0302,5.0302,5.0302,5.0302,5.0417,5.0627,5.1079,5.1156,5.0932,5.1811,5.1601,5.064,5.1098,5.0907,5.0296,5.0284,5.0207,5.0095,5.0082,5.0005,4.9905,5.0205,5.0374,5.0562,5.0786,5.0998,5.1157,5.1236,5.1284,5.13,5.13,5.13,5.13,5.13,5.13,5.13,5.13,5.1234,5.1184,5.1184,5.1184,5.1171,5.1145,5.1188,5.1171,5.1145,5.1218,5.1256,5.13,5.13,5.13,5.13,5.13,5.13,5.13,5.13,5.13,5.13,5.13,5.13,5.13,5.13,5.13,5.13,5.13,5.13,5.13,5.13,5.13,5.13,5.13,5.13,5.13,5.13,5.13,5.13,5.13,5.13,5.13,5.13,5.13,5.13,5.13,5.13,5.13,5.13,5.13,5.13,5.13,5.13,5.13,5.13,5.13,5.13,5.13,5.1239,5.1184,5.1184,5.1092,5.1032,5.1032,5.0979,5.0903,5.0836,5.0695,5.0542,5.0456,5.0346,5.0302,5.0302,5.0302,5.0302,5.0302,5.0302,5.0302,5.0302,5.0302,5.0302,5.0302,5.0302,5.0302,5.0321,5.0799,5.0965,5.0926,5.1448,5.1582,5.1448,5.1557,5.1328,5.0888,5.0864,5.0538,5.0095,5.007,4.9998,4.9905,5.0445,5.0609,5.077,5.1056,5.1218,5.13,5.13,5.13,5.13,5.13,5.13,5.13,5.13,5.13,5.13,5.13,5.13,5.13,5.13,5.13,5.1263,5.1223,5.128,5.1263,5.1223,5.1261,5.13,5.13,5.13,5.13,5.13,5.13,5.13,5.13,5.13,5.13,5.13,5.13,5.13,5.13,5.13,5.13,5.13,5.13,5.13,5.13,5.13,5.13,5.13,5.13,5.13,5.13,5.13,5.13,5.13,5.13,5.13,5.13,5.13,5.13,5.13,5.13,5.13,5.13,5.13,5.13,5.13,5.13,5.13,5.13,5.13,5.13,5.13,5.13,5.13,5.13,5.13,5.13,5.13,5.13,5.1208,5.1122,5.1105,5.084,5.0653,5.0596,5.0432,5.0323,5.0302,5.0337,5.0323,5.0302,5.0302,5.0302,5.0302,5.0302,5.0302,5.0302,5.0302,5.0302,5.0302,5.0302,5.0703,5.1366,5.0755,5.1295,5.2581,5.2015,5.1786,5.1761,5.1579,5.1015,5.0266,5.0082,4.9972,4.9905,5.0445,5.0609,5.077,5.1056,5.1218,5.13,5.13,5.13,5.13,5.13,5.13,5.13,5.13,5.13,5.13,5.13,5.13,5.13,5.13,5.13,5.1296,5.1271,5.1296,5.1296,5.129,5.1296,5.13,5.13,5.13,5.13,5.13,5.13,5.13,5.13,5.13,5.13,5.13,5.13,5.13,5.13,5.13,5.13,5.13,5.13,5.13,5.13,5.13,5.13,5.13,5.13,5.13,5.13,5.13,5.13,5.13,5.13,5.13,5.13,5.13,5.13,5.13,5.13,5.13,5.13,5.13,5.13,5.13,5.13,5.13,5.13,5.13,5.13,5.13,5.13,5.13,5.13,5.13,5.13,5.13,5.13,5.1288,5.1227,5.1114,5.1046,5.0901,5.0616,5.0576,5.048,5.0314,5.0458,5.0474,5.0308,5.0302,5.0302,5.0302,5.0302,5.0302,5.0302,5.0302,5.0302,5.0302,5.0302,5.0378,5.055,5.1137,5.1557,5.1824,5.2384,5.2614,5.2556,5.1856,5.1439,5.1104,5.0361,5.0011,4.9905,5.0591,5.0705,5.0847,5.1146,5.1252,5.13,5.13,5.13,5.13,5.13,5.13,5.13,5.13,5.13,5.13,5.13,5.13,5.13,5.13,5.13,5.13,5.13,5.13,5.13,5.13,5.13,5.13,5.13,5.13,5.13,5.13,5.13,5.13,5.13,5.13,5.13,5.13,5.13,5.13,5.13,5.13,5.13,5.13,5.13,5.13,5.13,5.13,5.13,5.13,5.13,5.13,5.13,5.13,5.13,5.13,5.13,5.13,5.13,5.13,5.13,5.13,5.13,5.13,5.13,5.13,5.13,5.13,5.13,5.13,5.13,5.13,5.13,5.13,5.13,5.13,5.13,5.13,5.13,5.13,5.13,5.13,5.1284,5.122,5.1142,5.1034,5.0879,5.0764,5.0674,5.0563,5.0601,5.0596,5.0572,5.038,5.0302,5.0302,5.0302,5.0302,5.0302,5.0302,5.0302,5.0302,5.0302,5.0302,5.0321,5.0735,5.1175,5.1652,5.2461,5.2811,5.2811,5.2919,5.231,5.1358,5.0951,5.043,4.9905,5.0726,5.0794,5.0912,5.125,5.13,5.13,5.13,5.13,5.13,5.13,5.13,5.13,5.13,5.13,5.13,5.13,5.13,5.13,5.13,5.13,5.13,5.13,5.13,5.13,5.13,5.13,5.13,5.13,5.13,5.13,5.13,5.13,5.13,5.13,5.13,5.13,5.13,5.13,5.13,5.13,5.13,5.13,5.13,5.13,5.13,5.13,5.13,5.13,5.13,5.13,5.13,5.13,5.13,5.13,5.13,5.13,5.13,5.13,5.13,5.13,5.13,5.13,5.13,5.13,5.13,5.13,5.13,5.13,5.13,5.13,5.13,5.13,5.13,5.13,0.0,5.13,5.13,5.13,5.13,5.13,5.13,5.13,5.13,5.1215,5.1134,5.1105,5.0952,5.0855,5.0798,5.0743,5.0752,5.0866,5.0577,5.0405,5.0369,5.0369,5.0359,5.0302,5.0302,5.0302,5.0302,5.0302,5.0302,5.0302,5.0302,5.0799,5.1652,5.2461,5.2925,5.3168,5.3836,5.3226,5.1929,5.1529,5.0886,5.017,5.0726,5.0794,5.0912,5.125,5.13,5.13,5.13,5.13,5.13,5.13,5.13,5.13,5.13,5.13,5.13,5.13,5.13,5.13,5.13,5.13,5.13,5.13,5.13,5.13,5.13,5.13,5.13,5.13,5.13,5.13,5.13,5.13,5.13,5.13,5.13,5.13,5.13,5.13,5.13,5.13,5.13,5.13,5.13,5.13,5.13,5.13,5.13,5.13,5.13,5.13,5.13,5.13,5.13,5.13,5.13,5.13,5.13,5.13,5.13,5.13,5.13,5.13,5.13,5.13,5.13,5.13,5.13,5.13,5.13,5.13,5.13,5.13,5.13,5.13,0.0,0.0,5.13,5.13,5.13,5.13,5.13,5.13,5.13,5.1294,5.1234,5.1111,5.1093,5.0998,5.0801,5.0975,5.1078,5.1087,5.0866,5.0698,5.0586,5.0586,5.0485,5.0302,5.0302,5.0302,5.0302,5.0302,5.0302,5.0302,5.0302,5.0799,5.1652,5.2461,5.3282,5.4008,5.4065,5.3951,5.3528,5.1967,5.1259,5.099,5.0726,5.0794,5.0912,5.125,5.13,5.13,5.13,5.13,5.13,5.13,5.13,5.13,5.13,5.13,5.13,5.13,5.13,5.13,5.13,5.13,5.13,5.13,5.13,5.13,5.13,5.13,5.13,5.13,5.13,5.13,5.13,5.13,5.13,5.13,5.13,5.13,5.13,5.13,5.13,5.13,5.13,5.13,5.13,5.13,5.13,5.13,5.13,5.13,5.13,5.13,5.13,5.13,5.13,5.13,5.13,5.13,5.13,5.13,5.13,5.13,5.13,5.13,5.13,5.13,5.13,5.13,5.13,5.13,5.13,5.13,5.13,5.13,5.13,5.13,0.0,5.13,5.13,5.13,5.13,5.13,5.13,5.13,5.13,5.13,5.1286,5.123,5.1227,5.1191,5.1114,5.1189,5.1198,5.1105,5.1114,5.0995,5.0739,5.0634,5.0567,5.0485,5.0357,5.0302,5.0302,5.0302,5.0302,5.0302,5.0302,5.0493,5.0894,5.2257,5.3002,5.3397,5.4486,5.4498,5.3749,5.2576,5.1734,5.1085,5.0757,5.0855,5.0982,5.1254,5.13,5.13,5.13,5.13,5.13,5.13,5.13,5.13,5.13,5.13,5.13,5.13,5.13,5.13,5.13,5.13,5.13,5.13,5.13,5.13,5.13,5.13,5.13,5.13,5.13,5.13,5.13,5.13,5.13,5.13,5.13,5.13,5.13,5.13,5.13,5.13,5.13,5.13,5.13,5.13,5.13,5.13,5.13,5.13,5.13,5.13,5.13,5.13,5.13,5.13,5.13,5.13,5.13,5.13,5.13,5.13,5.13,5.13,5.13,5.13,5.13,5.13,5.13,5.13,5.13,5.13,5.13,5.13,5.13,5.13,5.13,5.13,5.13,5.13,5.13,5.13,5.13,5.13,5.13,5.13,5.13,5.13,5.13,5.13,5.13,5.13,5.1252,5.1161,5.1248,5.1181,5.0959,5.0821,5.0724,5.0666,5.0523,5.0429,5.0396,5.0396,5.0357,5.0302,5.0302,5.0302,5.0417,5.1849,5.2575,5.2938,5.4384,5.4688,5.4168,5.3304,5.2379,5.1464,5.0782,5.0956,5.1142,5.1284,5.13,5.13,5.13,5.13,5.13,5.13,5.13,5.13,5.13,5.13,5.13,5.13,5.13,5.13,5.13,5.13,5.13,5.13,5.13,5.13,5.13,5.13,5.13,5.13,5.13,5.13,5.13,5.13,5.13,5.13,5.13,5.13,5.13,5.13,5.13,5.13,5.13,5.13,5.13,5.13,5.13,5.13,5.13,5.13,5.13,5.13,5.13,5.13,5.13,5.13,5.13,5.13,5.13,5.13,5.13,5.13,5.13,5.13,5.13,5.13,5.13,5.13,5.13,5.13,5.13,5.13,5.13,5.13,5.13,5.13,5.13,5.13,5.13,5.13,5.13,5.13,5.13,5.13,5.13,5.13,5.13,5.13,5.13,5.13,5.13,5.13,5.13,5.13,5.13,5.13,5.13,5.1163,5.0998,5.0798,5.0798,5.0724,5.0592,5.0592,5.049,5.0302,5.0302,5.0302,5.0378,5.1232,5.2079,5.2881,5.3684,5.445,5.4992,5.4123,5.3203,5.2298,5.0958,5.1059,5.1142,5.1284,5.13,5.13,5.13,5.13,5.13,5.13,5.13,5.13,5.13,5.13,5.13,5.13,5.13,5.13,5.13,5.13,5.13,5.13,5.13,5.13,5.13,5.13,5.13,5.13,5.13,5.13,5.13,5.13,5.13,5.13,5.13,5.13,5.13,5.13,5.13,5.13,5.13,5.13,5.13,5.13,5.13,5.13,5.13,5.13,5.13,5.13,5.13,5.13,5.13,5.13,5.13,5.13,5.13,5.13,5.13,5.13,5.13,5.13,5.13,5.13,5.13,5.13,5.13,5.13,5.13,5.13,5.13,5.13,5.13,5.13,5.13,5.13,5.13,5.13,5.13,5.13,5.13,5.13,5.13,5.13,5.13,5.13,5.13,5.13,5.13,5.13,5.13,5.13,5.13,5.13,5.13,5.1163,5.1065,5.1005,5.0866,5.0789,5.0732,5.0639,5.0576,5.0506,5.0357,5.0302,5.0378,5.1232,5.1705,5.203,5.3455,5.4081,5.4161,5.3893,5.3583,5.3113,5.1053,5.1142,5.1193,5.129,5.13,5.13,5.13,5.13,5.13,5.13,5.13,5.13,5.13,5.13,5.13,5.13,5.13,5.13,5.13,5.13,5.13,5.13,5.13,5.13,5.13,5.13,5.13,5.13,5.13,5.13,5.13,5.13,5.13,5.13,5.13,5.13,5.13,5.13,5.13,5.13,5.13,5.13,5.13,5.13,5.13,5.13,5.13,5.13,5.13,5.13,5.13,5.13,5.13,5.13,5.13,5.13,5.13,5.13,5.13,5.13,5.13,5.13,5.13,5.13,5.13,5.13,5.13,5.13,5.13,5.13,5.13,5.13,5.13,5.13,5.13,5.13,5.13,5.13,5.13,5.13,5.13,5.13,5.13,5.13,5.13,5.13,5.13,5.13,5.13,5.13,5.13,5.13,5.13,5.13,5.13,5.1225,5.1174,5.1171,5.1063,5.0959,5.0921,5.0825,5.0735,5.0582,5.0469,5.0374,5.0334,5.0845,5.1235,5.1599,5.257,5.3088,5.329,5.3255,5.3213,5.2999,5.1117,5.1223,5.13,5.13,5.13,5.13,5.13,5.13,5.13,5.13,5.13,5.13,5.13,5.13,5.13,5.13,5.13,5.13,5.13,5.13,5.13,5.13,5.13,5.13,5.13,5.13,5.13,5.13,5.13,5.13,5.13,5.13,5.13,5.13,5.13,5.13,5.13,5.13,5.13,5.13,5.13,5.13,5.13,5.13,5.13,5.13,5.13,5.13,5.13,5.13,5.13,5.13,5.13,5.13,5.13,5.13,5.13,5.13,5.13,5.13,5.13,5.13,5.13,5.13,5.13,5.13,5.13,5.13,5.13,5.13,5.13,5.13,5.13,5.13,5.13,5.13,5.13,5.13,5.13,5.13,5.13,5.13,5.13,5.13,5.13,5.13,5.13,5.13,5.13,5.13,5.13,5.13,5.13,5.13,5.13,5.13,5.13,5.13,5.13,5.1236,5.112,5.1108,5.0926,5.0644,5.0625,5.0502,5.0329,5.0259,5.0682,5.1395,5.1325,5.174,5.2405,5.2409,5.2393,5.2279,5.1236,5.1286,5.13,5.13,5.13,5.13,5.13,5.13,5.13,5.13,5.13,5.13,5.13,5.13,5.13,5.13,5.13,5.13,5.13,5.13,5.13,5.13,5.13,5.13,5.13,5.13,5.13,5.13,5.13,5.13,5.13,5.13,5.13,5.13,5.13,5.13,5.13,5.13,5.13,5.13,5.13,5.13,5.13,5.13,5.13,5.13,5.13,5.13,5.13,5.13,5.13,5.13,5.13,5.13,5.13,5.13,5.13,5.13,5.13,5.13,5.13,5.13,5.13,5.13,5.13,5.13,5.13,5.13,5.13,5.13,5.13,5.13,5.13,5.13,5.13,5.13,5.13,5.13,5.13,5.13,5.13,5.13,5.13,5.13,5.13,5.13,5.13,5.13,5.13,5.13,5.13,5.13,5.13,5.13,5.13,5.13,5.13,5.13,5.13,5.1271,5.1248,5.1145,5.1053,5.0972,5.0832,5.0694,5.0596,5.0472,5.0544,5.076,5.1148,5.1439,5.17,5.2216,5.2393,5.2279,5.129,5.13,5.13,5.13,5.13,5.13,5.13,5.13,5.13,5.13,5.13,5.13,5.13,5.13,5.13,5.13,5.13,5.13,5.13,5.13,5.13,5.13,5.13,5.13,5.13,5.13,5.13,5.13,5.13,5.13,5.13,5.13,5.13,5.13,5.13,5.13,5.13,5.13,5.13,5.13,5.13,5.13,5.13,5.13,5.13,5.13,5.13,5.13,5.13,5.13,5.13,5.13,5.13,5.13,5.13,5.13,5.13,5.13,5.13,5.13,5.13,5.13,5.13,5.13,5.13,5.13,5.13,5.13,5.13,5.13,5.13,5.13,5.13,5.13,5.13,5.13,5.13,5.13,5.13,5.13,5.13,5.13,5.13,5.13,5.13,5.13,5.13,5.13,5.13,5.13,5.13,5.13,5.13,5.13,5.13,5.13,5.13,5.13,5.13,5.13,5.1296,5.1158,5.1049,5.0945,5.0851,5.0735,5.0596,5.0563,5.0528,5.0509,5.0708,5.0799,5.0862,5.1224,5.1355,5.1355,5.13,5.13,5.13,5.13,5.13,5.13,5.13,5.13,5.13,5.13,5.13,5.13,5.13,5.13,5.13,5.13,5.13,5.13,5.13,5.13,5.13,5.13,5.13,5.13,5.13,5.13,5.13,5.13,5.13,5.13,5.13,5.13,5.13,5.13,5.13,5.13,5.13,5.13,5.13,5.13,5.13,5.13,5.13,5.13,5.13,5.13,5.13,5.13,5.13,5.13,5.13,5.13,5.13,5.13,5.13,5.13,5.13,5.13,5.13,5.13,5.13,5.13,5.13,5.13,5.13,5.13,5.13,5.13,5.13,5.13,5.13,5.13,5.13,5.13,5.13,5.13,5.13,5.13,5.13,5.13,5.13,5.13,5.13,5.13,5.13,5.13,5.13,5.13,5.13,5.13,5.13,5.13,5.13,5.13,5.13,5.13,5.13,5.13,5.13,5.13,5.1296,5.1176,5.1039,5.0875,5.0866,5.0739,5.0571,5.0582,5.0568,5.0507,5.0316,5.0259,5.0289,5.0253,5.0224,5.0308,5.13,5.13,5.13,5.13,5.13,5.13,5.13,5.13,5.13,5.13,5.13,5.13,5.13,5.13,5.13,5.13,5.13,5.13,5.13,5.13,5.13,5.13,5.13,5.13,5.13,5.13,5.13,5.13,5.13,5.13,5.13,5.13,5.13,5.13,5.13,5.13,5.13,5.13,5.13,5.13,5.13,5.13,5.13,5.13,5.13,5.13,5.13,5.13,5.13,5.13,5.13,5.13,5.13,5.13,5.13,5.13,5.13,5.13,5.13,5.13,5.13,5.13,5.13,5.13,5.13,5.13,5.13,5.13,5.13,5.13,5.13,5.13,5.13,5.13,5.13,5.13,5.13,5.13,5.13,5.13,5.13,5.13,5.13,5.13,5.13,5.13,5.13,5.13,5.13,5.13,5.13,5.13,5.13,5.13,5.13,5.13,5.13,5.13,5.13,5.13,5.1298,5.1286,5.1256,5.1219,5.1106,5.0972,5.0821,5.0664,5.0629,5.0644,5.046,5.0476,5.0601,5.0445,5.0291,5.0213,5.13,5.13,5.13,5.13,5.13,5.13,5.13,5.13,5.13,5.13,5.13,5.13,5.13,5.13,5.13,5.13,5.13,5.13,5.13,5.13,5.13,5.13,5.13,5.13,5.13,5.13,5.13,5.13,5.13,5.13,5.13,5.13,5.13,5.13,5.13,5.13,5.13,5.13,5.13,5.13,5.13,5.13,5.13,5.13,5.13,5.13,5.13,5.13,5.13,5.13,5.13,5.13,5.13,5.13,5.13,5.13,5.13,5.13,5.13,5.13,5.13,5.13,5.13,5.13,5.13,5.13,5.13,5.13,5.13,5.13,5.13,5.13,5.13,5.13,5.13,5.13,5.13,5.13,5.13,5.13,5.13,5.13,5.13,5.13,5.13,5.13,5.13,5.13,5.13,5.13,5.13,5.13,5.13,5.13,5.13,5.13,5.13,5.13,5.13,5.13,5.1298,5.1227,5.1201,5.1176,5.1087,5.0997,5.0883,5.0763,5.0708,5.0678,5.0405,5.0386,5.0522,5.0431,5.0434,5.0474]}]]